Wetterdaten: Sonntag, 21.01.2018
Datum Zeit Temp. A. Pool Temp. Feuchte A. Luftdruck Regen Wind Richtung Richtung Sonnenschein ET UV Solar Taupunkt Windchill Windben Empfang
21.01.2018 00:00 0,2 C 3,3 C 96 % 999,1 hPa 0,0 l/m 5,3 km/h (1 Bft) N-NO 27 0 min 0,000 mm 0,0 UV-I 0 W/m -0,4 C 0,2 C 6,4 km/h (2 Bft) 98,00 %
21.01.2018 00:02 0,2 C 3,3 C 96 % 999,0 hPa 0,0 l/m 4,3 km/h (1 Bft) N-NO 28 0 min 0,000 mm 0,0 UV-I 0 W/m -0,4 C 0,2 C 6,4 km/h (2 Bft) 97,78 %
21.01.2018 00:04 0,1 C 3,3 C 96 % 998,9 hPa 0,0 l/m 4,3 km/h (1 Bft) NO 47 0 min 0,000 mm 0,0 UV-I 0 W/m -0,5 C 0,1 C 6,4 km/h (2 Bft) 100,00 %
21.01.2018 00:06 0,1 C 3,3 C 96 % 999,0 hPa 0,0 l/m 4,9 km/h (1 Bft) NO 43 0 min 0,000 mm 0,0 UV-I 0 W/m -0,5 C 0,1 C 6,4 km/h (2 Bft) 100,00 %
21.01.2018 00:08 0,1 C 3,3 C 96 % 998,9 hPa 0,0 l/m 5,0 km/h (1 Bft) NO 44 0 min 0,000 mm 0,0 UV-I 0 W/m -0,5 C 0,1 C 6,4 km/h (2 Bft) 98,00 %
21.01.2018 00:10 0,1 C 3,3 C 97 % 998,8 hPa 0,0 l/m 4,1 km/h (1 Bft) NO 49 0 min 0,000 mm 0,0 UV-I 0 W/m -0,3 C 0,1 C 4,8 km/h (1 Bft) 97,87 %
21.01.2018 00:12 0,1 C 3,3 C 97 % 998,8 hPa 0,0 l/m 4,4 km/h (1 Bft) NO 38 0 min 0,000 mm 0,0 UV-I 0 W/m -0,3 C 0,1 C 6,4 km/h (2 Bft) 97,87 %
21.01.2018 00:14 0,1 C 3,3 C 97 % 998,8 hPa 0,0 l/m 4,9 km/h (1 Bft) NO 39 0 min 0,000 mm 0,0 UV-I 0 W/m -0,3 C 0,1 C 6,4 km/h (2 Bft) 93,62 %
21.01.2018 00:16 0,1 C 3,3 C 97 % 998,8 hPa 0,0 l/m 4,2 km/h (1 Bft) NO 53 0 min 0,000 mm 0,0 UV-I 0 W/m -0,3 C 0,1 C 6,4 km/h (2 Bft) 97,87 %
21.01.2018 00:18 0,1 C 3,3 C 97 % 998,8 hPa 0,0 l/m 3,6 km/h (1 Bft) NO 51 0 min 0,000 mm 0,0 UV-I 0 W/m -0,3 C 0,1 C 6,4 km/h (2 Bft) 96,00 %
21.01.2018 00:20 0,1 C 3,3 C 97 % 998,8 hPa 0,0 l/m 4,0 km/h (1 Bft) NO 52 0 min 0,000 mm 0,0 UV-I 0 W/m -0,3 C 0,1 C 6,4 km/h (2 Bft) 95,74 %
21.01.2018 00:22 0,1 C 3,3 C 97 % 998,8 hPa 0,0 l/m 3,5 km/h (1 Bft) O-NO 58 0 min 0,000 mm 0,0 UV-I 0 W/m -0,3 C 0,1 C 4,8 km/h (1 Bft) 91,49 %
21.01.2018 00:24 0,1 C 3,3 C 97 % 998,8 hPa 0,0 l/m 3,9 km/h (1 Bft) NO 56 0 min 0,000 mm 0,0 UV-I 0 W/m -0,3 C 0,1 C 4,8 km/h (1 Bft) 95,74 %
21.01.2018 00:26 0,1 C 3,3 C 97 % 998,7 hPa 0,0 l/m 4,5 km/h (1 Bft) NO 47 0 min 0,000 mm 0,0 UV-I 0 W/m -0,3 C 0,1 C 8,0 km/h (2 Bft) 97,37 %
21.01.2018 00:28 0,1 C 3,3 C 97 % 998,7 hPa 0,0 l/m 5,1 km/h (1 Bft) O-NO 61 0 min 0,000 mm 0,0 UV-I 0 W/m -0,3 C 0,1 C 6,4 km/h (2 Bft) 98,00 %
21.01.2018 00:30 0,1 C 3,3 C 97 % 998,6 hPa 0,0 l/m 4,9 km/h (1 Bft) O-NO 63 0 min 0,000 mm 0,0 UV-I 0 W/m -0,3 C 0,1 C 6,4 km/h (2 Bft) 97,87 %
21.01.2018 00:32 0,1 C 3,3 C 97 % 998,6 hPa 0,0 l/m 4,8 km/h (1 Bft) O-NO 76 0 min 0,000 mm 0,0 UV-I 0 W/m -0,3 C 0,1 C 6,4 km/h (2 Bft) 98,00 %
21.01.2018 00:34 0,0 C 3,3 C 97 % 998,6 hPa 0,0 l/m 4,6 km/h (1 Bft) O-NO 66 0 min 0,000 mm 0,0 UV-I 0 W/m -0,4 C 0,0 C 6,4 km/h (2 Bft) 93,62 %
21.01.2018 00:36 0,1 C 3,3 C 97 % 998,6 hPa 0,0 l/m 4,2 km/h (1 Bft) O 79 0 min 0,000 mm 0,0 UV-I 0 W/m -0,3 C 0,1 C 6,4 km/h (2 Bft) 95,74 %
21.01.2018 00:38 0,1 C 3,3 C 97 % 998,5 hPa 0,0 l/m 4,6 km/h (1 Bft) O-NO 78 0 min 0,000 mm 0,0 UV-I 0 W/m -0,3 C 0,1 C 8,0 km/h (2 Bft) 98,00 %
21.01.2018 00:40 0,1 C 3,3 C 97 % 998,5 hPa 0,0 l/m 5,1 km/h (1 Bft) O-NO 66 0 min 0,000 mm 0,0 UV-I 0 W/m -0,3 C 0,1 C 6,4 km/h (2 Bft) 97,87 %
21.01.2018 00:42 0,0 C 3,3 C 97 % 998,5 hPa 0,0 l/m 4,2 km/h (1 Bft) O-NO 64 0 min 0,000 mm 0,0 UV-I 0 W/m -0,4 C 0,0 C 6,4 km/h (2 Bft) 97,87 %
21.01.2018 00:44 0,0 C 3,3 C 97 % 998,5 hPa 0,0 l/m 3,3 km/h (1 Bft) O 80 0 min 0,000 mm 0,0 UV-I 0 W/m -0,4 C 0,0 C 4,8 km/h (1 Bft) 97,22 %
21.01.2018 00:46 0,0 C 3,3 C 97 % 998,5 hPa 0,0 l/m 4,8 km/h (1 Bft) O-NO 78 0 min 0,000 mm 0,0 UV-I 0 W/m -0,4 C 0,0 C 8,0 km/h (2 Bft) 97,87 %
21.01.2018 00:48 0,0 C 3,3 C 97 % 998,5 hPa 0,0 l/m 4,8 km/h (1 Bft) O 91 0 min 0,000 mm 0,0 UV-I 0 W/m -0,4 C 0,0 C 6,4 km/h (2 Bft) 93,62 %
21.01.2018 00:50 0,0 C 3,3 C 97 % 998,5 hPa 0,0 l/m 4,7 km/h (1 Bft) O 81 0 min 0,000 mm 0,0 UV-I 0 W/m -0,4 C 0,0 C 8,0 km/h (2 Bft) 97,87 %
21.01.2018 00:52 0,0 C 3,3 C 97 % 998,5 hPa 0,0 l/m 4,8 km/h (1 Bft) O-NO 75 0 min 0,000 mm 0,0 UV-I 0 W/m -0,4 C 0,0 C 6,4 km/h (2 Bft) 98,00 %
21.01.2018 00:54 0,0 C 3,3 C 97 % 998,5 hPa 0,0 l/m 3,7 km/h (1 Bft) O-NO 78 0 min 0,000 mm 0,0 UV-I 0 W/m -0,4 C 0,0 C 8,0 km/h (2 Bft) 97,87 %
21.01.2018 00:56 0,0 C 3,3 C 97 % 998,5 hPa 0,0 l/m 5,4 km/h (1 Bft) O-NO 77 0 min 0,000 mm 0,0 UV-I 0 W/m -0,4 C 0,0 C 8,0 km/h (2 Bft) 98,00 %
21.01.2018 00:58 0,0 C 3,3 C 97 % 998,6 hPa 0,0 l/m 3,7 km/h (1 Bft) O-NO 78 0 min 0,000 mm 0,0 UV-I 0 W/m -0,4 C 0,0 C 6,4 km/h (2 Bft) 93,62 %
21.01.2018 01:00 0,0 C 3,3 C 97 % 998,6 hPa 0,0 l/m 3,0 km/h (1 Bft) O 84 0 min 0,000 mm 0,0 UV-I 0 W/m -0,4 C 0,0 C 4,8 km/h (1 Bft) 97,87 %
21.01.2018 01:02 0,0 C 3,3 C 97 % 998,6 hPa 0,0 l/m 2,8 km/h (1 Bft) O-NO 78 0 min 0,000 mm 0,0 UV-I 0 W/m -0,4 C 0,0 C 4,8 km/h (1 Bft) 95,74 %
21.01.2018 01:04 0,0 C 3,3 C 97 % 998,6 hPa 0,0 l/m 3,4 km/h (1 Bft) O-NO 61 0 min 0,000 mm 0,0 UV-I 0 W/m -0,4 C 0,0 C 4,8 km/h (1 Bft) 97,87 %
21.01.2018 01:06 0,1 C 3,3 C 97 % 998,6 hPa 0,0 l/m 3,5 km/h (1 Bft) O-NO 71 0 min 0,000 mm 0,0 UV-I 0 W/m -0,3 C 0,1 C 4,8 km/h (1 Bft) 96,00 %
21.01.2018 01:08 0,0 C 3,3 C 97 % 998,5 hPa 0,0 l/m 2,5 km/h (1 Bft) O-NO 62 0 min 0,000 mm 0,0 UV-I 0 W/m -0,4 C 0,0 C 4,8 km/h (1 Bft) 97,87 %
21.01.2018 01:10 0,0 C 3,3 C 97 % 998,6 hPa 0,0 l/m 3,7 km/h (1 Bft) O-NO 68 0 min 0,000 mm 0,0 UV-I 0 W/m -0,4 C 0,0 C 4,8 km/h (1 Bft) 97,87 %
21.01.2018 01:12 0,0 C 3,3 C 97 % 998,5 hPa 0,0 l/m 4,6 km/h (1 Bft) NO 54 0 min 0,000 mm 0,0 UV-I 0 W/m -0,4 C 0,0 C 6,4 km/h (2 Bft) 94,74 %
21.01.2018 01:14 0,0 C 3,3 C 97 % 998,5 hPa 0,0 l/m 4,1 km/h (1 Bft) O-NO 74 0 min 0,000 mm 0,0 UV-I 0 W/m -0,4 C 0,0 C 6,4 km/h (2 Bft) 97,87 %
21.01.2018 01:16 0,0 C 3,3 C 97 % 998,5 hPa 0,0 l/m 1,5 km/h (1 Bft) O-NO 61 0 min 0,000 mm 0,0 UV-I 0 W/m -0,4 C 0,0 C 3,2 km/h (1 Bft) 97,87 %
21.01.2018 01:18 0,0 C 3,3 C 97 % 998,5 hPa 0,0 l/m 1,0 km/h (0 Bft) O-NO 61 0 min 0,000 mm 0,0 UV-I 0 W/m -0,4 C 0,0 C 3,2 km/h (1 Bft) 94,34 %
21.01.2018 01:20 0,0 C 3,3 C 97 % 998,5 hPa 0,0 l/m 2,9 km/h (1 Bft) NO 53 0 min 0,000 mm 0,0 UV-I 0 W/m -0,4 C 0,0 C 4,8 km/h (1 Bft) 100,00 %
21.01.2018 01:22 0,0 C 3,3 C 97 % 998,5 hPa 0,0 l/m 3,2 km/h (1 Bft) NO 52 0 min 0,000 mm 0,0 UV-I 0 W/m -0,4 C 0,0 C 4,8 km/h (1 Bft) 100,00 %
21.01.2018 01:24 0,0 C 3,3 C 97 % 998,6 hPa 0,0 l/m 0,6 km/h (0 Bft) NO 52 0 min 0,000 mm 0,0 UV-I 0 W/m -0,4 C 0,0 C 3,2 km/h (1 Bft) 98,36 %
21.01.2018 01:26 0,0 C 3,3 C 97 % 998,6 hPa 0,0 l/m 0,0 km/h (0 Bft) NO 52 0 min 0,000 mm 0,0 UV-I 0 W/m -0,4 C 0,0 C 0,0 km/h (0 Bft) 97,92 %
21.01.2018 01:28 0,0 C 3,3 C 97 % 998,6 hPa 0,0 l/m 0,0 km/h (0 Bft) NO 52 0 min 0,000 mm 0,0 UV-I 0 W/m -0,4 C 0,0 C 0,0 km/h (0 Bft) 97,87 %
21.01.2018 01:30 0,0 C 3,3 C 97 % 998,7 hPa 0,0 l/m 0,0 km/h (0 Bft) NO 52 0 min 0,000 mm 0,0 UV-I 0 W/m -0,4 C 0,0 C 0,0 km/h (0 Bft) 100,00 %
21.01.2018 01:32 0,0 C 3,3 C 97 % 998,5 hPa 0,0 l/m 2,6 km/h (1 Bft) O-NO 67 0 min 0,000 mm 0,0 UV-I 0 W/m -0,4 C 0,0 C 4,8 km/h (1 Bft) 97,87 %
21.01.2018 01:34 0,0 C 3,3 C 97 % 998,5 hPa 0,0 l/m 4,7 km/h (1 Bft) O-NO 70 0 min 0,000 mm 0,0 UV-I 0 W/m -0,4 C 0,0 C 6,4 km/h (2 Bft) 95,74 %
21.01.2018 01:36 0,0 C 3,3 C 97 % 998,6 hPa 0,0 l/m 3,4 km/h (1 Bft) O-NO 63 0 min 0,000 mm 0,0 UV-I 0 W/m -0,4 C 0,0 C 4,8 km/h (1 Bft) 93,62 %
21.01.2018 01:38 0,0 C 3,3 C 97 % 998,7 hPa 0,0 l/m 0,5 km/h (0 Bft) NO 43 0 min 0,000 mm 0,0 UV-I 0 W/m -0,4 C 0,0 C 1,6 km/h (1 Bft) 94,29 %
21.01.2018 01:40 0,0 C 3,3 C 97 % 998,7 hPa 0,0 l/m 1,0 km/h (0 Bft) NW 316 0 min 0,000 mm 0,0 UV-I 0 W/m -0,4 C 0,0 C 1,6 km/h (1 Bft) 96,00 %
21.01.2018 01:42 0,0 C 3,3 C 97 % 998,7 hPa 0,0 l/m 0,0 km/h (0 Bft) NW 316 0 min 0,000 mm 0,0 UV-I 0 W/m -0,4 C 0,0 C 1,6 km/h (1 Bft) 93,62 %
21.01.2018 01:44 0,0 C 3,3 C 97 % 998,7 hPa 0,0 l/m 0,1 km/h (0 Bft) NW 317 0 min 0,000 mm 0,0 UV-I 0 W/m -0,4 C 0,0 C 1,6 km/h (1 Bft) 97,87 %
21.01.2018 01:46 0,0 C 3,3 C 97 % 998,7 hPa 0,0 l/m 2,2 km/h (1 Bft) NW 319 0 min 0,000 mm 0,0 UV-I 0 W/m -0,4 C 0,0 C 3,2 km/h (1 Bft) 97,87 %
21.01.2018 01:48 0,0 C 3,3 C 97 % 998,8 hPa 0,0 l/m 1,1 km/h (1 Bft) NW 319 0 min 0,000 mm 0,0 UV-I 0 W/m -0,4 C 0,0 C 3,2 km/h (1 Bft) 95,74 %
21.01.2018 01:50 0,0 C 3,3 C 97 % 998,8 hPa 0,0 l/m 0,0 km/h (0 Bft) NW 319 0 min 0,000 mm 0,0 UV-I 0 W/m -0,4 C 0,0 C 0,0 km/h (0 Bft) 97,87 %
21.01.2018 01:52 0,0 C 3,3 C 97 % 998,8 hPa 0,0 l/m 0,0 km/h (0 Bft) NW 319 0 min 0,000 mm 0,0 UV-I 0 W/m -0,4 C 0,0 C 0,0 km/h (0 Bft) 97,87 %
21.01.2018 01:54 0,0 C 3,3 C 97 % 998,8 hPa 0,0 l/m 0,0 km/h (0 Bft) N-NO 13 0 min 0,000 mm 0,0 UV-I 0 W/m -0,4 C 0,0 C 0,0 km/h (0 Bft) 97,87 %
21.01.2018 01:56 0,0 C 3,3 C 97 % 998,8 hPa 0,0 l/m 0,0 km/h (0 Bft) N-NO 13 0 min 0,000 mm 0,0 UV-I 0 W/m -0,4 C 0,0 C 0,0 km/h (0 Bft) 97,87 %
21.01.2018 01:58 0,0 C 3,3 C 97 % 998,8 hPa 0,0 l/m 0,0 km/h (0 Bft) N-NO 13 0 min 0,000 mm 0,0 UV-I 0 W/m -0,4 C 0,0 C 0,0 km/h (0 Bft) 95,74 %
21.01.2018 02:00 0,0 C 3,3 C 97 % 998,8 hPa 0,0 l/m 0,0 km/h (0 Bft) N-NO 13 0 min 0,000 mm 0,0 UV-I 0 W/m -0,4 C 0,0 C 0,0 km/h (0 Bft) 97,87 %
21.01.2018 02:02 0,0 C 3,3 C 97 % 998,9 hPa 0,0 l/m 0,0 km/h (0 Bft) N-NO 13 0 min 0,000 mm 0,0 UV-I 0 W/m -0,4 C 0,0 C 0,0 km/h (0 Bft) 97,87 %
21.01.2018 02:04 0,0 C 3,3 C 97 % 998,9 hPa 0,0 l/m 0,0 km/h (0 Bft) N-NO 13 0 min 0,000 mm 0,0 UV-I 0 W/m -0,4 C 0,0 C 0,0 km/h (0 Bft) 100,00 %
21.01.2018 02:06 -0,1 C 3,3 C 97 % 998,9 hPa 0,0 l/m 0,0 km/h (0 Bft) N-NO 13 0 min 0,000 mm 0,0 UV-I 0 W/m -0,5 C -0,1 C 0,0 km/h (0 Bft) 100,00 %
21.01.2018 02:08 0,0 C 3,3 C 97 % 999,0 hPa 0,0 l/m 0,0 km/h (0 Bft) N-NO 13 0 min 0,000 mm 0,0 UV-I 0 W/m -0,4 C 0,0 C 0,0 km/h (0 Bft) 97,87 %
21.01.2018 02:10 0,0 C 3,3 C 97 % 999,0 hPa 0,0 l/m 0,0 km/h (0 Bft) N-NO 13 0 min 0,000 mm 0,0 UV-I 0 W/m -0,4 C 0,0 C 0,0 km/h (0 Bft) 97,87 %
21.01.2018 02:12 0,0 C 3,3 C 97 % 999,0 hPa 0,0 l/m 0,0 km/h (0 Bft) N-NO 13 0 min 0,000 mm 0,0 UV-I 0 W/m -0,4 C 0,0 C 0,0 km/h (0 Bft) 97,87 %
21.01.2018 02:14 0,0 C 3,3 C 97 % 999,1 hPa 0,0 l/m 0,0 km/h (0 Bft) N-NO 13 0 min 0,000 mm 0,0 UV-I 0 W/m -0,4 C 0,0 C 0,0 km/h (0 Bft) 100,00 %
21.01.2018 02:16 0,0 C 3,3 C 97 % 999,1 hPa 0,0 l/m 0,0 km/h (0 Bft) N-NO 13 0 min 0,000 mm 0,0 UV-I 0 W/m -0,4 C 0,0 C 0,0 km/h (0 Bft) 100,00 %
21.01.2018 02:18 0,0 C 3,3 C 97 % 999,1 hPa 0,0 l/m 0,0 km/h (0 Bft) N-NO 13 0 min 0,000 mm 0,0 UV-I 0 W/m -0,4 C 0,0 C 0,0 km/h (0 Bft) 100,00 %
21.01.2018 02:20 0,0 C 3,3 C 97 % 999,1 hPa 0,0 l/m 0,0 km/h (0 Bft) N-NO 13 0 min 0,000 mm 0,0 UV-I 0 W/m -0,4 C 0,0 C 0,0 km/h (0 Bft) 97,87 %
21.01.2018 02:22 -0,1 C 3,3 C 97 % 999,1 hPa 0,0 l/m 0,0 km/h (0 Bft) N-NO 13 0 min 0,000 mm 0,0 UV-I 0 W/m -0,5 C -0,1 C 0,0 km/h (0 Bft) 100,00 %
21.01.2018 02:24 -0,1 C 3,3 C 97 % 999,2 hPa 0,0 l/m 0,0 km/h (0 Bft) N-NO 13 0 min 0,000 mm 0,0 UV-I 0 W/m -0,5 C -0,1 C 0,0 km/h (0 Bft) 100,00 %
21.01.2018 02:26 -0,1 C 3,3 C 97 % 999,3 hPa 0,0 l/m 0,0 km/h (0 Bft) N-NO 13 0 min 0,000 mm 0,0 UV-I 0 W/m -0,5 C -0,1 C 0,0 km/h (0 Bft) 97,87 %
21.01.2018 02:28 0,0 C 3,3 C 97 % 999,2 hPa 0,0 l/m 0,0 km/h (0 Bft) N-NO 13 0 min 0,000 mm 0,0 UV-I 0 W/m -0,4 C 0,0 C 0,0 km/h (0 Bft) 95,74 %
21.01.2018 02:30 -0,1 C 3,3 C 97 % 999,3 hPa 0,0 l/m 0,0 km/h (0 Bft) N-NO 13 0 min 0,000 mm 0,0 UV-I 0 W/m -0,5 C -0,1 C 0,0 km/h (0 Bft) 100,00 %
21.01.2018 02:32 0,1 C 3,3 C 97 % 999,3 hPa 0,0 l/m 0,0 km/h (0 Bft) N-NO 13 0 min 0,000 mm 0,0 UV-I 0 W/m -0,3 C 0,1 C 0,0 km/h (0 Bft) 100,00 %
21.01.2018 02:34 0,0 C 3,3 C 97 % 999,3 hPa 0,0 l/m 0,0 km/h (0 Bft) N-NO 13 0 min 0,000 mm 0,0 UV-I 0 W/m -0,4 C 0,0 C 0,0 km/h (0 Bft) 97,87 %
21.01.2018 02:36 -0,1 C 3,3 C 97 % 999,3 hPa 0,0 l/m 0,0 km/h (0 Bft) N-NO 13 0 min 0,000 mm 0,0 UV-I 0 W/m -0,5 C -0,1 C 0,0 km/h (0 Bft) 97,87 %
21.01.2018 02:38 -0,1 C 3,3 C 97 % 999,3 hPa 0,0 l/m 0,0 km/h (0 Bft) N-NO 13 0 min 0,000 mm 0,0 UV-I 0 W/m -0,5 C -0,1 C 0,0 km/h (0 Bft) 100,00 %
21.01.2018 02:40 -0,1 C 3,3 C 97 % 999,3 hPa 0,0 l/m 0,0 km/h (0 Bft) N-NO 13 0 min 0,000 mm 0,0 UV-I 0 W/m -0,5 C -0,1 C 0,0 km/h (0 Bft) 97,87 %
21.01.2018 02:42 -0,1 C 3,3 C 97 % 999,3 hPa 0,0 l/m 0,0 km/h (0 Bft) N-NO 13 0 min 0,000 mm 0,0 UV-I 0 W/m -0,5 C -0,1 C 0,0 km/h (0 Bft) 100,00 %
21.01.2018 02:44 -0,1 C 3,3 C 97 % 999,4 hPa 0,0 l/m 0,0 km/h (0 Bft) N-NO 13 0 min 0,000 mm 0,0 UV-I 0 W/m -0,5 C -0,1 C 0,0 km/h (0 Bft) 100,00 %
21.01.2018 02:46 -0,1 C 3,3 C 97 % 999,4 hPa 0,0 l/m 0,0 km/h (0 Bft) N-NO 13 0 min 0,000 mm 0,0 UV-I 0 W/m -0,5 C -0,1 C 0,0 km/h (0 Bft) 95,74 %
21.01.2018 02:48 0,0 C 3,3 C 97 % 999,4 hPa 0,0 l/m 0,0 km/h (0 Bft) N-NO 13 0 min 0,000 mm 0,0 UV-I 0 W/m -0,4 C 0,0 C 0,0 km/h (0 Bft) 100,00 %
21.01.2018 02:50 0,0 C 3,3 C 97 % 999,4 hPa 0,0 l/m 0,0 km/h (0 Bft) N-NO 13 0 min 0,000 mm 0,0 UV-I 0 W/m -0,4 C 0,0 C 0,0 km/h (0 Bft) 100,00 %
21.01.2018 02:52 0,0 C 3,3 C 97 % 999,3 hPa 0,0 l/m 0,0 km/h (0 Bft) N-NO 13 0 min 0,000 mm 0,0 UV-I 0 W/m -0,4 C 0,0 C 0,0 km/h (0 Bft) 97,87 %
21.01.2018 02:54 0,0 C 3,3 C 97 % 999,4 hPa 0,0 l/m 0,0 km/h (0 Bft) N-NO 13 0 min 0,000 mm 0,0 UV-I 0 W/m -0,4 C 0,0 C 0,0 km/h (0 Bft) 100,00 %
21.01.2018 02:56 0,0 C 3,3 C 97 % 999,4 hPa 0,0 l/m 0,0 km/h (0 Bft) N-NO 13 0 min 0,000 mm 0,0 UV-I 0 W/m -0,4 C 0,0 C 0,0 km/h (0 Bft) 100,00 %
21.01.2018 02:58 0,0 C 3,3 C 97 % 999,4 hPa 0,0 l/m 0,0 km/h (0 Bft) N-NO 13 0 min 0,000 mm 0,0 UV-I 0 W/m -0,4 C 0,0 C 0,0 km/h (0 Bft) 100,00 %
21.01.2018 03:00 0,0 C 3,3 C 97 % 999,3 hPa 0,0 l/m 0,0 km/h (0 Bft) N-NO 13 0 min 0,000 mm 0,0 UV-I 0 W/m -0,4 C 0,0 C 0,0 km/h (0 Bft) 100,00 %
21.01.2018 03:02 0,1 C 3,3 C 97 % 999,4 hPa 0,0 l/m 0,0 km/h (0 Bft) N-NO 13 0 min 0,000 mm 0,0 UV-I 0 W/m -0,3 C 0,1 C 0,0 km/h (0 Bft) 100,00 %
21.01.2018 03:04 0,1 C 3,3 C 97 % 999,4 hPa 0,0 l/m 0,0 km/h (0 Bft) N-NO 13 0 min 0,000 mm 0,0 UV-I 0 W/m -0,3 C 0,1 C 0,0 km/h (0 Bft) 100,00 %
21.01.2018 03:06 0,1 C 3,3 C 97 % 999,5 hPa 0,0 l/m 0,0 km/h (0 Bft) N-NO 13 0 min 0,000 mm 0,0 UV-I 0 W/m -0,3 C 0,1 C 0,0 km/h (0 Bft) 97,92 %
21.01.2018 03:08 0,0 C 3,3 C 97 % 999,5 hPa 0,0 l/m 0,0 km/h (0 Bft) N-NO 13 0 min 0,000 mm 0,0 UV-I 0 W/m -0,4 C 0,0 C 0,0 km/h (0 Bft) 97,37 %
21.01.2018 03:10 -0,1 C 3,3 C 97 % 999,5 hPa 0,0 l/m 0,0 km/h (0 Bft) N-NO 13 0 min 0,000 mm 0,0 UV-I 0 W/m -0,5 C -0,1 C 0,0 km/h (0 Bft) 100,00 %
21.01.2018 03:12 0,0 C 3,3 C 97 % 999,6 hPa 0,0 l/m 0,0 km/h (0 Bft) N-NO 13 0 min 0,000 mm 0,0 UV-I 0 W/m -0,4 C 0,0 C 0,0 km/h (0 Bft) 97,87 %
21.01.2018 03:14 -0,1 C 3,3 C 97 % 999,5 hPa 0,0 l/m 0,0 km/h (0 Bft) N-NO 13 0 min 0,000 mm 0,0 UV-I 0 W/m -0,5 C -0,1 C 0,0 km/h (0 Bft) 100,00 %
21.01.2018 03:16 -0,1 C 3,3 C 97 % 999,6 hPa 0,0 l/m 0,0 km/h (0 Bft) N-NO 13 0 min 0,000 mm 0,0 UV-I 0 W/m -0,5 C -0,1 C 0,0 km/h (0 Bft) 100,00 %
21.01.2018 03:18 -0,1 C 3,3 C 97 % 999,6 hPa 0,0 l/m 0,0 km/h (0 Bft) N-NO 13 0 min 0,000 mm 0,0 UV-I 0 W/m -0,5 C -0,1 C 0,0 km/h (0 Bft) 100,00 %
21.01.2018 03:20 -0,1 C 3,3 C 97 % 999,6 hPa 0,0 l/m 0,0 km/h (0 Bft) N-NO 13 0 min 0,000 mm 0,0 UV-I 0 W/m -0,5 C -0,1 C 0,0 km/h (0 Bft) 100,00 %
21.01.2018 03:22 -0,1 C 3,3 C 97 % 999,6 hPa 0,0 l/m 0,0 km/h (0 Bft) N-NO 13 0 min 0,000 mm 0,0 UV-I 0 W/m -0,5 C -0,1 C 0,0 km/h (0 Bft) 100,00 %
21.01.2018 03:24 -0,1 C 3,3 C 97 % 999,6 hPa 0,0 l/m 0,0 km/h (0 Bft) N-NO 13 0 min 0,000 mm 0,0 UV-I 0 W/m -0,5 C -0,1 C 0,0 km/h (0 Bft) 100,00 %
21.01.2018 03:26 -0,1 C 3,3 C 97 % 999,6 hPa 0,0 l/m 0,0 km/h (0 Bft) N-NO 13 0 min 0,000 mm 0,0 UV-I 0 W/m -0,5 C -0,1 C 0,0 km/h (0 Bft) 100,00 %
21.01.2018 03:28 -0,1 C 3,3 C 97 % 999,6 hPa 0,0 l/m 0,0 km/h (0 Bft) N-NO 13 0 min 0,000 mm 0,0 UV-I 0 W/m -0,5 C -0,1 C 0,0 km/h (0 Bft) 100,00 %
21.01.2018 03:30 -0,1 C 3,3 C 97 % 999,7 hPa 0,0 l/m 0,0 km/h (0 Bft) N-NO 13 0 min 0,000 mm 0,0 UV-I 0 W/m -0,5 C -0,1 C 0,0 km/h (0 Bft) 97,87 %
21.01.2018 03:32 -0,1 C 3,3 C 97 % 999,7 hPa 0,0 l/m 0,0 km/h (0 Bft) N-NO 13 0 min 0,000 mm 0,0 UV-I 0 W/m -0,5 C -0,1 C 0,0 km/h (0 Bft) 97,87 %
21.01.2018 03:34 0,0 C 3,3 C 97 % 999,7 hPa 0,0 l/m 0,0 km/h (0 Bft) N-NO 13 0 min 0,000 mm 0,0 UV-I 0 W/m -0,4 C 0,0 C 0,0 km/h (0 Bft) 97,87 %
21.01.2018 03:36 -0,1 C 3,3 C 98 % 999,8 hPa 0,0 l/m 0,0 km/h (0 Bft) N-NO 13 0 min 0,000 mm 0,0 UV-I 0 W/m -0,4 C -0,1 C 0,0 km/h (0 Bft) 97,87 %
21.01.2018 03:38 0,0 C 3,3 C 98 % 999,9 hPa 0,0 l/m 0,0 km/h (0 Bft) N-NO 13 0 min 0,000 mm 0,0 UV-I 0 W/m -0,3 C 0,0 C 0,0 km/h (0 Bft) 97,37 %
21.01.2018 03:40 0,0 C 3,3 C 98 % 999,9 hPa 0,0 l/m 0,0 km/h (0 Bft) N-NO 13 0 min 0,000 mm 0,0 UV-I 0 W/m -0,3 C 0,0 C 0,0 km/h (0 Bft) 97,87 %
21.01.2018 03:42 0,0 C 3,3 C 98 % 999,9 hPa 0,0 l/m 0,0 km/h (0 Bft) N-NO 13 0 min 0,000 mm 0,0 UV-I 0 W/m -0,3 C 0,0 C 0,0 km/h (0 Bft) 97,87 %
21.01.2018 03:44 0,0 C 3,3 C 98 % 999,9 hPa 0,0 l/m 0,0 km/h (0 Bft) N-NO 13 0 min 0,000 mm 0,0 UV-I 0 W/m -0,3 C 0,0 C 0,0 km/h (0 Bft) 96,00 %
21.01.2018 03:46 0,0 C 3,3 C 98 % 1000,0 hPa 0,0 l/m 0,0 km/h (0 Bft) N-NO 13 0 min 0,000 mm 0,0 UV-I 0 W/m -0,3 C 0,0 C 0,0 km/h (0 Bft) 95,74 %
21.01.2018 03:48 0,0 C 3,3 C 98 % 1000,1 hPa 0,0 l/m 0,0 km/h (0 Bft) N-NO 13 0 min 0,000 mm 0,0 UV-I 0 W/m -0,3 C 0,0 C 0,0 km/h (0 Bft) 97,87 %
21.01.2018 03:50 0,0 C 3,3 C 98 % 1000,1 hPa 0,0 l/m 0,0 km/h (0 Bft) N-NO 13 0 min 0,000 mm 0,0 UV-I 0 W/m -0,3 C 0,0 C 0,0 km/h (0 Bft) 97,87 %
21.01.2018 03:52 0,0 C 3,3 C 98 % 1000,2 hPa 0,0 l/m 0,0 km/h (0 Bft) N-NO 13 0 min 0,000 mm 0,0 UV-I 0 W/m -0,3 C 0,0 C 0,0 km/h (0 Bft) 97,87 %
21.01.2018 03:54 0,0 C 3,3 C 98 % 1000,2 hPa 0,0 l/m 0,0 km/h (0 Bft) N-NO 13 0 min 0,000 mm 0,0 UV-I 0 W/m -0,3 C 0,0 C 0,0 km/h (0 Bft) 98,00 %
21.01.2018 03:56 0,0 C 3,3 C 98 % 1000,2 hPa 0,0 l/m 0,0 km/h (0 Bft) N-NO 13 0 min 0,000 mm 0,0 UV-I 0 W/m -0,3 C 0,0 C 0,0 km/h (0 Bft) 97,87 %
21.01.2018 03:58 0,0 C 3,3 C 98 % 1000,3 hPa 0,0 l/m 0,0 km/h (0 Bft) N-NO 13 0 min 0,000 mm 0,0 UV-I 0 W/m -0,3 C 0,0 C 0,0 km/h (0 Bft) 93,62 %
21.01.2018 04:00 0,0 C 3,3 C 98 % 1000,3 hPa 0,0 l/m 0,0 km/h (0 Bft) N-NO 13 0 min 0,000 mm 0,0 UV-I 0 W/m -0,3 C 0,0 C 0,0 km/h (0 Bft) 100,00 %
21.01.2018 04:04 0,1 C 3,3 C 98 % 1000,4 hPa 0,0 l/m 0,0 km/h (0 Bft) N-NO 13 0 min 0,000 mm 0,0 UV-I 0 W/m -0,2 C 0,1 C 0,0 km/h (0 Bft) 97,37 %
21.01.2018 04:06 0,0 C 3,3 C 98 % 1000,5 hPa 0,0 l/m 0,0 km/h (0 Bft) N-NO 13 0 min 0,000 mm 0,0 UV-I 0 W/m -0,3 C 0,0 C 0,0 km/h (0 Bft) 97,14 %
21.01.2018 04:08 0,0 C 3,3 C 98 % 1000,5 hPa 0,0 l/m 0,0 km/h (0 Bft) N-NO 13 0 min 0,000 mm 0,0 UV-I 0 W/m -0,3 C 0,0 C 0,0 km/h (0 Bft) 97,87 %
21.01.2018 04:10 0,0 C 3,3 C 98 % 1000,5 hPa 0,0 l/m 0,0 km/h (0 Bft) N-NO 13 0 min 0,000 mm 0,0 UV-I 0 W/m -0,3 C 0,0 C 0,0 km/h (0 Bft) 100,00 %
21.01.2018 04:12 0,0 C 3,3 C 98 % 1000,5 hPa 0,0 l/m 0,0 km/h (0 Bft) N-NO 13 0 min 0,000 mm 0,0 UV-I 0 W/m -0,3 C 0,0 C 0,0 km/h (0 Bft) 100,00 %
21.01.2018 04:14 0,0 C 3,3 C 98 % 1000,6 hPa 0,0 l/m 0,0 km/h (0 Bft) N-NO 13 0 min 0,000 mm 0,0 UV-I 0 W/m -0,3 C 0,0 C 0,0 km/h (0 Bft) 100,00 %
21.01.2018 04:16 0,1 C 3,3 C 98 % 1000,7 hPa 0,0 l/m 0,0 km/h (0 Bft) N-NO 13 0 min 0,000 mm 0,0 UV-I 0 W/m -0,2 C 0,1 C 0,0 km/h (0 Bft) 100,00 %
21.01.2018 04:18 0,0 C 3,3 C 98 % 1000,7 hPa 0,0 l/m 0,0 km/h (0 Bft) N-NO 13 0 min 0,000 mm 0,0 UV-I 0 W/m -0,3 C 0,0 C 0,0 km/h (0 Bft) 97,87 %
21.01.2018 04:20 0,0 C 3,3 C 98 % 1000,8 hPa 0,0 l/m 0,0 km/h (0 Bft) N-NO 13 0 min 0,000 mm 0,0 UV-I 0 W/m -0,3 C 0,0 C 0,0 km/h (0 Bft) 100,00 %
21.01.2018 04:22 0,0 C 3,3 C 98 % 1000,8 hPa 0,0 l/m 0,0 km/h (0 Bft) N-NO 13 0 min 0,000 mm 0,0 UV-I 0 W/m -0,3 C 0,0 C 0,0 km/h (0 Bft) 95,74 %
21.01.2018 04:24 0,0 C 3,3 C 98 % 1000,8 hPa 0,0 l/m 0,0 km/h (0 Bft) N-NO 13 0 min 0,000 mm 0,0 UV-I 0 W/m -0,3 C 0,0 C 0,0 km/h (0 Bft) 95,83 %
21.01.2018 04:26 0,0 C 3,3 C 98 % 1000,9 hPa 0,0 l/m 0,0 km/h (0 Bft) N-NO 13 0 min 0,000 mm 0,0 UV-I 0 W/m -0,3 C 0,0 C 0,0 km/h (0 Bft) 97,87 %
21.01.2018 04:28 0,0 C 3,3 C 98 % 1000,9 hPa 0,0 l/m 0,0 km/h (0 Bft) N-NO 13 0 min 0,000 mm 0,0 UV-I 0 W/m -0,3 C 0,0 C 0,0 km/h (0 Bft) 98,00 %
21.01.2018 04:30 0,0 C 3,3 C 98 % 1000,9 hPa 0,0 l/m 0,0 km/h (0 Bft) N-NO 13 0 min 0,000 mm 0,0 UV-I 0 W/m -0,3 C 0,0 C 0,0 km/h (0 Bft) 95,74 %
21.01.2018 04:32 0,0 C 3,3 C 98 % 1000,9 hPa 0,0 l/m 0,0 km/h (0 Bft) N-NO 13 0 min 0,000 mm 0,0 UV-I 0 W/m -0,3 C 0,0 C 0,0 km/h (0 Bft) 95,74 %
21.01.2018 04:34 0,0 C 3,3 C 98 % 1001,0 hPa 0,0 l/m 0,0 km/h (0 Bft) N-NO 13 0 min 0,000 mm 0,0 UV-I 0 W/m -0,3 C 0,0 C 0,0 km/h (0 Bft) 97,92 %
21.01.2018 04:36 0,0 C 3,3 C 97 % 1001,0 hPa 0,0 l/m 0,0 km/h (0 Bft) N-NO 13 0 min 0,000 mm 0,0 UV-I 0 W/m -0,4 C 0,0 C 0,0 km/h (0 Bft) 97,87 %
21.01.2018 04:38 0,0 C 3,3 C 97 % 1001,1 hPa 0,0 l/m 0,0 km/h (0 Bft) N-NO 13 0 min 0,000 mm 0,0 UV-I 0 W/m -0,4 C 0,0 C 0,0 km/h (0 Bft) 97,92 %
21.01.2018 04:40 0,0 C 3,3 C 97 % 1001,2 hPa 0,0 l/m 0,0 km/h (0 Bft) N-NO 13 0 min 0,000 mm 0,0 UV-I 0 W/m -0,4 C 0,0 C 0,0 km/h (0 Bft) 97,87 %
21.01.2018 04:42 0,0 C 3,3 C 98 % 1001,2 hPa 0,0 l/m 0,0 km/h (0 Bft) N-NO 13 0 min 0,000 mm 0,0 UV-I 0 W/m -0,3 C 0,0 C 0,0 km/h (0 Bft) 95,74 %
21.01.2018 04:44 0,1 C 3,3 C 98 % 1001,2 hPa 0,0 l/m 0,0 km/h (0 Bft) N-NO 13 0 min 0,000 mm 0,0 UV-I 0 W/m -0,2 C 0,1 C 0,0 km/h (0 Bft) 97,87 %
21.01.2018 04:46 0,1 C 3,3 C 98 % 1001,3 hPa 0,0 l/m 0,0 km/h (0 Bft) N-NO 13 0 min 0,000 mm 0,0 UV-I 0 W/m -0,2 C 0,1 C 0,0 km/h (0 Bft) 92,11 %
21.01.2018 04:48 0,1 C 3,3 C 98 % 1001,3 hPa 0,0 l/m 0,0 km/h (0 Bft) N-NO 12 0 min 0,000 mm 0,0 UV-I 0 W/m -0,2 C 0,1 C 0,0 km/h (0 Bft) 98,00 %
21.01.2018 04:50 0,1 C 3,3 C 98 % 1001,4 hPa 0,0 l/m 0,0 km/h (0 Bft) N-NO 12 0 min 0,000 mm 0,0 UV-I 0 W/m -0,2 C 0,1 C 0,0 km/h (0 Bft) 95,74 %
21.01.2018 04:52 0,1 C 3,3 C 98 % 1001,4 hPa 0,0 l/m 0,0 km/h (0 Bft) N-NO 12 0 min 0,000 mm 0,0 UV-I 0 W/m -0,2 C 0,1 C 0,0 km/h (0 Bft) 98,00 %
21.01.2018 04:54 0,1 C 3,3 C 98 % 1001,4 hPa 0,0 l/m 0,0 km/h (0 Bft) W 278 0 min 0,000 mm 0,0 UV-I 0 W/m -0,2 C 0,1 C 0,0 km/h (0 Bft) 95,74 %
21.01.2018 04:56 0,1 C 3,3 C 98 % 1001,5 hPa 0,0 l/m 0,0 km/h (0 Bft) W 278 0 min 0,000 mm 0,0 UV-I 0 W/m -0,2 C 0,1 C 0,0 km/h (0 Bft) 95,74 %
21.01.2018 04:58 0,1 C 3,3 C 98 % 1001,5 hPa 0,0 l/m 0,0 km/h (0 Bft) W 278 0 min 0,000 mm 0,0 UV-I 0 W/m -0,2 C 0,1 C 0,0 km/h (0 Bft) 97,87 %
21.01.2018 05:00 0,1 C 3,3 C 98 % 1001,5 hPa 0,0 l/m 0,0 km/h (0 Bft) W 278 0 min 0,000 mm 0,0 UV-I 0 W/m -0,2 C 0,1 C 0,0 km/h (0 Bft) 97,87 %
21.01.2018 05:02 0,1 C 3,3 C 98 % 1001,5 hPa 0,0 l/m 0,0 km/h (0 Bft) W 278 0 min 0,000 mm 0,0 UV-I 0 W/m -0,2 C 0,1 C 0,0 km/h (0 Bft) 94,74 %
21.01.2018 05:04 0,1 C 3,3 C 98 % 1001,5 hPa 0,0 l/m 0,0 km/h (0 Bft) W 278 0 min 0,000 mm 0,0 UV-I 0 W/m -0,2 C 0,1 C 0,0 km/h (0 Bft) 95,74 %
21.01.2018 05:06 0,1 C 3,3 C 98 % 1001,7 hPa 0,0 l/m 0,0 km/h (0 Bft) W 278 0 min 0,000 mm 0,0 UV-I 0 W/m -0,2 C 0,1 C 0,0 km/h (0 Bft) 95,74 %
21.01.2018 05:08 0,1 C 3,3 C 98 % 1001,7 hPa 0,0 l/m 0,0 km/h (0 Bft) W 277 0 min 0,000 mm 0,0 UV-I 0 W/m -0,2 C 0,1 C 0,0 km/h (0 Bft) 97,87 %
21.01.2018 05:10 0,1 C 3,3 C 98 % 1001,7 hPa 0,0 l/m 0,0 km/h (0 Bft) W 277 0 min 0,000 mm 0,0 UV-I 0 W/m -0,2 C 0,1 C 0,0 km/h (0 Bft) 97,87 %
21.01.2018 05:12 0,1 C 3,3 C 98 % 1001,7 hPa 0,0 l/m 0,0 km/h (0 Bft) W 277 0 min 0,000 mm 0,0 UV-I 0 W/m -0,2 C 0,1 C 0,0 km/h (0 Bft) 97,92 %
21.01.2018 05:14 0,1 C 3,3 C 98 % 1001,7 hPa 0,0 l/m 0,0 km/h (0 Bft) W 277 0 min 0,000 mm 0,0 UV-I 0 W/m -0,2 C 0,1 C 0,0 km/h (0 Bft) 98,00 %
21.01.2018 05:16 0,1 C 3,3 C 98 % 1001,9 hPa 0,0 l/m 0,0 km/h (0 Bft) W 277 0 min 0,000 mm 0,0 UV-I 0 W/m -0,2 C 0,1 C 0,0 km/h (0 Bft) 97,87 %
21.01.2018 05:18 0,1 C 3,3 C 98 % 1001,9 hPa 0,0 l/m 0,0 km/h (0 Bft) W 273 0 min 0,000 mm 0,0 UV-I 0 W/m -0,2 C 0,1 C 0,0 km/h (0 Bft) 95,74 %
21.01.2018 05:20 0,1 C 3,3 C 98 % 1002,0 hPa 0,0 l/m 0,0 km/h (0 Bft) W 273 0 min 0,000 mm 0,0 UV-I 0 W/m -0,2 C 0,1 C 0,0 km/h (0 Bft) 96,00 %
21.01.2018 05:22 0,1 C 3,3 C 98 % 1002,0 hPa 0,0 l/m 0,0 km/h (0 Bft) W 265 0 min 0,000 mm 0,0 UV-I 0 W/m -0,2 C 0,1 C 0,0 km/h (0 Bft) 98,00 %
21.01.2018 05:24 0,1 C 3,3 C 98 % 1002,1 hPa 0,0 l/m 0,0 km/h (0 Bft) W 267 0 min 0,000 mm 0,0 UV-I 0 W/m -0,2 C 0,1 C 0,0 km/h (0 Bft) 97,87 %
21.01.2018 05:26 0,1 C 3,3 C 98 % 1002,1 hPa 0,0 l/m 0,0 km/h (0 Bft) W 267 0 min 0,000 mm 0,0 UV-I 0 W/m -0,2 C 0,1 C 0,0 km/h (0 Bft) 94,29 %
21.01.2018 05:28 0,1 C 3,3 C 98 % 1002,2 hPa 0,0 l/m 0,0 km/h (0 Bft) W 267 0 min 0,000 mm 0,0 UV-I 0 W/m -0,2 C 0,1 C 0,0 km/h (0 Bft) 96,00 %
21.01.2018 05:30 0,1 C 3,3 C 98 % 1002,2 hPa 0,0 l/m 0,0 km/h (0 Bft) W-SW 246 0 min 0,000 mm 0,0 UV-I 0 W/m -0,2 C 0,1 C 0,0 km/h (0 Bft) 93,62 %
21.01.2018 05:32 0,1 C 3,3 C 98 % 1002,3 hPa 0,0 l/m 0,0 km/h (0 Bft) W-SW 246 0 min 0,000 mm 0,0 UV-I 0 W/m -0,2 C 0,1 C 0,0 km/h (0 Bft) 95,74 %
21.01.2018 05:34 0,1 C 3,3 C 98 % 1002,4 hPa 0,0 l/m 0,0 km/h (0 Bft) W-SW 246 0 min 0,000 mm 0,0 UV-I 0 W/m -0,2 C 0,1 C 0,0 km/h (0 Bft) 100,00 %
21.01.2018 05:36 0,1 C 3,3 C 98 % 1002,3 hPa 0,0 l/m 0,0 km/h (0 Bft) W-SW 252 0 min 0,000 mm 0,0 UV-I 0 W/m -0,2 C 0,1 C 0,0 km/h (0 Bft) 97,87 %
21.01.2018 05:38 0,2 C 3,3 C 98 % 1002,4 hPa 0,0 l/m 0,0 km/h (0 Bft) W 273 0 min 0,000 mm 0,0 UV-I 0 W/m -0,1 C 0,2 C 0,0 km/h (0 Bft) 97,92 %
21.01.2018 05:40 0,2 C 3,3 C 98 % 1002,4 hPa 0,0 l/m 0,0 km/h (0 Bft) W 265 0 min 0,000 mm 0,0 UV-I 0 W/m -0,1 C 0,2 C 0,0 km/h (0 Bft) 97,87 %
21.01.2018 05:42 0,2 C 3,3 C 98 % 1002,4 hPa 0,0 l/m 0,0 km/h (0 Bft) W 265 0 min 0,000 mm 0,0 UV-I 0 W/m -0,1 C 0,2 C 0,0 km/h (0 Bft) 97,87 %
21.01.2018 05:44 0,2 C 3,3 C 98 % 1002,5 hPa 0,0 l/m 0,0 km/h (0 Bft) W-SW 249 0 min 0,000 mm 0,0 UV-I 0 W/m -0,1 C 0,2 C 0,0 km/h (0 Bft) 96,00 %
21.01.2018 05:46 0,2 C 3,3 C 98 % 1002,5 hPa 0,0 l/m 0,0 km/h (0 Bft) SW 235 0 min 0,000 mm 0,0 UV-I 0 W/m -0,1 C 0,2 C 0,0 km/h (0 Bft) 95,74 %
21.01.2018 05:48 0,2 C 3,3 C 98 % 1002,6 hPa 0,0 l/m 0,0 km/h (0 Bft) SW 236 0 min 0,000 mm 0,0 UV-I 0 W/m -0,1 C 0,2 C 0,0 km/h (0 Bft) 97,87 %
21.01.2018 05:50 0,2 C 3,3 C 98 % 1002,7 hPa 0,0 l/m 0,0 km/h (0 Bft) SW 236 0 min 0,000 mm 0,0 UV-I 0 W/m -0,1 C 0,2 C 0,0 km/h (0 Bft) 97,87 %
21.01.2018 05:52 0,3 C 3,3 C 98 % 1002,7 hPa 0,0 l/m 0,0 km/h (0 Bft) SW 234 0 min 0,000 mm 0,0 UV-I 0 W/m 0,0 C 0,3 C 0,0 km/h (0 Bft) 97,22 %
21.01.2018 05:54 0,3 C 3,3 C 98 % 1002,7 hPa 0,0 l/m 0,0 km/h (0 Bft) W-SW 241 0 min 0,000 mm 0,0 UV-I 0 W/m 0,0 C 0,3 C 0,0 km/h (0 Bft) 98,00 %
21.01.2018 05:56 0,3 C 3,3 C 98 % 1002,7 hPa 0,0 l/m 0,0 km/h (0 Bft) W-SW 242 0 min 0,000 mm 0,0 UV-I 0 W/m 0,0 C 0,3 C 0,0 km/h (0 Bft) 100,00 %
21.01.2018 05:58 0,3 C 3,3 C 98 % 1002,8 hPa 0,0 l/m 0,0 km/h (0 Bft) W-SW 242 0 min 0,000 mm 0,0 UV-I 0 W/m 0,0 C 0,3 C 0,0 km/h (0 Bft) 97,87 %
21.01.2018 06:00 0,3 C 3,3 C 98 % 1002,8 hPa 0,0 l/m 0,0 km/h (0 Bft) W-SW 246 0 min 0,000 mm 0,0 UV-I 0 W/m 0,0 C 0,3 C 0,0 km/h (0 Bft) 95,74 %
21.01.2018 06:02 0,3 C 3,3 C 98 % 1002,8 hPa 0,0 l/m 0,0 km/h (0 Bft) W-SW 244 0 min 0,000 mm 0,0 UV-I 0 W/m 0,0 C 0,3 C 0,0 km/h (0 Bft) 93,75 %
21.01.2018 06:04 0,3 C 3,3 C 98 % 1002,9 hPa 0,0 l/m 0,0 km/h (0 Bft) W-SW 248 0 min 0,000 mm 0,0 UV-I 0 W/m 0,0 C 0,3 C 0,0 km/h (0 Bft) 97,87 %
21.01.2018 06:06 0,3 C 3,3 C 98 % 1003,0 hPa 0,0 l/m 0,0 km/h (0 Bft) W-SW 244 0 min 0,000 mm 0,0 UV-I 0 W/m 0,0 C 0,3 C 0,0 km/h (0 Bft) 98,00 %
21.01.2018 06:08 0,3 C 3,3 C 98 % 1003,0 hPa 0,0 l/m 0,0 km/h (0 Bft) W-SW 250 0 min 0,000 mm 0,0 UV-I 0 W/m 0,0 C 0,3 C 0,0 km/h (0 Bft) 97,87 %
21.01.2018 06:10 0,3 C 3,3 C 98 % 1003,1 hPa 0,0 l/m 0,0 km/h (0 Bft) W-SW 256 0 min 0,000 mm 0,0 UV-I 0 W/m 0,0 C 0,3 C 0,0 km/h (0 Bft) 97,87 %
21.01.2018 06:12 0,3 C 3,3 C 98 % 1003,1 hPa 0,0 l/m 0,0 km/h (0 Bft) W-SW 250 0 min 0,000 mm 0,0 UV-I 0 W/m 0,0 C 0,3 C 0,0 km/h (0 Bft) 97,87 %
21.01.2018 06:14 0,3 C 3,3 C 98 % 1003,1 hPa 0,0 l/m 0,0 km/h (0 Bft) W 261 0 min 0,000 mm 0,0 UV-I 0 W/m 0,0 C 0,3 C 0,0 km/h (0 Bft) 100,00 %
21.01.2018 06:16 0,3 C 3,3 C 98 % 1003,1 hPa 0,0 l/m 0,0 km/h (0 Bft) W-SW 243 0 min 0,000 mm 0,0 UV-I 0 W/m 0,0 C 0,3 C 0,0 km/h (0 Bft) 97,87 %
21.01.2018 06:18 0,3 C 3,3 C 98 % 1003,1 hPa 0,0 l/m 0,0 km/h (0 Bft) W-SW 245 0 min 0,000 mm 0,0 UV-I 0 W/m 0,0 C 0,3 C 0,0 km/h (0 Bft) 100,00 %
21.01.2018 06:20 0,3 C 3,3 C 98 % 1003,2 hPa 0,0 l/m 0,0 km/h (0 Bft) W-SW 245 0 min 0,000 mm 0,0 UV-I 0 W/m 0,0 C 0,3 C 0,0 km/h (0 Bft) 95,74 %
21.01.2018 06:22 0,3 C 3,3 C 98 % 1003,3 hPa 0,0 l/m 0,0 km/h (0 Bft) W-SW 248 0 min 0,000 mm 0,0 UV-I 0 W/m 0,0 C 0,3 C 0,0 km/h (0 Bft) 93,62 %
21.01.2018 06:24 0,3 C 3,3 C 98 % 1003,3 hPa 0,0 l/m 0,0 km/h (0 Bft) W-SW 250 0 min 0,000 mm 0,0 UV-I 0 W/m 0,0 C 0,3 C 0,0 km/h (0 Bft) 95,74 %
21.01.2018 06:26 0,3 C 3,3 C 98 % 1003,4 hPa 0,0 l/m 0,0 km/h (0 Bft) W-SW 248 0 min 0,000 mm 0,0 UV-I 0 W/m 0,0 C 0,3 C 0,0 km/h (0 Bft) 100,00 %
21.01.2018 06:28 0,3 C 3,3 C 98 % 1003,5 hPa 0,0 l/m 0,0 km/h (0 Bft) W-SW 248 0 min 0,000 mm 0,0 UV-I 0 W/m 0,0 C 0,3 C 0,0 km/h (0 Bft) 100,00 %
21.01.2018 06:30 0,3 C 3,3 C 98 % 1003,5 hPa 0,0 l/m 0,0 km/h (0 Bft) W-SW 255 0 min 0,000 mm 0,0 UV-I 0 W/m 0,0 C 0,3 C 0,0 km/h (0 Bft) 97,87 %
21.01.2018 06:32 0,3 C 3,3 C 98 % 1003,5 hPa 0,0 l/m 0,0 km/h (0 Bft) W-SW 250 0 min 0,000 mm 0,0 UV-I 0 W/m 0,0 C 0,3 C 0,0 km/h (0 Bft) 94,87 %
21.01.2018 06:34 0,3 C 3,3 C 98 % 1003,6 hPa 0,0 l/m 0,0 km/h (0 Bft) W-SW 248 0 min 0,000 mm 0,0 UV-I 0 W/m 0,0 C 0,3 C 0,0 km/h (0 Bft) 97,92 %
21.01.2018 06:36 0,3 C 3,3 C 98 % 1003,7 hPa 0,0 l/m 0,0 km/h (0 Bft) W-SW 247 0 min 0,000 mm 0,0 UV-I 0 W/m 0,0 C 0,3 C 0,0 km/h (0 Bft) 100,00 %
21.01.2018 06:38 0,3 C 3,3 C 98 % 1003,7 hPa 0,0 l/m 0,0 km/h (0 Bft) W-SW 246 0 min 0,000 mm 0,0 UV-I 0 W/m 0,0 C 0,3 C 0,0 km/h (0 Bft) 100,00 %
21.01.2018 06:40 0,3 C 3,3 C 98 % 1003,7 hPa 0,0 l/m 0,0 km/h (0 Bft) W-SW 244 0 min 0,000 mm 0,0 UV-I 0 W/m 0,0 C 0,3 C 0,0 km/h (0 Bft) 97,87 %
21.01.2018 06:42 0,3 C 3,3 C 98 % 1003,8 hPa 0,0 l/m 0,0 km/h (0 Bft) W-SW 246 0 min 0,000 mm 0,0 UV-I 0 W/m 0,0 C 0,3 C 0,0 km/h (0 Bft) 95,74 %
21.01.2018 06:44 0,3 C 3,3 C 98 % 1003,8 hPa 0,0 l/m 0,0 km/h (0 Bft) W-SW 247 0 min 0,000 mm 0,0 UV-I 0 W/m 0,0 C 0,3 C 0,0 km/h (0 Bft) 97,87 %
21.01.2018 06:46 0,3 C 3,3 C 98 % 1003,8 hPa 0,0 l/m 0,0 km/h (0 Bft) W-SW 258 0 min 0,000 mm 0,0 UV-I 0 W/m 0,0 C 0,3 C 0,0 km/h (0 Bft) 97,87 %
21.01.2018 06:48 0,3 C 3,3 C 98 % 1003,9 hPa 0,0 l/m 0,0 km/h (0 Bft) W-SW 255 0 min 0,000 mm 0,0 UV-I 0 W/m 0,0 C 0,3 C 0,0 km/h (0 Bft) 100,00 %
21.01.2018 06:50 0,3 C 3,3 C 98 % 1003,9 hPa 0,0 l/m 0,0 km/h (0 Bft) W-SW 257 0 min 0,000 mm 0,0 UV-I 0 W/m 0,0 C 0,3 C 1,6 km/h (1 Bft) 100,00 %
21.01.2018 06:52 0,3 C 3,3 C 98 % 1004,0 hPa 0,0 l/m 0,0 km/h (0 Bft) W-SW 257 0 min 0,000 mm 0,0 UV-I 0 W/m 0,0 C 0,3 C 0,0 km/h (0 Bft) 100,00 %
21.01.2018 06:54 0,3 C 3,3 C 98 % 1004,0 hPa 0,0 l/m 0,0 km/h (0 Bft) W 259 0 min 0,000 mm 0,0 UV-I 0 W/m 0,0 C 0,3 C 0,0 km/h (0 Bft) 97,87 %
21.01.2018 06:56 0,3 C 3,3 C 98 % 1004,1 hPa 0,0 l/m 0,0 km/h (0 Bft) W 259 0 min 0,000 mm 0,0 UV-I 0 W/m 0,0 C 0,3 C 0,0 km/h (0 Bft) 100,00 %
21.01.2018 06:58 0,3 C 3,3 C 98 % 1004,2 hPa 0,0 l/m 0,0 km/h (0 Bft) W 259 0 min 0,000 mm 0,0 UV-I 0 W/m 0,0 C 0,3 C 0,0 km/h (0 Bft) 100,00 %
21.01.2018 07:00 0,3 C 3,3 C 98 % 1004,2 hPa 0,0 l/m 0,0 km/h (0 Bft) W 261 0 min 0,000 mm 0,0 UV-I 0 W/m 0,0 C 0,3 C 0,0 km/h (0 Bft) 97,87 %
21.01.2018 07:02 0,3 C 3,3 C 98 % 1004,2 hPa 0,0 l/m 0,0 km/h (0 Bft) W 261 0 min 0,000 mm 0,0 UV-I 0 W/m 0,0 C 0,3 C 0,0 km/h (0 Bft) 100,00 %
21.01.2018 07:04 0,3 C 3,3 C 98 % 1004,3 hPa 0,0 l/m 0,0 km/h (0 Bft) W 262 0 min 0,000 mm 0,0 UV-I 0 W/m 0,0 C 0,3 C 0,0 km/h (0 Bft) 100,00 %
21.01.2018 07:06 0,3 C 3,3 C 98 % 1004,3 hPa 0,0 l/m 0,0 km/h (0 Bft) W 261 0 min 0,000 mm 0,0 UV-I 0 W/m 0,0 C 0,3 C 0,0 km/h (0 Bft) 100,00 %
21.01.2018 07:08 0,3 C 3,3 C 98 % 1004,4 hPa 0,0 l/m 0,0 km/h (0 Bft) W 263 0 min 0,000 mm 0,0 UV-I 0 W/m 0,0 C 0,3 C 0,0 km/h (0 Bft) 100,00 %
21.01.2018 07:10 0,3 C 3,3 C 98 % 1004,4 hPa 0,0 l/m 0,0 km/h (0 Bft) W 265 0 min 0,000 mm 0,0 UV-I 0 W/m 0,0 C 0,3 C 0,0 km/h (0 Bft) 100,00 %
21.01.2018 07:12 0,3 C 3,3 C 98 % 1004,5 hPa 0,0 l/m 0,0 km/h (0 Bft) W 263 0 min 0,000 mm 0,0 UV-I 0 W/m 0,0 C 0,3 C 0,0 km/h (0 Bft) 100,00 %
21.01.2018 07:14 0,3 C 3,3 C 98 % 1004,5 hPa 0,0 l/m 3,3 km/h (1 Bft) W 263 0 min 0,000 mm 0,0 UV-I 0 W/m 0,0 C 0,3 C 9,7 km/h (2 Bft) 100,00 %
21.01.2018 07:16 0,3 C 3,3 C 98 % 1004,5 hPa 0,0 l/m 4,6 km/h (1 Bft) W 263 0 min 0,000 mm 0,0 UV-I 0 W/m 0,0 C 0,3 C 6,4 km/h (2 Bft) 96,00 %
21.01.2018 07:18 0,3 C 3,3 C 98 % 1004,6 hPa 0,0 l/m 4,4 km/h (1 Bft) W 263 0 min 0,000 mm 0,0 UV-I 0 W/m 0,0 C 0,3 C 6,4 km/h (2 Bft) 97,87 %
21.01.2018 07:20 0,3 C 3,3 C 98 % 1004,6 hPa 0,0 l/m 3,8 km/h (1 Bft) W 264 0 min 0,000 mm 0,0 UV-I 0 W/m 0,0 C 0,3 C 4,8 km/h (1 Bft) 100,00 %
21.01.2018 07:22 0,3 C 3,3 C 98 % 1004,7 hPa 0,0 l/m 4,6 km/h (1 Bft) W 265 0 min 0,000 mm 0,0 UV-I 0 W/m 0,0 C 0,3 C 6,4 km/h (2 Bft) 100,00 %
21.01.2018 07:24 0,3 C 3,3 C 98 % 1004,7 hPa 0,0 l/m 3,9 km/h (1 Bft) W 265 0 min 0,000 mm 0,0 UV-I 0 W/m 0,0 C 0,3 C 6,4 km/h (2 Bft) 97,87 %
21.01.2018 07:26 0,3 C 3,3 C 98 % 1004,7 hPa 0,0 l/m 4,2 km/h (1 Bft) W 265 0 min 0,000 mm 0,0 UV-I 0 W/m 0,0 C 0,3 C 6,4 km/h (2 Bft) 100,00 %
21.01.2018 07:28 0,3 C 3,3 C 98 % 1004,8 hPa 0,0 l/m 4,8 km/h (1 Bft) W 265 0 min 0,000 mm 0,0 UV-I 0 W/m 0,0 C 0,3 C 6,4 km/h (2 Bft) 97,87 %
21.01.2018 07:30 0,3 C 3,3 C 98 % 1004,9 hPa 0,0 l/m 4,8 km/h (1 Bft) W 265 0 min 0,000 mm 0,0 UV-I 0 W/m 0,0 C 0,3 C 9,7 km/h (2 Bft) 100,00 %
21.01.2018 07:32 0,3 C 3,3 C 98 % 1005,0 hPa 0,0 l/m 4,3 km/h (1 Bft) W 265 0 min 0,000 mm 0,0 UV-I 0 W/m 0,0 C 0,3 C 6,4 km/h (2 Bft) 98,00 %
21.01.2018 07:34 0,3 C 3,3 C 98 % 1005,0 hPa 0,0 l/m 5,5 km/h (1 Bft) W 264 0 min 0,000 mm 0,0 UV-I 0 W/m 0,0 C 0,3 C 11,3 km/h (2 Bft) 100,00 %
21.01.2018 07:36 0,3 C 3,3 C 98 % 1005,0 hPa 0,0 l/m 4,0 km/h (1 Bft) W 265 0 min 0,000 mm 0,0 UV-I 0 W/m 0,0 C 0,3 C 6,4 km/h (2 Bft) 95,74 %
21.01.2018 07:38 0,3 C 3,3 C 98 % 1005,0 hPa 0,0 l/m 5,1 km/h (1 Bft) W 265 0 min 0,000 mm 0,0 UV-I 0 W/m 0,0 C 0,3 C 6,4 km/h (2 Bft) 97,87 %
21.01.2018 07:40 0,3 C 3,3 C 98 % 1005,1 hPa 0,0 l/m 6,2 km/h (2 Bft) W 265 0 min 0,000 mm 0,0 UV-I 0 W/m 0,0 C 0,3 C 9,7 km/h (2 Bft) 95,74 %
21.01.2018 07:42 0,3 C 3,3 C 98 % 1005,1 hPa 0,0 l/m 4,3 km/h (1 Bft) W 265 0 min 0,000 mm 0,0 UV-I 0 W/m 0,0 C 0,3 C 6,4 km/h (2 Bft) 95,74 %
21.01.2018 07:44 0,3 C 3,3 C 98 % 1005,1 hPa 0,0 l/m 4,5 km/h (1 Bft) W 265 0 min 0,000 mm 0,0 UV-I 0 W/m 0,0 C 0,3 C 6,4 km/h (2 Bft) 95,83 %
21.01.2018 07:46 0,3 C 3,3 C 98 % 1005,1 hPa 0,0 l/m 3,8 km/h (1 Bft) W 265 0 min 0,000 mm 0,0 UV-I 0 W/m 0,0 C 0,3 C 6,4 km/h (2 Bft) 97,87 %
21.01.2018 07:48 0,3 C 3,3 C 98 % 1005,2 hPa 0,0 l/m 4,3 km/h (1 Bft) W 265 0 min 0,000 mm 0,0 UV-I 0 W/m 0,0 C 0,3 C 6,4 km/h (2 Bft) 97,87 %
21.01.2018 07:50 0,3 C 3,3 C 98 % 1005,1 hPa 0,0 l/m 5,4 km/h (1 Bft) W 265 0 min 0,000 mm 0,0 UV-I 0 W/m 0,0 C 0,3 C 6,4 km/h (2 Bft) 97,92 %
21.01.2018 07:52 0,3 C 3,3 C 98 % 1005,1 hPa 0,0 l/m 3,1 km/h (1 Bft) W 265 0 min 0,000 mm 0,0 UV-I 1 W/m 0,0 C 0,3 C 4,8 km/h (1 Bft) 98,00 %
21.01.2018 07:54 0,3 C 3,3 C 98 % 1005,2 hPa 0,0 l/m 4,1 km/h (1 Bft) W 265 0 min 0,000 mm 0,0 UV-I 3 W/m 0,0 C 0,3 C 4,8 km/h (1 Bft) 91,43 %
21.01.2018 07:56 0,3 C 3,3 C 98 % 1005,3 hPa 0,0 l/m 4,9 km/h (1 Bft) W 265 0 min 0,000 mm 0,0 UV-I 2 W/m 0,0 C 0,3 C 9,7 km/h (2 Bft) 95,74 %
21.01.2018 07:58 0,3 C 3,3 C 98 % 1005,2 hPa 0,0 l/m 5,0 km/h (1 Bft) W 265 0 min 0,000 mm 0,0 UV-I 2 W/m 0,0 C 0,3 C 9,7 km/h (2 Bft) 97,87 %
21.01.2018 08:00 0,3 C 3,3 C 98 % 1005,3 hPa 0,0 l/m 4,1 km/h (1 Bft) W 266 0 min 0,000 mm 0,0 UV-I 0 W/m 0,0 C 0,3 C 6,4 km/h (2 Bft) 96,00 %
21.01.2018 08:02 0,4 C 3,3 C 98 % 1005,4 hPa 0,0 l/m 3,7 km/h (1 Bft) W 266 0 min 0,000 mm 0,0 UV-I 0 W/m 0,1 C 0,4 C 6,4 km/h (2 Bft) 95,74 %
21.01.2018 08:04 0,3 C 3,3 C 98 % 1005,4 hPa 0,0 l/m 4,9 km/h (1 Bft) W 266 0 min 0,000 mm 0,0 UV-I 0 W/m 0,0 C 0,3 C 6,4 km/h (2 Bft) 97,87 %
21.01.2018 08:06 0,4 C 3,3 C 98 % 1005,4 hPa 0,0 l/m 0,6 km/h (0 Bft) W 266 0 min 0,000 mm 0,0 UV-I 0 W/m 0,1 C 0,4 C 4,8 km/h (1 Bft) 95,74 %
21.01.2018 08:08 0,3 C 3,3 C 98 % 1005,4 hPa 0,0 l/m 0,0 km/h (0 Bft) W 267 0 min 0,000 mm 0,0 UV-I 3 W/m 0,0 C 0,3 C 0,0 km/h (0 Bft) 97,87 %
21.01.2018 08:10 0,3 C 3,3 C 98 % 1005,4 hPa 0,0 l/m 0,0 km/h (0 Bft) W 268 0 min 0,000 mm 0,0 UV-I 5 W/m 0,0 C 0,3 C 0,0 km/h (0 Bft) 97,87 %
21.01.2018 08:12 0,3 C 3,3 C 98 % 1005,4 hPa 0,0 l/m 0,0 km/h (0 Bft) W 270 0 min 0,000 mm 0,0 UV-I 5 W/m 0,0 C 0,3 C 0,0 km/h (0 Bft) 97,83 %
21.01.2018 08:14 0,3 C 3,3 C 98 % 1005,5 hPa 0,0 l/m 0,0 km/h (0 Bft) W 271 0 min 0,000 mm 0,0 UV-I 5 W/m 0,0 C 0,3 C 0,0 km/h (0 Bft) 98,00 %
21.01.2018 08:16 0,4 C 3,3 C 98 % 1005,4 hPa 0,0 l/m 0,0 km/h (0 Bft) W 274 0 min 0,000 mm 0,0 UV-I 6 W/m 0,1 C 0,4 C 0,0 km/h (0 Bft) 95,74 %
21.01.2018 08:18 0,4 C 3,3 C 98 % 1005,5 hPa 0,0 l/m 0,0 km/h (0 Bft) W 274 0 min 0,000 mm 0,0 UV-I 7 W/m 0,1 C 0,4 C 0,0 km/h (0 Bft) 97,22 %
21.01.2018 08:20 0,4 C 3,3 C 98 % 1005,5 hPa 0,0 l/m 0,0 km/h (0 Bft) W 275 0 min 0,000 mm 0,0 UV-I 7 W/m 0,1 C 0,4 C 0,0 km/h (0 Bft) 98,00 %
21.01.2018 08:22 0,3 C 3,3 C 98 % 1005,5 hPa 0,0 l/m 3,6 km/h (1 Bft) W-SW 244 0 min 0,000 mm 0,0 UV-I 7 W/m 0,0 C 0,3 C 8,0 km/h (2 Bft) 100,00 %
21.01.2018 08:24 0,4 C 3,3 C 98 % 1005,6 hPa 0,0 l/m 4,5 km/h (1 Bft) W-SW 248 0 min 0,000 mm 0,0 UV-I 7 W/m 0,1 C 0,4 C 8,0 km/h (2 Bft) 100,00 %
21.01.2018 08:26 0,4 C 3,3 C 98 % 1005,7 hPa 0,0 l/m 7,5 km/h (2 Bft) W-SW 238 0 min 0,000 mm 0,0 UV-I 7 W/m 0,1 C -0,7 C 11,3 km/h (2 Bft) 97,87 %
21.01.2018 08:28 0,4 C 3,3 C 98 % 1005,7 hPa 0,0 l/m 6,4 km/h (2 Bft) W-SW 238 0 min 0,000 mm 0,0 UV-I 9 W/m 0,1 C 0,4 C 8,0 km/h (2 Bft) 100,00 %
21.01.2018 08:30 0,4 C 3,3 C 98 % 1005,7 hPa 0,0 l/m 6,9 km/h (2 Bft) W-SW 252 0 min 0,000 mm 0,0 UV-I 8 W/m 0,1 C -0,1 C 11,3 km/h (2 Bft) 100,00 %
21.01.2018 08:32 0,4 C 3,3 C 98 % 1005,8 hPa 0,0 l/m 7,0 km/h (2 Bft) SW 232 0 min 0,000 mm 0,0 UV-I 7 W/m 0,1 C -0,2 C 9,7 km/h (2 Bft) 94,00 %
21.01.2018 08:34 0,4 C 3,3 C 98 % 1005,8 hPa 0,0 l/m 8,3 km/h (2 Bft) W-SW 240 0 min 0,000 mm 0,0 UV-I 7 W/m 0,1 C -1,5 C 12,9 km/h (3 Bft) 97,87 %
21.01.2018 08:36 0,4 C 3,3 C 98 % 1005,9 hPa 0,0 l/m 5,8 km/h (2 Bft) W 269 0 min 0,000 mm 0,0 UV-I 7 W/m 0,1 C 0,4 C 8,0 km/h (2 Bft) 95,74 %
21.01.2018 08:38 0,4 C 3,3 C 98 % 1005,9 hPa 0,0 l/m 5,7 km/h (1 Bft) W-SW 247 0 min 0,000 mm 0,0 UV-I 7 W/m 0,1 C 0,4 C 8,0 km/h (2 Bft) 98,00 %
21.01.2018 08:40 0,4 C 3,3 C 98 % 1005,9 hPa 0,0 l/m 7,4 km/h (2 Bft) SW 224 0 min 0,000 mm 0,0 UV-I 6 W/m 0,1 C -0,6 C 11,3 km/h (2 Bft) 97,87 %
21.01.2018 08:42 0,4 C 3,3 C 98 % 1006,0 hPa 0,0 l/m 7,1 km/h (2 Bft) SW 227 0 min 0,000 mm 0,0 UV-I 7 W/m 0,1 C -0,3 C 9,7 km/h (2 Bft) 97,87 %
21.01.2018 08:44 0,5 C 3,3 C 98 % 1006,0 hPa 0,0 l/m 7,4 km/h (2 Bft) W-SW 244 0 min 0,000 mm 0,0 UV-I 7 W/m 0,2 C -0,5 C 9,7 km/h (2 Bft) 95,74 %
21.01.2018 08:46 0,5 C 3,3 C 98 % 1006,0 hPa 0,0 l/m 8,0 km/h (2 Bft) SW 228 0 min 0,000 mm 0,0 UV-I 7 W/m 0,2 C -1,1 C 11,3 km/h (2 Bft) 95,74 %
21.01.2018 08:48 0,5 C 3,3 C 98 % 1006,1 hPa 0,0 l/m 7,2 km/h (2 Bft) W-SW 245 0 min 0,000 mm 0,0 UV-I 9 W/m 0,2 C -0,3 C 9,7 km/h (2 Bft) 93,62 %
21.01.2018 08:50 0,4 C 3,3 C 98 % 1006,1 hPa 0,0 l/m 7,8 km/h (2 Bft) W-SW 244 0 min 0,000 mm 0,0 UV-I 9 W/m 0,1 C -1,0 C 11,3 km/h (2 Bft) 97,87 %
21.01.2018 08:52 0,5 C 3,3 C 98 % 1006,2 hPa 0,0 l/m 7,2 km/h (2 Bft) SW 236 0 min 0,000 mm 0,0 UV-I 9 W/m 0,2 C -0,3 C 11,3 km/h (2 Bft) 97,87 %
21.01.2018 08:54 0,5 C 3,3 C 98 % 1006,2 hPa 0,0 l/m 8,6 km/h (2 Bft) W-SW 253 0 min 0,000 mm 0,0 UV-I 9 W/m 0,2 C -1,7 C 11,3 km/h (2 Bft) 97,37 %
21.01.2018 08:56 0,5 C 3,3 C 98 % 1006,2 hPa 0,0 l/m 7,7 km/h (2 Bft) W-SW 239 0 min 0,000 mm 0,0 UV-I 11 W/m 0,2 C -0,8 C 11,3 km/h (2 Bft) 95,74 %
21.01.2018 08:58 0,5 C 3,3 C 98 % 1006,3 hPa 0,0 l/m 8,4 km/h (2 Bft) SW 224 0 min 0,000 mm 0,0 UV-I 11 W/m 0,2 C -1,5 C 12,9 km/h (3 Bft) 97,92 %
21.01.2018 09:00 0,5 C 3,3 C 98 % 1006,3 hPa 0,0 l/m 10,9 km/h (2 Bft) SW 229 0 min 0,000 mm 0,0 UV-I 11 W/m 0,2 C -3,6 C 14,5 km/h (3 Bft) 95,74 %
21.01.2018 09:02 0,5 C 3,3 C 98 % 1006,3 hPa 0,0 l/m 10,0 km/h (2 Bft) S-SW 213 0 min 0,000 mm 0,0 UV-I 12 W/m 0,2 C -2,9 C 14,5 km/h (3 Bft) 97,96 %
21.01.2018 09:04 0,5 C 3,3 C 98 % 1006,3 hPa 0,0 l/m 8,2 km/h (2 Bft) W-SW 248 0 min 0,000 mm 0,0 UV-I 11 W/m 0,2 C -1,3 C 12,9 km/h (3 Bft) 93,62 %
21.01.2018 09:06 0,6 C 3,3 C 98 % 1006,5 hPa 0,0 l/m 8,8 km/h (2 Bft) W-SW 238 0 min 0,000 mm 0,0 UV-I 11 W/m 0,3 C -1,8 C 12,9 km/h (3 Bft) 97,87 %
21.01.2018 09:08 0,5 C 3,3 C 98 % 1006,5 hPa 0,0 l/m 9,5 km/h (2 Bft) SW 233 0 min 0,000 mm 0,0 UV-I 12 W/m 0,2 C -2,5 C 14,5 km/h (3 Bft) 95,74 %
21.01.2018 09:10 0,5 C 3,3 C 98 % 1006,6 hPa 0,0 l/m 9,5 km/h (2 Bft) W-SW 250 0 min 0,000 mm 0,0 UV-I 13 W/m 0,2 C -2,5 C 12,9 km/h (3 Bft) 95,74 %
21.01.2018 09:12 0,6 C 3,3 C 98 % 1006,6 hPa 0,0 l/m 8,9 km/h (2 Bft) W-SW 238 0 min 0,000 mm 0,0 UV-I 14 W/m 0,3 C -1,8 C 16,1 km/h (3 Bft) 93,62 %
21.01.2018 09:14 0,6 C 3,3 C 98 % 1006,6 hPa 0,0 l/m 9,9 km/h (2 Bft) W-SW 239 0 min 0,000 mm 0,0 UV-I 14 W/m 0,3 C -2,7 C 16,1 km/h (3 Bft) 94,00 %
21.01.2018 09:16 0,6 C 3,3 C 98 % 1006,7 hPa 0,0 l/m 9,1 km/h (2 Bft) SW 231 0 min 0,000 mm 0,0 UV-I 15 W/m 0,3 C -2,0 C 14,5 km/h (3 Bft) 97,87 %
21.01.2018 09:18 0,6 C 3,3 C 98 % 1006,7 hPa 0,0 l/m 10,1 km/h (2 Bft) W-SW 244 0 min 0,000 mm 0,0 UV-I 16 W/m 0,3 C -2,9 C 16,1 km/h (3 Bft) 95,74 %
21.01.2018 09:20 0,6 C 3,3 C 98 % 1006,7 hPa 0,0 l/m 10,8 km/h (2 Bft) W-SW 238 0 min 0,000 mm 0,0 UV-I 16 W/m 0,3 C -3,4 C 17,7 km/h (3 Bft) 97,37 %
21.01.2018 09:22 0,6 C 3,3 C 98 % 1006,7 hPa 0,0 l/m 9,8 km/h (2 Bft) SW 217 0 min 0,000 mm 0,0 UV-I 17 W/m 0,3 C -2,6 C 16,1 km/h (3 Bft) 98,00 %
21.01.2018 09:24 0,6 C 3,3 C 98 % 1006,8 hPa 0,0 l/m 12,0 km/h (2 Bft) SW 229 0 min 0,000 mm 0,0 UV-I 20 W/m 0,3 C -4,3 C 17,7 km/h (3 Bft) 98,00 %
21.01.2018 09:26 0,6 C 3,3 C 98 % 1006,8 hPa 0,0 l/m 9,3 km/h (2 Bft) W-SW 253 0 min 0,000 mm 0,0 UV-I 21 W/m 0,3 C -2,2 C 14,5 km/h (3 Bft) 97,87 %
21.01.2018 09:28 0,6 C 3,3 C 98 % 1006,9 hPa 0,0 l/m 11,8 km/h (2 Bft) SW 219 0 min 0,000 mm 0,0 UV-I 21 W/m 0,3 C -4,2 C 17,7 km/h (3 Bft) 97,87 %
21.01.2018 09:30 0,6 C 3,3 C 98 % 1006,9 hPa 0,0 l/m 12,4 km/h (3 Bft) S-SW 211 0 min 0,000 mm 0,0 UV-I 23 W/m 0,3 C -4,6 C 16,1 km/h (3 Bft) 94,00 %
21.01.2018 09:32 0,6 C 3,3 C 98 % 1006,9 hPa 0,0 l/m 10,4 km/h (2 Bft) SW 236 0 min 0,000 mm 0,0 UV-I 22 W/m 0,3 C -3,1 C 14,5 km/h (3 Bft) 97,37 %
21.01.2018 09:34 0,6 C 3,3 C 98 % 1007,0 hPa 0,0 l/m 10,4 km/h (2 Bft) SW 218 0 min 0,000 mm 0,0 UV-I 23 W/m 0,3 C -3,1 C 14,5 km/h (3 Bft) 97,87 %
21.01.2018 09:36 0,6 C 3,3 C 98 % 1007,0 hPa 0,0 l/m 12,4 km/h (3 Bft) S-SW 206 0 min 0,000 mm 0,0 UV-I 31 W/m 0,3 C -4,6 C 19,3 km/h (3 Bft) 96,00 %
21.01.2018 09:38 0,6 C 3,3 C 98 % 1007,0 hPa 0,0 l/m 9,4 km/h (2 Bft) W-SW 242 0 min 0,000 mm 0,0 UV-I 35 W/m 0,3 C -2,3 C 12,9 km/h (3 Bft) 97,87 %
21.01.2018 09:40 0,6 C 3,3 C 97 % 1007,0 hPa 0,0 l/m 8,5 km/h (2 Bft) W 259 0 min 0,000 mm 0,0 UV-I 33 W/m 0,2 C -1,5 C 14,5 km/h (3 Bft) 97,92 %
21.01.2018 09:42 0,6 C 3,3 C 97 % 1007,1 hPa 0,0 l/m 10,3 km/h (2 Bft) W-SW 238 0 min 0,000 mm 0,0 UV-I 29 W/m 0,2 C -3,0 C 14,5 km/h (3 Bft) 97,87 %
21.01.2018 09:44 0,5 C 3,3 C 97 % 1007,1 hPa 0,0 l/m 8,6 km/h (2 Bft) W-SW 258 0 min 0,000 mm 0,0 UV-I 27 W/m 0,1 C -1,7 C 12,9 km/h (3 Bft) 100,00 %
21.01.2018 09:46 0,5 C 3,3 C 97 % 1007,2 hPa 0,0 l/m 9,4 km/h (2 Bft) W-SW 257 0 min 0,000 mm 0,0 UV-I 27 W/m 0,1 C -2,4 C 14,5 km/h (3 Bft) 97,87 %
21.01.2018 09:48 0,5 C 3,3 C 97 % 1007,3 hPa 0,0 l/m 7,4 km/h (2 Bft) SW 227 0 min 0,000 mm 0,0 UV-I 29 W/m 0,1 C -0,5 C 12,9 km/h (3 Bft) 100,00 %
21.01.2018 09:50 0,6 C 3,3 C 97 % 1007,3 hPa 0,0 l/m 7,5 km/h (2 Bft) W-SW 244 0 min 0,000 mm 0,0 UV-I 31 W/m 0,2 C -0,5 C 12,9 km/h (3 Bft) 95,16 %
21.01.2018 09:52 0,5 C 3,3 C 97 % 1007,3 hPa 0,0 l/m 7,6 km/h (2 Bft) W 259 0 min 0,000 mm 0,0 UV-I 33 W/m 0,1 C -0,7 C 11,3 km/h (2 Bft) 97,37 %
21.01.2018 09:54 0,5 C 3,3 C 97 % 1007,3 hPa 0,0 l/m 7,4 km/h (2 Bft) S-SW 208 0 min 0,000 mm 0,0 UV-I 44 W/m 0,1 C -0,5 C 12,9 km/h (3 Bft) 96,00 %
21.01.2018 09:56 0,5 C 3,3 C 97 % 1007,3 hPa 0,0 l/m 7,2 km/h (2 Bft) SW 227 0 min 0,000 mm 0,0 UV-I 48 W/m 0,1 C -0,3 C 11,3 km/h (2 Bft) 97,87 %
21.01.2018 09:58 0,5 C 3,3 C 97 % 1007,3 hPa 0,0 l/m 7,2 km/h (2 Bft) W 269 0 min 0,000 mm 0,0 UV-I 46 W/m 0,1 C -0,3 C 11,3 km/h (2 Bft) 96,00 %
21.01.2018 10:00 0,6 C 3,3 C 97 % 1007,4 hPa 0,0 l/m 8,6 km/h (2 Bft) SW 235 0 min 0,000 mm 0,0 UV-I 44 W/m 0,2 C -1,6 C 12,9 km/h (3 Bft) 97,87 %
21.01.2018 10:02 0,6 C 3,3 C 97 % 1007,6 hPa 0,0 l/m 8,4 km/h (2 Bft) W 261 0 min 0,000 mm 0,0 UV-I 47 W/m 0,2 C -1,4 C 12,9 km/h (3 Bft) 93,62 %
21.01.2018 10:04 0,6 C 3,3 C 97 % 1007,6 hPa 0,0 l/m 8,2 km/h (2 Bft) W 263 0 min 0,000 mm 0,0 UV-I 50 W/m 0,2 C -1,2 C 12,9 km/h (3 Bft) 98,00 %
21.01.2018 10:06 0,6 C 3,3 C 98 % 1007,6 hPa 0,0 l/m 7,8 km/h (2 Bft) W-SW 242 0 min 0,000 mm 0,0 UV-I 51 W/m 0,3 C -0,8 C 12,9 km/h (3 Bft) 97,87 %
21.01.2018 10:08 0,6 C 3,3 C 98 % 1007,6 hPa 0,0 l/m 9,3 km/h (2 Bft) W-SW 255 0 min 0,000 mm 0,0 UV-I 48 W/m 0,3 C -2,2 C 12,9 km/h (3 Bft) 97,87 %
21.01.2018 10:10 0,6 C 3,3 C 98 % 1007,7 hPa 0,0 l/m 8,1 km/h (2 Bft) SW 235 0 min 0,000 mm 0,0 UV-I 48 W/m 0,3 C -1,1 C 12,9 km/h (3 Bft) 95,74 %
21.01.2018 10:12 0,6 C 3,3 C 98 % 1007,8 hPa 0,0 l/m 8,3 km/h (2 Bft) SW 220 0 min 0,000 mm 0,0 UV-I 59 W/m 0,3 C -1,3 C 12,9 km/h (3 Bft) 95,74 %
21.01.2018 10:14 0,7 C 3,3 C 98 % 1007,8 hPa 0,0 l/m 7,9 km/h (2 Bft) W-SW 244 0 min 0,000 mm 0,0 UV-I 66 W/m 0,4 C -0,8 C 12,9 km/h (3 Bft) 95,74 %
21.01.2018 10:16 0,7 C 3,3 C 98 % 1007,8 hPa 0,0 l/m 7,4 km/h (2 Bft) SW 230 0 min 0,000 mm 0,0 UV-I 51 W/m 0,4 C -0,3 C 12,9 km/h (3 Bft) 94,44 %
21.01.2018 10:18 0,7 C 3,3 C 98 % 1007,9 hPa 0,0 l/m 7,9 km/h (2 Bft) W 261 0 min 0,000 mm 0,0 UV-I 46 W/m 0,4 C -0,8 C 14,5 km/h (3 Bft) 97,87 %
21.01.2018 10:20 0,7 C 3,3 C 98 % 1007,9 hPa 0,0 l/m 9,9 km/h (2 Bft) SW 236 0 min 0,000 mm 0,0 UV-I 41 W/m 0,4 C -2,6 C 14,5 km/h (3 Bft) 97,87 %
21.01.2018 10:22 0,7 C 3,3 C 98 % 1008,0 hPa 0,0 l/m 8,0 km/h (2 Bft) SW 216 0 min 0,000 mm 0,0 UV-I 44 W/m 0,4 C -0,9 C 11,3 km/h (2 Bft) 96,00 %
21.01.2018 10:24 0,7 C 3,3 C 97 % 1008,0 hPa 0,0 l/m 8,5 km/h (2 Bft) W-SW 244 0 min 0,000 mm 0,0 UV-I 52 W/m 0,3 C -1,4 C 12,9 km/h (3 Bft) 100,00 %
21.01.2018 10:26 0,8 C 3,3 C 97 % 1008,1 hPa 0,0 l/m 10,0 km/h (2 Bft) W-SW 244 0 min 0,000 mm 0,0 UV-I 59 W/m 0,4 C -2,6 C 14,5 km/h (3 Bft) 97,87 %
21.01.2018 10:28 0,7 C 3,3 C 97 % 1008,1 hPa 0,0 l/m 11,4 km/h (2 Bft) W 261 0 min 0,000 mm 0,0 UV-I 71 W/m 0,3 C -3,8 C 17,7 km/h (3 Bft) 100,00 %
21.01.2018 10:30 0,8 C 3,3 C 97 % 1008,2 hPa 0,0 l/m 10,6 km/h (2 Bft) W-SW 253 0 min 0,000 mm 0,0 UV-I 88 W/m 0,4 C -3,0 C 14,5 km/h (3 Bft) 97,87 %
21.01.2018 10:32 0,8 C 3,3 C 97 % 1008,3 hPa 0,0 l/m 11,2 km/h (2 Bft) W 269 0 min 0,000 mm 0,0 UV-I 93 W/m 0,4 C -3,5 C 19,3 km/h (3 Bft) 97,87 %
21.01.2018 10:34 0,9 C 3,3 C 98 % 1008,2 hPa 0,0 l/m 12,8 km/h (3 Bft) W 269 0 min 0,000 mm 0,0 UV-I 107 W/m 0,6 C -4,5 C 20,9 km/h (4 Bft) 100,00 %
21.01.2018 10:36 0,9 C 3,3 C 97 % 1008,2 hPa 0,0 l/m 13,3 km/h (3 Bft) W-SW 242 0 min 0,000 mm 0,0 UV-I 117 W/m 0,5 C -4,8 C 22,5 km/h (4 Bft) 97,87 %
21.01.2018 10:38 1,0 C 3,3 C 97 % 1008,2 hPa 0,0 l/m 14,1 km/h (3 Bft) SW 234 0 min 0,000 mm 0,0 UV-I 123 W/m 0,6 C -5,2 C 19,3 km/h (3 Bft) 100,00 %
21.01.2018 10:40 1,1 C 3,3 C 97 % 1008,3 hPa 0,0 l/m 10,6 km/h (2 Bft) W-SW 256 0 min 0,000 mm 0,0 UV-I 121 W/m 0,7 C -2,7 C 22,5 km/h (4 Bft) 100,00 %
21.01.2018 10:42 1,2 C 3,3 C 97 % 1008,3 hPa 0,0 l/m 14,2 km/h (3 Bft) W-SW 250 0 min 0,000 mm 0,0 UV-I 117 W/m 0,8 C -5,1 C 24,1 km/h (4 Bft) 100,00 %
21.01.2018 10:44 1,2 C 3,3 C 97 % 1008,3 hPa 0,0 l/m 14,3 km/h (3 Bft) W 261 0 min 0,000 mm 0,0 UV-I 101 W/m 0,8 C -5,1 C 19,3 km/h (3 Bft) 97,87 %
21.01.2018 10:46 1,2 C 3,3 C 97 % 1008,3 hPa 0,0 l/m 14,4 km/h (3 Bft) W-SW 243 0 min 0,000 mm 0,0 UV-I 84 W/m 0,8 C -5,2 C 20,9 km/h (4 Bft) 100,00 %
21.01.2018 10:48 1,3 C 3,3 C 97 % 1008,4 hPa 0,0 l/m 15,7 km/h (3 Bft) W 275 0 min 0,000 mm 0,0 UV-I 97 W/m 0,9 C -5,8 C 24,1 km/h (4 Bft) 97,87 %
21.01.2018 10:50 1,3 C 3,3 C 97 % 1008,5 hPa 0,0 l/m 15,6 km/h (3 Bft) W 262 0 min 0,000 mm 0,0 UV-I 95 W/m 0,9 C -5,7 C 24,1 km/h (4 Bft) 100,00 %
21.01.2018 10:52 1,3 C 3,3 C 97 % 1008,5 hPa 0,0 l/m 19,2 km/h (3 Bft) W-SW 251 0 min 0,000 mm 0,0 UV-I 95 W/m 0,9 C -7,6 C 29,0 km/h (5 Bft) 97,87 %
21.01.2018 10:54 1,3 C 3,3 C 97 % 1008,5 hPa 0,0 l/m 12,2 km/h (2 Bft) W 261 0 min 0,000 mm 0,0 UV-I 93 W/m 0,9 C -3,6 C 20,9 km/h (4 Bft) 100,00 %
21.01.2018 10:56 1,3 C 3,3 C 96 % 1008,7 hPa 0,0 l/m 19,6 km/h (3 Bft) W-SW 255 0 min 0,000 mm 0,0 UV-I 99 W/m 0,7 C -7,8 C 25,7 km/h (4 Bft) 97,87 %
21.01.2018 10:58 1,4 C 3,3 C 96 % 1008,6 hPa 0,0 l/m 17,5 km/h (3 Bft) W-NW 289 0 min 0,000 mm 0,0 UV-I 81 W/m 0,8 C -6,6 C 25,7 km/h (4 Bft) 100,00 %
21.01.2018 11:00 1,4 C 3,3 C 96 % 1008,7 hPa 0,0 l/m 19,6 km/h (3 Bft) W-SW 242 0 min 0,025 mm 0,0 UV-I 75 W/m 0,8 C -7,6 C 32,2 km/h (5 Bft) 95,74 %
21.01.2018 11:02 1,4 C 3,3 C 96 % 1008,8 hPa 0,0 l/m 15,3 km/h (3 Bft) W-SW 242 0 min 0,000 mm 0,0 UV-I 75 W/m 0,8 C -5,5 C 25,7 km/h (4 Bft) 100,00 %
21.01.2018 11:04 1,4 C 3,3 C 96 % 1008,8 hPa 0,0 l/m 16,8 km/h (3 Bft) W 266 0 min 0,000 mm 0,0 UV-I 79 W/m 0,8 C -6,3 C 25,7 km/h (4 Bft) 100,00 %
21.01.2018 11:06 1,4 C 3,3 C 96 % 1008,8 hPa 0,0 l/m 18,1 km/h (3 Bft) W-SW 239 0 min 0,000 mm 0,0 UV-I 67 W/m 0,8 C -6,9 C 27,4 km/h (4 Bft) 100,00 %
21.01.2018 11:08 1,4 C 3,3 C 95 % 1008,9 hPa 0,0 l/m 15,2 km/h (3 Bft) W-SW 252 0 min 0,000 mm 0,0 UV-I 62 W/m 0,7 C -5,4 C 22,5 km/h (4 Bft) 97,96 %
21.01.2018 11:10 1,3 C 3,3 C 95 % 1008,9 hPa 0,0 l/m 14,4 km/h (3 Bft) W-SW 239 0 min 0,000 mm 0,0 UV-I 60 W/m 0,6 C -5,1 C 22,5 km/h (4 Bft) 100,00 %
21.01.2018 11:12 1,3 C 3,3 C 95 % 1008,9 hPa 0,0 l/m 16,7 km/h (3 Bft) SW 227 0 min 0,000 mm 0,0 UV-I 61 W/m 0,6 C -6,3 C 24,1 km/h (4 Bft) 95,74 %
21.01.2018 11:14 1,3 C 3,3 C 95 % 1009,0 hPa 0,0 l/m 15,9 km/h (3 Bft) W 263 0 min 0,000 mm 0,0 UV-I 67 W/m 0,6 C -5,9 C 24,1 km/h (4 Bft) 100,00 %
21.01.2018 11:16 1,4 C 3,3 C 95 % 1009,0 hPa 0,0 l/m 15,4 km/h (3 Bft) SW 221 0 min 0,000 mm 0,0 UV-I 74 W/m 0,7 C -5,5 C 25,7 km/h (4 Bft) 97,87 %
21.01.2018 11:18 1,4 C 3,3 C 95 % 1009,0 hPa 0,0 l/m 17,3 km/h (3 Bft) W-SW 246 0 min 0,000 mm 0,0 UV-I 68 W/m 0,7 C -6,5 C 25,7 km/h (4 Bft) 100,00 %
21.01.2018 11:20 1,4 C 3,3 C 95 % 1009,1 hPa 0,0 l/m 16,8 km/h (3 Bft) W-SW 242 0 min 0,000 mm 0,0 UV-I 63 W/m 0,7 C -6,3 C 24,1 km/h (4 Bft) 96,00 %
21.01.2018 11:22 1,4 C 3,3 C 95 % 1009,1 hPa 0,0 l/m 15,9 km/h (3 Bft) SW 232 0 min 0,000 mm 0,0 UV-I 70 W/m 0,7 C -5,8 C 20,9 km/h (4 Bft) 100,00 %
21.01.2018 11:24 1,4 C 3,3 C 94 % 1009,2 hPa 0,0 l/m 14,6 km/h (3 Bft) W-SW 254 0 min 0,000 mm 0,0 UV-I 73 W/m 0,5 C -5,1 C 25,7 km/h (4 Bft) 100,00 %
21.01.2018 11:26 1,4 C 3,3 C 94 % 1009,2 hPa 0,0 l/m 12,9 km/h (3 Bft) W 260 0 min 0,000 mm 0,0 UV-I 67 W/m 0,5 C -4,0 C 19,3 km/h (3 Bft) 100,00 %
21.01.2018 11:28 1,3 C 3,3 C 94 % 1009,2 hPa 0,0 l/m 12,8 km/h (3 Bft) W-SW 240 0 min 0,000 mm 0,0 UV-I 63 W/m 0,4 C -4,0 C 17,7 km/h (3 Bft) 97,87 %
21.01.2018 11:30 1,3 C 3,3 C 94 % 1009,3 hPa 0,0 l/m 14,9 km/h (3 Bft) W-SW 251 0 min 0,000 mm 0,0 UV-I 61 W/m 0,4 C -5,3 C 22,5 km/h (4 Bft) 100,00 %
21.01.2018 11:32 1,3 C 3,3 C 95 % 1009,3 hPa 0,0 l/m 16,8 km/h (3 Bft) W-SW 248 0 min 0,000 mm 0,0 UV-I 57 W/m 0,6 C -6,4 C 24,1 km/h (4 Bft) 97,87 %
21.01.2018 11:34 1,3 C 3,3 C 95 % 1009,3 hPa 0,0 l/m 17,9 km/h (3 Bft) W-SW 238 0 min 0,000 mm 0,0 UV-I 67 W/m 0,6 C -7,0 C 27,4 km/h (4 Bft) 100,00 %
21.01.2018 11:36 1,3 C 3,3 C 94 % 1009,4 hPa 0,0 l/m 11,7 km/h (2 Bft) W 268 0 min 0,000 mm 0,0 UV-I 72 W/m 0,4 C -3,3 C 17,7 km/h (3 Bft) 96,92 %
21.01.2018 11:38 1,3 C 3,3 C 94 % 1009,4 hPa 0,0 l/m 13,1 km/h (3 Bft) W-SW 258 0 min 0,000 mm 0,0 UV-I 77 W/m 0,4 C -4,2 C 17,7 km/h (3 Bft) 100,00 %
21.01.2018 11:40 1,3 C 3,3 C 94 % 1009,4 hPa 0,0 l/m 15,1 km/h (3 Bft) W-NW 282 0 min 0,000 mm 0,0 UV-I 79 W/m 0,4 C -5,5 C 19,3 km/h (3 Bft) 100,00 %
21.01.2018 11:42 1,3 C 3,3 C 95 % 1009,4 hPa 0,0 l/m 13,7 km/h (3 Bft) W-SW 253 0 min 0,000 mm 0,0 UV-I 71 W/m 0,6 C -4,6 C 19,3 km/h (3 Bft) 100,00 %
21.01.2018 11:44 1,3 C 3,3 C 95 % 1009,4 hPa 0,0 l/m 15,0 km/h (3 Bft) W-SW 244 0 min 0,000 mm 0,0 UV-I 61 W/m 0,6 C -5,4 C 20,9 km/h (4 Bft) 100,00 %
21.01.2018 11:46 1,3 C 3,3 C 95 % 1009,5 hPa 0,0 l/m 13,2 km/h (3 Bft) SW 217 0 min 0,000 mm 0,0 UV-I 60 W/m 0,6 C -4,3 C 22,5 km/h (4 Bft) 97,87 %
21.01.2018 11:48 1,3 C 3,3 C 95 % 1009,5 hPa 0,0 l/m 19,6 km/h (3 Bft) W 271 0 min 0,000 mm 0,0 UV-I 71 W/m 0,6 C -7,8 C 27,4 km/h (4 Bft) 100,00 %
21.01.2018 11:50 1,3 C 3,3 C 95 % 1009,4 hPa 0,0 l/m 18,8 km/h (3 Bft) W-SW 256 0 min 0,000 mm 0,0 UV-I 86 W/m 0,6 C -7,4 C 29,0 km/h (5 Bft) 100,00 %
21.01.2018 11:52 1,3 C 3,3 C 95 % 1009,5 hPa 0,0 l/m 18,3 km/h (3 Bft) W-SW 251 0 min 0,000 mm 0,0 UV-I 83 W/m 0,6 C -7,2 C 27,4 km/h (4 Bft) 97,87 %
21.01.2018 11:54 1,2 C 3,3 C 95 % 1009,6 hPa 0,0 l/m 18,5 km/h (3 Bft) W-SW 245 0 min 0,000 mm 0,0 UV-I 84 W/m 0,5 C -7,4 C 25,7 km/h (4 Bft) 93,62 %
21.01.2018 11:56 1,2 C 3,3 C 95 % 1009,5 hPa 0,0 l/m 24,3 km/h (4 Bft) W 259 0 min 0,000 mm 0,0 UV-I 86 W/m 0,5 C -9,8 C 37,0 km/h (5 Bft) 94,29 %
21.01.2018 11:58 1,2 C 3,3 C 95 % 1009,7 hPa 0,0 l/m 20,2 km/h (4 Bft) W-NW 288 0 min 0,000 mm 0,0 UV-I 81 W/m 0,5 C -8,2 C 27,4 km/h (4 Bft) 94,00 %
21.01.2018 12:00 1,2 C 3,3 C 95 % 1009,7 hPa 0,0 l/m 18,0 km/h (3 Bft) SW 227 0 min 0,000 mm 0,0 UV-I 85 W/m 0,5 C -7,1 C 25,7 km/h (4 Bft) 98,00 %
21.01.2018 12:02 1,2 C 3,3 C 95 % 1009,7 hPa 0,0 l/m 18,7 km/h (3 Bft) W 259 0 min 0,026 mm 0,0 UV-I 95 W/m 0,5 C -7,5 C 29,0 km/h (5 Bft) 97,87 %
21.01.2018 12:04 1,1 C 3,3 C 95 % 1009,7 hPa 0,0 l/m 19,8 km/h (3 Bft) W-SW 241 0 min 0,000 mm 0,0 UV-I 106 W/m 0,4 C -8,1 C 25,7 km/h (4 Bft) 94,00 %
21.01.2018 12:06 1,1 C 3,3 C 95 % 1009,7 hPa 0,0 l/m 25,9 km/h (4 Bft) W-SW 244 0 min 0,000 mm 0,0 UV-I 107 W/m 0,4 C -10,5 C 37,0 km/h (5 Bft) 95,74 %
21.01.2018 12:08 1,1 C 3,3 C 95 % 1009,8 hPa 0,0 l/m 21,6 km/h (4 Bft) W 259 0 min 0,000 mm 0,0 UV-I 104 W/m 0,4 C -8,9 C 29,0 km/h (5 Bft) 97,87 %
21.01.2018 12:10 1,1 C 3,3 C 95 % 1009,8 hPa 0,0 l/m 19,3 km/h (3 Bft) W-SW 253 0 min 0,000 mm 0,0 UV-I 103 W/m 0,4 C -7,9 C 27,4 km/h (4 Bft) 95,74 %
21.01.2018 12:12 1,1 C 3,3 C 95 % 1009,8 hPa 0,0 l/m 19,0 km/h (3 Bft) W-SW 247 0 min 0,000 mm 0,0 UV-I 100 W/m 0,4 C -7,7 C 30,6 km/h (5 Bft) 97,87 %
21.01.2018 12:14 1,1 C 3,3 C 95 % 1009,9 hPa 0,0 l/m 17,1 km/h (3 Bft) W-NW 282 0 min 0,000 mm 0,0 UV-I 97 W/m 0,4 C -6,8 C 24,1 km/h (4 Bft) 97,62 %
21.01.2018 12:16 1,1 C 3,3 C 95 % 1009,9 hPa 0,0 l/m 20,2 km/h (4 Bft) W-SW 257 0 min 0,000 mm 0,0 UV-I 99 W/m 0,4 C -8,3 C 27,4 km/h (4 Bft) 95,74 %
21.01.2018 12:18 1,1 C 3,3 C 95 % 1009,9 hPa 0,0 l/m 19,8 km/h (3 Bft) SW 235 0 min 0,000 mm 0,0 UV-I 110 W/m 0,4 C -8,1 C 25,7 km/h (4 Bft) 94,00 %
21.01.2018 12:20 1,1 C 3,3 C 95 % 1009,9 hPa 0,0 l/m 19,4 km/h (3 Bft) SW 236 0 min 0,000 mm 0,0 UV-I 110 W/m 0,4 C -7,9 C 30,6 km/h (5 Bft) 95,74 %
21.01.2018 12:22 1,2 C 3,3 C 95 % 1010,0 hPa 0,0 l/m 16,8 km/h (3 Bft) W-SW 255 0 min 0,000 mm 0,0 UV-I 108 W/m 0,5 C -6,5 C 29,0 km/h (5 Bft) 95,74 %
21.01.2018 12:24 1,2 C 3,3 C 95 % 1010,0 hPa 0,0 l/m 18,0 km/h (3 Bft) W-SW 250 0 min 0,000 mm 0,0 UV-I 107 W/m 0,5 C -7,1 C 27,4 km/h (4 Bft) 97,87 %
21.01.2018 12:26 1,2 C 3,3 C 95 % 1010,0 hPa 0,0 l/m 19,3 km/h (3 Bft) W-SW 257 0 min 0,000 mm 0,0 UV-I 100 W/m 0,5 C -7,8 C 29,0 km/h (5 Bft) 94,74 %
21.01.2018 12:28 1,2 C 3,3 C 95 % 1010,1 hPa 0,0 l/m 18,1 km/h (3 Bft) W 263 0 min 0,000 mm 0,0 UV-I 100 W/m 0,5 C -7,2 C 22,5 km/h (4 Bft) 97,87 %
21.01.2018 12:30 1,2 C 3,3 C 95 % 1010,1 hPa 0,0 l/m 19,1 km/h (3 Bft) W 259 0 min 0,000 mm 0,0 UV-I 109 W/m 0,5 C -7,7 C 27,4 km/h (4 Bft) 98,00 %
21.01.2018 12:32 1,2 C 3,3 C 95 % 1010,1 hPa 0,0 l/m 22,6 km/h (4 Bft) W-SW 244 0 min 0,000 mm 0,0 UV-I 109 W/m 0,5 C -9,2 C 32,2 km/h (5 Bft) 100,00 %
21.01.2018 12:34 1,2 C 3,3 C 95 % 1010,1 hPa 0,0 l/m 15,7 km/h (3 Bft) W-SW 258 0 min 0,000 mm 0,0 UV-I 105 W/m 0,5 C -5,9 C 24,1 km/h (4 Bft) 100,00 %
21.01.2018 12:36 1,2 C 3,3 C 95 % 1010,2 hPa 0,0 l/m 20,3 km/h (4 Bft) W-SW 250 0 min 0,000 mm 0,0 UV-I 108 W/m 0,5 C -8,2 C 32,2 km/h (5 Bft) 100,00 %
21.01.2018 12:38 1,2 C 3,3 C 95 % 1010,2 hPa 0,0 l/m 15,3 km/h (3 Bft) W-NW 282 0 min 0,000 mm 0,0 UV-I 110 W/m 0,5 C -5,7 C 29,0 km/h (5 Bft) 97,87 %
21.01.2018 12:40 1,2 C 3,3 C 95 % 1010,1 hPa 0,0 l/m 21,1 km/h (4 Bft) W 275 0 min 0,000 mm 0,0 UV-I 110 W/m 0,5 C -8,6 C 32,2 km/h (5 Bft) 98,00 %
21.01.2018 12:42 1,3 C 3,3 C 94 % 1010,1 hPa 0,0 l/m 16,6 km/h (3 Bft) SW 229 0 min 0,000 mm 0,0 UV-I 113 W/m 0,4 C -6,3 C 25,7 km/h (4 Bft) 100,00 %
21.01.2018 12:44 1,3 C 3,3 C 94 % 1010,2 hPa 0,2 l/m 18,2 km/h (3 Bft) W 259 0 min 0,000 mm 0,0 UV-I 117 W/m 0,4 C -7,1 C 25,7 km/h (4 Bft) 97,87 %
21.01.2018 12:46 1,3 C 3,3 C 94 % 1010,2 hPa 0,0 l/m 21,3 km/h (4 Bft) W 265 0 min 0,000 mm 0,0 UV-I 115 W/m 0,4 C -8,5 C 35,4 km/h (5 Bft) 95,74 %
21.01.2018 12:48 1,3 C 3,3 C 94 % 1010,2 hPa 0,0 l/m 20,8 km/h (4 Bft) W 280 0 min 0,000 mm 0,0 UV-I 122 W/m 0,4 C -8,3 C 30,6 km/h (5 Bft) 97,87 %
21.01.2018 12:50 1,3 C 3,3 C 94 % 1010,3 hPa 0,2 l/m 17,6 km/h (3 Bft) W-SW 250 0 min 0,000 mm 0,0 UV-I 129 W/m 0,4 C -6,8 C 25,7 km/h (4 Bft) 95,74 %
21.01.2018 12:52 1,3 C 3,3 C 94 % 1010,3 hPa 0,0 l/m 18,5 km/h (3 Bft) W 263 0 min 0,000 mm 0,0 UV-I 129 W/m 0,4 C -7,3 C 25,7 km/h (4 Bft) 97,87 %
21.01.2018 12:54 1,3 C 3,3 C 94 % 1010,3 hPa 0,0 l/m 14,6 km/h (3 Bft) W 265 0 min 0,000 mm 0,0 UV-I 129 W/m 0,4 C -5,2 C 25,7 km/h (4 Bft) 97,87 %
21.01.2018 12:56 1,3 C 3,3 C 94 % 1010,4 hPa 0,0 l/m 20,9 km/h (4 Bft) NW 309 0 min 0,000 mm 0,0 UV-I 125 W/m 0,4 C -8,3 C 30,6 km/h (5 Bft) 97,22 %
21.01.2018 12:58 1,3 C 3,3 C 94 % 1010,4 hPa 0,2 l/m 21,2 km/h (4 Bft) SW 234 0 min 0,000 mm 0,0 UV-I 131 W/m 0,4 C -8,5 C 27,4 km/h (4 Bft) 98,11 %
21.01.2018 13:00 1,2 C 3,3 C 94 % 1010,5 hPa 0,0 l/m 21,7 km/h (4 Bft) W-SW 254 0 min 0,051 mm 0,0 UV-I 132 W/m 0,3 C -8,8 C 27,4 km/h (4 Bft) 93,62 %
21.01.2018 13:02 1,2 C 3,3 C 94 % 1010,5 hPa 0,0 l/m 17,7 km/h (3 Bft) W 277 0 min 0,000 mm 0,0 UV-I 124 W/m 0,3 C -7,0 C 29,0 km/h (5 Bft) 95,74 %
21.01.2018 13:04 1,2 C 3,3 C 94 % 1010,5 hPa 0,2 l/m 22,4 km/h (4 Bft) W 273 0 min 0,000 mm 0,0 UV-I 124 W/m 0,3 C -9,1 C 35,4 km/h (5 Bft) 97,87 %
21.01.2018 13:06 1,2 C 3,3 C 94 % 1010,5 hPa 0,0 l/m 19,3 km/h (3 Bft) W 265 0 min 0,000 mm 0,0 UV-I 126 W/m 0,3 C -7,8 C 27,4 km/h (4 Bft) 97,87 %
21.01.2018 13:08 1,2 C 3,3 C 94 % 1010,5 hPa 0,0 l/m 21,7 km/h (4 Bft) SW 236 0 min 0,000 mm 0,0 UV-I 122 W/m 0,3 C -8,8 C 41,8 km/h (6 Bft) 91,49 %
21.01.2018 13:10 1,3 C 3,3 C 94 % 1010,5 hPa 0,0 l/m 22,7 km/h (4 Bft) SW 219 0 min 0,000 mm 0,0 UV-I 117 W/m 0,4 C -9,1 C 33,8 km/h (5 Bft) 97,87 %
21.01.2018 13:12 1,3 C 3,3 C 94 % 1010,7 hPa 0,2 l/m 26,5 km/h (4 Bft) W 268 0 min 0,000 mm 0,0 UV-I 120 W/m 0,4 C -10,5 C 51,5 km/h (7 Bft) 97,87 %
21.01.2018 13:14 1,3 C 3,3 C 94 % 1010,6 hPa 0,0 l/m 18,5 km/h (3 Bft) W 263 0 min 0,000 mm 0,0 UV-I 124 W/m 0,4 C -7,3 C 33,8 km/h (5 Bft) 97,87 %
21.01.2018 13:16 1,3 C 3,3 C 94 % 1010,7 hPa 0,0 l/m 21,8 km/h (4 Bft) W-SW 238 0 min 0,000 mm 0,0 UV-I 127 W/m 0,4 C -8,7 C 37,0 km/h (5 Bft) 97,87 %
21.01.2018 13:18 1,3 C 3,3 C 94 % 1010,7 hPa 0,2 l/m 17,0 km/h (3 Bft) W-SW 250 0 min 0,000 mm 0,0 UV-I 133 W/m 0,4 C -6,5 C 29,0 km/h (5 Bft) 97,87 %
21.01.2018 13:20 1,3 C 3,3 C 94 % 1010,8 hPa 0,0 l/m 21,8 km/h (4 Bft) W-SW 242 0 min 0,000 mm 0,0 UV-I 139 W/m 0,4 C -8,7 C 30,6 km/h (5 Bft) 97,14 %
21.01.2018 13:22 1,3 C 3,3 C 94 % 1010,8 hPa 0,0 l/m 19,6 km/h (3 Bft) W 273 0 min 0,000 mm 0,0 UV-I 140 W/m 0,4 C -7,8 C 29,0 km/h (5 Bft) 98,11 %
21.01.2018 13:24 1,3 C 3,3 C 94 % 1010,8 hPa 0,0 l/m 17,7 km/h (3 Bft) W-SW 252 0 min 0,000 mm 0,0 UV-I 145 W/m 0,4 C -6,9 C 25,7 km/h (4 Bft) 97,92 %
21.01.2018 13:26 1,3 C 3,3 C 94 % 1010,8 hPa 0,0 l/m 21,8 km/h (4 Bft) SW 229 0 min 0,000 mm 0,0 UV-I 143 W/m 0,4 C -8,7 C 32,2 km/h (5 Bft) 98,08 %
21.01.2018 13:28 1,3 C 3,3 C 93 % 1010,8 hPa 0,2 l/m 18,4 km/h (3 Bft) W-SW 248 0 min 0,000 mm 0,0 UV-I 137 W/m 0,3 C -7,2 C 25,7 km/h (4 Bft) 91,49 %
21.01.2018 13:30 1,3 C 3,3 C 93 % 1010,8 hPa 0,0 l/m 17,1 km/h (3 Bft) W 259 0 min 0,000 mm 0,0 UV-I 132 W/m 0,3 C -6,6 C 25,7 km/h (4 Bft) 95,74 %
21.01.2018 13:32 1,3 C 3,3 C 94 % 1010,9 hPa 0,0 l/m 18,5 km/h (3 Bft) W 270 0 min 0,000 mm 0,0 UV-I 133 W/m 0,4 C -7,3 C 29,0 km/h (5 Bft) 100,00 %
21.01.2018 13:34 1,3 C 3,3 C 93 % 1010,9 hPa 0,0 l/m 23,9 km/h (4 Bft) W-SW 248 0 min 0,000 mm 0,0 UV-I 133 W/m 0,3 C -9,6 C 33,8 km/h (5 Bft) 95,74 %
21.01.2018 13:36 1,4 C 3,3 C 93 % 1010,9 hPa 0,2 l/m 20,7 km/h (4 Bft) SW 217 0 min 0,000 mm 0,0 UV-I 137 W/m 0,4 C -8,1 C 35,4 km/h (5 Bft) 97,87 %
21.01.2018 13:38 1,4 C 3,3 C 93 % 1011,0 hPa 0,0 l/m 23,1 km/h (4 Bft) W-SW 242 0 min 0,000 mm 0,0 UV-I 133 W/m 0,4 C -9,1 C 41,8 km/h (6 Bft) 97,87 %
21.01.2018 13:40 1,4 C 3,3 C 93 % 1011,0 hPa 0,0 l/m 23,9 km/h (4 Bft) W-SW 252 0 min 0,000 mm 0,0 UV-I 128 W/m 0,4 C -9,4 C 32,2 km/h (5 Bft) 97,87 %
21.01.2018 13:42 1,4 C 3,3 C 93 % 1011,1 hPa 0,0 l/m 18,2 km/h (3 Bft) W-SW 252 0 min 0,000 mm 0,0 UV-I 132 W/m 0,4 C -7,0 C 27,4 km/h (4 Bft) 98,00 %
21.01.2018 13:44 1,4 C 3,3 C 93 % 1011,1 hPa 0,2 l/m 22,9 km/h (4 Bft) W-SW 256 0 min 0,000 mm 0,0 UV-I 136 W/m 0,4 C -9,0 C 43,5 km/h (6 Bft) 95,74 %
21.01.2018 13:46 1,4 C 3,3 C 93 % 1011,1 hPa 0,0 l/m 20,9 km/h (4 Bft) W-SW 253 0 min 0,000 mm 0,0 UV-I 128 W/m 0,4 C -8,2 C 32,2 km/h (5 Bft) 97,87 %
21.01.2018 13:48 1,3 C 3,3 C 93 % 1011,2 hPa 0,0 l/m 19,8 km/h (3 Bft) W-SW 255 0 min 0,000 mm 0,0 UV-I 126 W/m 0,3 C -7,9 C 32,2 km/h (5 Bft) 96,00 %
21.01.2018 13:50 1,3 C 3,3 C 93 % 1011,2 hPa 0,0 l/m 19,0 km/h (3 Bft) W 268 0 min 0,000 mm 0,0 UV-I 125 W/m 0,3 C -7,5 C 25,7 km/h (4 Bft) 94,29 %
21.01.2018 13:52 1,3 C 3,3 C 93 % 1011,3 hPa 0,2 l/m 22,0 km/h (4 Bft) W 274 0 min 0,000 mm 0,0 UV-I 123 W/m 0,3 C -8,8 C 45,1 km/h (6 Bft) 98,00 %
21.01.2018 13:54 1,2 C 3,3 C 93 % 1011,3 hPa 0,0 l/m 23,9 km/h (4 Bft) SW 230 0 min 0,000 mm 0,0 UV-I 119 W/m 0,2 C -9,7 C 40,2 km/h (6 Bft) 97,87 %
21.01.2018 13:56 1,2 C 3,3 C 93 % 1011,4 hPa 0,0 l/m 20,1 km/h (4 Bft) W-SW 255 0 min 0,000 mm 0,0 UV-I 119 W/m 0,2 C -8,1 C 32,2 km/h (5 Bft) 95,74 %
21.01.2018 13:58 1,2 C 3,3 C 94 % 1011,4 hPa 0,0 l/m 19,4 km/h (3 Bft) W-SW 242 0 min 0,000 mm 0,0 UV-I 110 W/m 0,3 C -7,8 C 30,6 km/h (5 Bft) 95,74 %
21.01.2018 14:00 1,1 C 3,3 C 94 % 1011,5 hPa 0,2 l/m 16,5 km/h (3 Bft) W-SW 255 0 min 0,050 mm 0,0 UV-I 99 W/m 0,2 C -6,5 C 27,4 km/h (4 Bft) 97,87 %
21.01.2018 14:02 1,1 C 3,3 C 94 % 1011,5 hPa 0,0 l/m 18,6 km/h (3 Bft) W 272 0 min 0,000 mm 0,0 UV-I 93 W/m 0,2 C -7,6 C 30,6 km/h (5 Bft) 95,74 %
21.01.2018 14:04 1,1 C 3,3 C 94 % 1011,6 hPa 0,0 l/m 20,6 km/h (4 Bft) SW 234 0 min 0,000 mm 0,0 UV-I 87 W/m 0,2 C -8,5 C 33,8 km/h (5 Bft) 97,92 %
21.01.2018 14:06 1,0 C 3,3 C 94 % 1011,6 hPa 0,2 l/m 20,5 km/h (4 Bft) W-SW 246 0 min 0,000 mm 0,0 UV-I 84 W/m 0,1 C -8,6 C 30,6 km/h (5 Bft) 97,87 %
21.01.2018 14:08 1,0 C 3,3 C 95 % 1011,7 hPa 0,0 l/m 18,4 km/h (3 Bft) W-SW 248 0 min 0,000 mm 0,0 UV-I 83 W/m 0,3 C -7,6 C 27,4 km/h (4 Bft) 95,74 %
21.01.2018 14:10 0,9 C 3,3 C 95 % 1011,7 hPa 0,0 l/m 21,2 km/h (4 Bft) W-SW 252 0 min 0,000 mm 0,0 UV-I 83 W/m 0,2 C -9,0 C 30,6 km/h (5 Bft) 94,00 %
21.01.2018 14:12 0,9 C 3,3 C 95 % 1011,8 hPa 0,0 l/m 18,7 km/h (3 Bft) W-NW 282 0 min 0,000 mm 0,0 UV-I 81 W/m 0,2 C -7,9 C 30,6 km/h (5 Bft) 98,00 %
21.01.2018 14:14 0,9 C 3,3 C 95 % 1011,8 hPa 0,0 l/m 15,9 km/h (3 Bft) W 259 0 min 0,000 mm 0,0 UV-I 79 W/m 0,2 C -6,4 C 27,4 km/h (4 Bft) 93,62 %
21.01.2018 14:16 0,9 C 3,3 C 95 % 1011,9 hPa 0,2 l/m 23,4 km/h (4 Bft) W 274 0 min 0,000 mm 0,0 UV-I 78 W/m 0,2 C -9,9 C 37,0 km/h (5 Bft) 98,00 %
21.01.2018 14:18 0,9 C 3,3 C 95 % 1011,9 hPa 0,0 l/m 17,3 km/h (3 Bft) W 268 0 min 0,000 mm 0,0 UV-I 76 W/m 0,2 C -7,2 C 29,0 km/h (5 Bft) 97,14 %
21.01.2018 14:20 0,9 C 3,3 C 95 % 1012,0 hPa 0,0 l/m 18,8 km/h (3 Bft) W-SW 241 0 min 0,000 mm 0,0 UV-I 78 W/m 0,2 C -7,9 C 27,4 km/h (4 Bft) 96,00 %
21.01.2018 14:22 0,9 C 3,3 C 95 % 1012,0 hPa 0,2 l/m 18,5 km/h (3 Bft) W 259 0 min 0,000 mm 0,0 UV-I 85 W/m 0,2 C -7,8 C 25,7 km/h (4 Bft) 97,87 %
21.01.2018 14:24 0,9 C 3,3 C 95 % 1012,1 hPa 0,0 l/m 17,9 km/h (3 Bft) W-SW 255 0 min 0,000 mm 0,0 UV-I 82 W/m 0,2 C -7,5 C 25,7 km/h (4 Bft) 95,74 %
21.01.2018 14:26 0,9 C 3,3 C 95 % 1012,1 hPa 0,0 l/m 17,7 km/h (3 Bft) W 267 0 min 0,000 mm 0,0 UV-I 79 W/m 0,2 C -7,4 C 25,7 km/h (4 Bft) 97,87 %
21.01.2018 14:28 0,9 C 3,3 C 95 % 1012,2 hPa 0,0 l/m 18,9 km/h (3 Bft) W-SW 256 0 min 0,000 mm 0,0 UV-I 71 W/m 0,2 C -8,0 C 25,7 km/h (4 Bft) 97,87 %
21.01.2018 14:30 0,9 C 3,3 C 95 % 1012,3 hPa 0,0 l/m 17,9 km/h (3 Bft) W 267 0 min 0,000 mm 0,0 UV-I 65 W/m 0,2 C -7,5 C 29,0 km/h (5 Bft) 97,87 %
21.01.2018 14:32 0,9 C 3,3 C 95 % 1012,3 hPa 0,2 l/m 14,0 km/h (3 Bft) W-SW 238 0 min 0,000 mm 0,0 UV-I 70 W/m 0,2 C -5,3 C 25,7 km/h (4 Bft) 95,74 %
21.01.2018 14:34 0,9 C 3,3 C 95 % 1012,4 hPa 0,0 l/m 17,6 km/h (3 Bft) W 276 0 min 0,000 mm 0,0 UV-I 68 W/m 0,2 C -7,3 C 25,7 km/h (4 Bft) 93,62 %
21.01.2018 14:36 0,9 C 3,3 C 95 % 1012,4 hPa 0,0 l/m 14,2 km/h (3 Bft) W-NW 294 0 min 0,000 mm 0,0 UV-I 69 W/m 0,2 C -5,4 C 20,9 km/h (4 Bft) 100,00 %
21.01.2018 14:38 0,9 C 3,3 C 95 % 1012,5 hPa 0,0 l/m 16,7 km/h (3 Bft) W-SW 250 0 min 0,000 mm 0,0 UV-I 64 W/m 0,2 C -6,8 C 25,7 km/h (4 Bft) 100,00 %
21.01.2018 14:40 0,8 C 3,3 C 95 % 1012,6 hPa 0,2 l/m 17,2 km/h (3 Bft) W-SW 239 0 min 0,000 mm 0,0 UV-I 63 W/m 0,1 C -7,2 C 25,7 km/h (4 Bft) 100,00 %
21.01.2018 14:42 0,8 C 3,3 C 95 % 1012,6 hPa 0,0 l/m 17,3 km/h (3 Bft) W-SW 252 0 min 0,000 mm 0,0 UV-I 58 W/m 0,1 C -7,3 C 27,4 km/h (4 Bft) 98,00 %
21.01.2018 14:44 0,8 C 3,3 C 95 % 1012,6 hPa 0,0 l/m 16,9 km/h (3 Bft) W 271 0 min 0,000 mm 0,0 UV-I 56 W/m 0,1 C -7,1 C 29,0 km/h (5 Bft) 97,44 %
21.01.2018 14:46 0,8 C 3,3 C 95 % 1012,7 hPa 0,0 l/m 18,9 km/h (3 Bft) W 277 0 min 0,000 mm 0,0 UV-I 51 W/m 0,1 C -8,1 C 25,7 km/h (4 Bft) 100,00 %
21.01.2018 14:48 0,8 C 3,3 C 96 % 1012,7 hPa 0,0 l/m 15,1 km/h (3 Bft) W 276 0 min 0,000 mm 0,0 UV-I 48 W/m 0,2 C -6,1 C 22,5 km/h (4 Bft) 100,00 %
21.01.2018 14:50 0,8 C 3,3 C 95 % 1012,8 hPa 0,0 l/m 14,9 km/h (3 Bft) W-SW 241 0 min 0,000 mm 0,0 UV-I 45 W/m 0,1 C -6,0 C 24,1 km/h (4 Bft) 100,00 %
21.01.2018 14:52 0,7 C 3,3 C 95 % 1012,9 hPa 0,0 l/m 15,7 km/h (3 Bft) W-SW 252 0 min 0,000 mm 0,0 UV-I 42 W/m -0,0 C -6,5 C 25,7 km/h (4 Bft) 95,74 %
21.01.2018 14:54 0,7 C 3,3 C 96 % 1012,9 hPa 0,2 l/m 16,9 km/h (3 Bft) W-SW 251 0 min 0,000 mm 0,0 UV-I 37 W/m 0,1 C -7,2 C 22,5 km/h (4 Bft) 97,87 %
21.01.2018 14:56 0,7 C 3,3 C 96 % 1013,0 hPa 0,0 l/m 18,4 km/h (3 Bft) W-SW 245 0 min 0,000 mm 0,0 UV-I 32 W/m 0,1 C -8,0 C 25,7 km/h (4 Bft) 100,00 %
21.01.2018 14:58 0,7 C 3,3 C 96 % 1013,0 hPa 0,0 l/m 18,4 km/h (3 Bft) SW 224 0 min 0,000 mm 0,0 UV-I 27 W/m 0,1 C -8,0 C 29,0 km/h (5 Bft) 97,87 %
21.01.2018 15:00 0,7 C 3,3 C 96 % 1013,1 hPa 0,0 l/m 17,1 km/h (3 Bft) W 259 0 min 0,000 mm 0,0 UV-I 23 W/m 0,1 C -7,3 C 24,1 km/h (4 Bft) 100,00 %
21.01.2018 15:02 0,6 C 3,3 C 96 % 1013,2 hPa 0,0 l/m 14,0 km/h (3 Bft) S-SW 212 0 min 0,026 mm 0,0 UV-I 24 W/m 0,0 C -5,6 C 20,9 km/h (4 Bft) 100,00 %
21.01.2018 15:04 0,6 C 3,3 C 96 % 1013,2 hPa 0,0 l/m 16,6 km/h (3 Bft) W 271 0 min 0,000 mm 0,0 UV-I 24 W/m 0,0 C -7,2 C 24,1 km/h (4 Bft) 100,00 %
21.01.2018 15:06 0,6 C 3,3 C 96 % 1013,3 hPa 0,0 l/m 11,3 km/h (2 Bft) W-SW 248 0 min 0,000 mm 0,0 UV-I 25 W/m 0,0 C -3,8 C 14,5 km/h (3 Bft) 100,00 %
21.01.2018 15:08 0,6 C 3,3 C 96 % 1013,3 hPa 0,0 l/m 12,7 km/h (3 Bft) W 272 0 min 0,000 mm 0,0 UV-I 28 W/m 0,0 C -4,8 C 20,9 km/h (4 Bft) 97,87 %
21.01.2018 15:10 0,6 C 3,3 C 96 % 1013,3 hPa 0,2 l/m 14,1 km/h (3 Bft) W 269 0 min 0,000 mm 0,0 UV-I 26 W/m 0,0 C -5,7 C 22,5 km/h (4 Bft) 98,00 %
21.01.2018 15:12 0,6 C 3,3 C 96 % 1013,4 hPa 0,0 l/m 13,6 km/h (3 Bft) W-SW 257 0 min 0,000 mm 0,0 UV-I 25 W/m 0,0 C -5,4 C 20,9 km/h (4 Bft) 100,00 %
21.01.2018 15:14 0,6 C 3,3 C 96 % 1013,4 hPa 0,0 l/m 15,8 km/h (3 Bft) W-SW 254 0 min 0,000 mm 0,0 UV-I 25 W/m 0,0 C -6,7 C 27,4 km/h (4 Bft) 97,14 %
21.01.2018 15:16 0,6 C 3,3 C 96 % 1013,4 hPa 0,0 l/m 19,3 km/h (3 Bft) W-SW 237 0 min 0,000 mm 0,0 UV-I 24 W/m 0,0 C -8,5 C 29,0 km/h (5 Bft) 98,00 %
21.01.2018 15:18 0,6 C 3,3 C 96 % 1013,5 hPa 0,0 l/m 18,1 km/h (3 Bft) SW 230 0 min 0,000 mm 0,0 UV-I 24 W/m 0,0 C -7,9 C 27,4 km/h (4 Bft) 100,00 %
21.01.2018 15:20 0,6 C 3,3 C 96 % 1013,6 hPa 0,0 l/m 15,2 km/h (3 Bft) W 276 0 min 0,000 mm 0,0 UV-I 23 W/m 0,0 C -6,4 C 22,5 km/h (4 Bft) 100,00 %
21.01.2018 15:22 0,6 C 3,3 C 96 % 1013,6 hPa 0,0 l/m 14,3 km/h (3 Bft) W-NW 296 0 min 0,000 mm 0,0 UV-I 20 W/m 0,0 C -5,8 C 24,1 km/h (4 Bft) 97,92 %
21.01.2018 15:24 0,6 C 3,3 C 96 % 1013,6 hPa 0,0 l/m 13,9 km/h (3 Bft) W-SW 244 0 min 0,000 mm 0,0 UV-I 20 W/m 0,0 C -5,6 C 19,3 km/h (3 Bft) 100,00 %
21.01.2018 15:26 0,5 C 3,3 C 96 % 1013,8 hPa 0,0 l/m 9,6 km/h (2 Bft) W 262 0 min 0,000 mm 0,0 UV-I 20 W/m -0,1 C -2,6 C 17,7 km/h (3 Bft) 100,00 %
21.01.2018 15:28 0,5 C 3,3 C 96 % 1013,9 hPa 0,0 l/m 15,8 km/h (3 Bft) W 277 0 min 0,000 mm 0,0 UV-I 22 W/m -0,1 C -6,8 C 24,1 km/h (4 Bft) 100,00 %
21.01.2018 15:30 0,5 C 3,3 C 96 % 1013,9 hPa 0,0 l/m 13,2 km/h (3 Bft) W 281 0 min 0,000 mm 0,0 UV-I 23 W/m -0,1 C -5,2 C 22,5 km/h (4 Bft) 100,00 %
21.01.2018 15:32 0,5 C 3,3 C 96 % 1014,0 hPa 0,0 l/m 13,9 km/h (3 Bft) W 281 0 min 0,000 mm 0,0 UV-I 23 W/m -0,1 C -5,7 C 19,3 km/h (3 Bft) 97,87 %
21.01.2018 15:34 0,5 C 3,3 C 97 % 1014,0 hPa 0,0 l/m 15,5 km/h (3 Bft) W-NW 286 0 min 0,000 mm 0,0 UV-I 22 W/m 0,1 C -6,7 C 22,5 km/h (4 Bft) 97,87 %
21.01.2018 15:36 0,5 C 3,3 C 97 % 1014,0 hPa 0,0 l/m 11,5 km/h (2 Bft) W-SW 239 0 min 0,000 mm 0,0 UV-I 21 W/m 0,1 C -4,1 C 19,3 km/h (3 Bft) 100,00 %
21.01.2018 15:38 0,5 C 3,3 C 96 % 1014,1 hPa 0,2 l/m 11,7 km/h (2 Bft) W-SW 256 0 min 0,000 mm 0,0 UV-I 18 W/m -0,1 C -4,2 C 17,7 km/h (3 Bft) 97,87 %
21.01.2018 15:40 0,5 C 3,3 C 96 % 1014,1 hPa 0,0 l/m 10,0 km/h (2 Bft) W-SW 246 0 min 0,000 mm 0,0 UV-I 18 W/m -0,1 C -2,9 C 17,7 km/h (3 Bft) 97,87 %
21.01.2018 15:42 0,5 C 3,3 C 96 % 1014,1 hPa 0,0 l/m 12,6 km/h (3 Bft) W-NW 288 0 min 0,000 mm 0,0 UV-I 18 W/m -0,1 C -4,8 C 19,3 km/h (3 Bft) 100,00 %
21.01.2018 15:44 0,4 C 3,3 C 96 % 1014,2 hPa 0,0 l/m 10,8 km/h (2 Bft) W-SW 257 0 min 0,000 mm 0,0 UV-I 18 W/m -0,2 C -3,6 C 17,7 km/h (3 Bft) 100,00 %
21.01.2018 15:46 0,4 C 3,3 C 97 % 1014,3 hPa 0,0 l/m 11,4 km/h (2 Bft) W 266 0 min 0,000 mm 0,0 UV-I 18 W/m -0,0 C -4,1 C 17,7 km/h (3 Bft) 97,87 %
21.01.2018 15:48 0,4 C 3,3 C 97 % 1014,4 hPa 0,0 l/m 11,5 km/h (2 Bft) W 262 0 min 0,000 mm 0,0 UV-I 16 W/m -0,0 C -4,2 C 16,1 km/h (3 Bft) 97,87 %
21.01.2018 15:50 0,4 C 3,3 C 97 % 1014,4 hPa 0,0 l/m 10,9 km/h (2 Bft) W 259 0 min 0,000 mm 0,0 UV-I 16 W/m -0,0 C -3,7 C 16,1 km/h (3 Bft) 97,37 %
21.01.2018 15:52 0,4 C 3,3 C 97 % 1014,5 hPa 0,0 l/m 13,1 km/h (3 Bft) SW 236 0 min 0,000 mm 0,0 UV-I 14 W/m -0,0 C -5,3 C 17,7 km/h (3 Bft) 100,00 %
21.01.2018 15:54 0,4 C 3,3 C 97 % 1014,6 hPa 0,0 l/m 10,4 km/h (2 Bft) W 269 0 min 0,000 mm 0,0 UV-I 14 W/m -0,0 C -3,3 C 17,7 km/h (3 Bft) 100,00 %
21.01.2018 15:56 0,4 C 3,3 C 97 % 1014,5 hPa 0,0 l/m 10,8 km/h (2 Bft) W-NW 283 0 min 0,000 mm 0,0 UV-I 13 W/m -0,0 C -3,6 C 17,7 km/h (3 Bft) 100,00 %
21.01.2018 15:58 0,4 C 3,3 C 97 % 1014,6 hPa 0,0 l/m 9,1 km/h (2 Bft) W-SW 255 0 min 0,000 mm 0,0 UV-I 14 W/m -0,0 C -2,2 C 19,3 km/h (3 Bft) 100,00 %
21.01.2018 16:00 0,4 C 3,3 C 97 % 1014,7 hPa 0,0 l/m 9,5 km/h (2 Bft) W-NW 292 0 min 0,000 mm 0,0 UV-I 14 W/m -0,0 C -2,6 C 14,5 km/h (3 Bft) 98,00 %
21.01.2018 16:02 0,4 C 3,3 C 97 % 1014,7 hPa 0,0 l/m 11,5 km/h (2 Bft) W 271 0 min 0,000 mm 0,0 UV-I 18 W/m -0,0 C -4,2 C 17,7 km/h (3 Bft) 100,00 %
21.01.2018 16:04 0,5 C 3,3 C 97 % 1014,8 hPa 0,0 l/m 10,6 km/h (2 Bft) W 270 0 min 0,000 mm 0,0 UV-I 19 W/m 0,1 C -3,4 C 16,1 km/h (3 Bft) 100,00 %
21.01.2018 16:06 0,5 C 3,3 C 97 % 1014,9 hPa 0,2 l/m 13,3 km/h (3 Bft) W-SW 246 0 min 0,000 mm 0,0 UV-I 19 W/m 0,1 C -5,3 C 17,7 km/h (3 Bft) 95,74 %
21.01.2018 16:08 0,5 C 3,3 C 97 % 1014,9 hPa 0,0 l/m 13,1 km/h (3 Bft) W 271 0 min 0,000 mm 0,0 UV-I 17 W/m 0,1 C -5,2 C 20,9 km/h (4 Bft) 97,37 %
21.01.2018 16:10 0,5 C 3,3 C 97 % 1014,9 hPa 0,0 l/m 12,4 km/h (3 Bft) W 270 0 min 0,000 mm 0,0 UV-I 18 W/m 0,1 C -4,7 C 20,9 km/h (4 Bft) 93,62 %
21.01.2018 16:12 0,6 C 3,3 C 97 % 1015,0 hPa 0,0 l/m 10,9 km/h (2 Bft) W-SW 255 0 min 0,000 mm 0,0 UV-I 16 W/m 0,2 C -3,5 C 17,7 km/h (3 Bft) 95,74 %
21.01.2018 16:14 0,6 C 3,3 C 97 % 1015,1 hPa 0,0 l/m 11,3 km/h (2 Bft) W 265 0 min 0,000 mm 0,0 UV-I 15 W/m 0,2 C -3,8 C 22,5 km/h (4 Bft) 96,00 %
21.01.2018 16:16 0,6 C 3,3 C 97 % 1015,1 hPa 0,0 l/m 8,0 km/h (2 Bft) W 281 0 min 0,000 mm 0,0 UV-I 12 W/m 0,2 C -1,0 C 17,7 km/h (3 Bft) 97,87 %
21.01.2018 16:18 0,6 C 3,3 C 97 % 1015,2 hPa 0,0 l/m 11,7 km/h (2 Bft) W-SW 247 0 min 0,000 mm 0,0 UV-I 12 W/m 0,2 C -4,1 C 17,7 km/h (3 Bft) 98,00 %
21.01.2018 16:20 0,6 C 3,3 C 97 % 1015,2 hPa 0,0 l/m 14,1 km/h (3 Bft) SW 225 0 min 0,000 mm 0,0 UV-I 11 W/m 0,2 C -5,7 C 25,7 km/h (4 Bft) 97,87 %
21.01.2018 16:22 0,6 C 3,3 C 97 % 1015,3 hPa 0,0 l/m 14,8 km/h (3 Bft) W 275 0 min 0,000 mm 0,0 UV-I 11 W/m 0,2 C -6,1 C 22,5 km/h (4 Bft) 97,87 %
21.01.2018 16:24 0,6 C 3,3 C 97 % 1015,3 hPa 0,0 l/m 11,2 km/h (2 Bft) W-SW 246 0 min 0,000 mm 0,0 UV-I 11 W/m 0,2 C -3,7 C 17,7 km/h (3 Bft) 93,62 %
21.01.2018 16:26 0,6 C 3,3 C 97 % 1015,4 hPa 0,0 l/m 14,8 km/h (3 Bft) W 277 0 min 0,000 mm 0,0 UV-I 10 W/m 0,2 C -6,1 C 27,4 km/h (4 Bft) 96,00 %
21.01.2018 16:28 0,6 C 3,3 C 97 % 1015,5 hPa 0,2 l/m 11,5 km/h (2 Bft) W 277 0 min 0,000 mm 0,0 UV-I 9 W/m 0,2 C -3,9 C 19,3 km/h (3 Bft) 97,14 %
21.01.2018 16:30 0,6 C 3,3 C 97 % 1015,5 hPa 0,0 l/m 8,8 km/h (2 Bft) W-NW 296 0 min 0,000 mm 0,0 UV-I 9 W/m 0,2 C -1,8 C 16,1 km/h (3 Bft) 95,92 %
21.01.2018 16:32 0,6 C 3,3 C 97 % 1015,5 hPa 0,0 l/m 12,7 km/h (3 Bft) W 268 0 min 0,000 mm 0,0 UV-I 7 W/m 0,2 C -4,8 C 19,3 km/h (3 Bft) 97,87 %
21.01.2018 16:34 0,6 C 3,3 C 97 % 1015,6 hPa 0,0 l/m 10,3 km/h (2 Bft) W-NW 288 0 min 0,000 mm 0,0 UV-I 7 W/m 0,2 C -3,0 C 16,1 km/h (3 Bft) 97,87 %
21.01.2018 16:36 0,5 C 3,3 C 97 % 1015,6 hPa 0,0 l/m 9,9 km/h (2 Bft) W 276 0 min 0,000 mm 0,0 UV-I 7 W/m 0,1 C -2,8 C 17,7 km/h (3 Bft) 97,87 %
21.01.2018 16:38 0,5 C 3,3 C 97 % 1015,7 hPa 0,0 l/m 8,0 km/h (2 Bft) W 273 0 min 0,000 mm 0,0 UV-I 5 W/m 0,1 C -1,1 C 12,9 km/h (3 Bft) 97,87 %
21.01.2018 16:40 0,5 C 3,3 C 97 % 1015,8 hPa 0,0 l/m 11,8 km/h (2 Bft) W 270 0 min 0,000 mm 0,0 UV-I 5 W/m 0,1 C -4,3 C 20,9 km/h (4 Bft) 97,92 %
21.01.2018 16:42 0,5 C 3,3 C 97 % 1015,8 hPa 0,0 l/m 13,3 km/h (3 Bft) W 273 0 min 0,000 mm 0,0 UV-I 5 W/m 0,1 C -5,3 C 24,1 km/h (4 Bft) 100,00 %
21.01.2018 16:44 0,5 C 3,3 C 97 % 1015,8 hPa 0,0 l/m 12,9 km/h (3 Bft) W-SW 245 0 min 0,000 mm 0,0 UV-I 5 W/m 0,1 C -5,0 C 24,1 km/h (4 Bft) 100,00 %
21.01.2018 16:46 0,5 C 3,3 C 97 % 1015,8 hPa 0,0 l/m 14,0 km/h (3 Bft) W 267 0 min 0,000 mm 0,0 UV-I 5 W/m 0,1 C -5,8 C 24,1 km/h (4 Bft) 97,87 %
21.01.2018 16:48 0,5 C 3,3 C 97 % 1016,0 hPa 0,0 l/m 12,4 km/h (3 Bft) W 262 0 min 0,000 mm 0,0 UV-I 5 W/m 0,1 C -4,7 C 20,9 km/h (4 Bft) 97,87 %
21.01.2018 16:50 0,5 C 3,3 C 97 % 1016,0 hPa 0,2 l/m 14,9 km/h (3 Bft) W-NW 292 0 min 0,000 mm 0,0 UV-I 5 W/m 0,1 C -6,3 C 22,5 km/h (4 Bft) 100,00 %
21.01.2018 16:52 0,5 C 3,3 C 97 % 1016,0 hPa 0,0 l/m 11,4 km/h (2 Bft) W-SW 240 0 min 0,000 mm 0,0 UV-I 1 W/m 0,1 C -4,0 C 17,7 km/h (3 Bft) 100,00 %
21.01.2018 16:54 0,5 C 3,3 C 97 % 1016,0 hPa 0,0 l/m 13,9 km/h (3 Bft) W-NW 284 0 min 0,000 mm 0,0 UV-I 0 W/m 0,1 C -5,7 C 22,5 km/h (4 Bft) 100,00 %
21.01.2018 16:56 0,6 C 3,3 C 97 % 1016,1 hPa 0,0 l/m 14,3 km/h (3 Bft) W 268 0 min 0,000 mm 0,0 UV-I 0 W/m 0,2 C -5,8 C 20,9 km/h (4 Bft) 100,00 %
21.01.2018 16:58 0,5 C 3,3 C 97 % 1016,2 hPa 0,0 l/m 12,5 km/h (3 Bft) W-NW 284 0 min 0,000 mm 0,0 UV-I 0 W/m 0,1 C -4,8 C 17,7 km/h (3 Bft) 97,87 %
21.01.2018 17:00 0,5 C 3,3 C 97 % 1016,2 hPa 0,0 l/m 10,6 km/h (2 Bft) W-NW 292 0 min 0,000 mm 0,0 UV-I 0 W/m 0,1 C -3,4 C 14,5 km/h (3 Bft) 94,74 %
21.01.2018 17:02 0,5 C 3,3 C 97 % 1016,3 hPa 0,0 l/m 10,0 km/h (2 Bft) NW 315 0 min 0,000 mm 0,0 UV-I 0 W/m 0,1 C -2,9 C 19,3 km/h (3 Bft) 95,92 %
21.01.2018 17:04 0,5 C 3,3 C 97 % 1016,3 hPa 0,0 l/m 13,0 km/h (3 Bft) W 265 0 min 0,000 mm 0,0 UV-I 0 W/m 0,1 C -5,1 C 20,9 km/h (4 Bft) 95,74 %
21.01.2018 17:06 0,5 C 3,3 C 97 % 1016,4 hPa 0,0 l/m 14,2 km/h (3 Bft) W 269 0 min 0,000 mm 0,0 UV-I 0 W/m 0,1 C -5,9 C 24,1 km/h (4 Bft) 94,00 %
21.01.2018 17:08 0,5 C 3,3 C 97 % 1016,4 hPa 0,0 l/m 9,4 km/h (2 Bft) W 272 0 min 0,000 mm 0,0 UV-I 0 W/m 0,1 C -2,4 C 19,3 km/h (3 Bft) 97,87 %
21.01.2018 17:10 0,5 C 3,3 C 97 % 1016,5 hPa 0,0 l/m 12,4 km/h (3 Bft) W 259 0 min 0,000 mm 0,0 UV-I 0 W/m 0,1 C -4,7 C 17,7 km/h (3 Bft) 95,74 %
21.01.2018 17:12 0,5 C 3,3 C 97 % 1016,6 hPa 0,0 l/m 11,6 km/h (2 Bft) W-NW 284 0 min 0,000 mm 0,0 UV-I 0 W/m 0,1 C -4,1 C 19,3 km/h (3 Bft) 97,87 %
21.01.2018 17:14 0,4 C 3,3 C 97 % 1016,6 hPa 0,0 l/m 11,1 km/h (2 Bft) W-NW 286 0 min 0,000 mm 0,0 UV-I 0 W/m -0,0 C -3,9 C 22,5 km/h (4 Bft) 96,00 %
21.01.2018 17:16 0,4 C 3,3 C 97 % 1016,7 hPa 0,0 l/m 12,6 km/h (3 Bft) W 263 0 min 0,000 mm 0,0 UV-I 0 W/m -0,0 C -5,0 C 19,3 km/h (3 Bft) 97,87 %
21.01.2018 17:18 0,5 C 3,3 C 97 % 1016,7 hPa 0,0 l/m 11,9 km/h (2 Bft) W 277 0 min 0,000 mm 0,0 UV-I 0 W/m 0,1 C -4,4 C 20,9 km/h (4 Bft) 93,62 %
21.01.2018 17:20 0,4 C 3,3 C 97 % 1016,8 hPa 0,0 l/m 10,9 km/h (2 Bft) W 269 0 min 0,000 mm 0,0 UV-I 0 W/m -0,0 C -3,7 C 19,3 km/h (3 Bft) 97,44 %
21.01.2018 17:22 0,5 C 3,3 C 97 % 1016,8 hPa 0,0 l/m 10,8 km/h (2 Bft) W 268 0 min 0,000 mm 0,0 UV-I 0 W/m 0,1 C -3,5 C 17,7 km/h (3 Bft) 95,74 %
21.01.2018 17:24 0,5 C 3,3 C 97 % 1016,8 hPa 0,0 l/m 13,2 km/h (3 Bft) W-SW 258 0 min 0,000 mm 0,0 UV-I 0 W/m 0,1 C -5,2 C 22,5 km/h (4 Bft) 95,74 %
21.01.2018 17:26 0,5 C 3,3 C 97 % 1016,9 hPa 0,0 l/m 12,0 km/h (2 Bft) W-SW 248 0 min 0,000 mm 0,0 UV-I 0 W/m 0,1 C -4,4 C 19,3 km/h (3 Bft) 95,74 %
21.01.2018 17:28 0,5 C 3,3 C 97 % 1016,9 hPa 0,0 l/m 10,8 km/h (2 Bft) W 259 0 min 0,000 mm 0,0 UV-I 0 W/m 0,1 C -3,5 C 16,1 km/h (3 Bft) 97,87 %
21.01.2018 17:30 0,5 C 3,3 C 97 % 1016,9 hPa 0,0 l/m 12,0 km/h (2 Bft) W-SW 258 0 min 0,000 mm 0,0 UV-I 0 W/m 0,1 C -4,4 C 22,5 km/h (4 Bft) 93,62 %
21.01.2018 17:32 0,5 C 3,3 C 97 % 1016,9 hPa 0,0 l/m 11,6 km/h (2 Bft) W-SW 247 0 min 0,000 mm 0,0 UV-I 0 W/m 0,1 C -4,1 C 16,1 km/h (3 Bft) 97,87 %
21.01.2018 17:34 0,6 C 3,3 C 97 % 1017,0 hPa 0,2 l/m 13,3 km/h (3 Bft) W-NW 298 0 min 0,000 mm 0,0 UV-I 0 W/m 0,2 C -5,2 C 25,7 km/h (4 Bft) 97,87 %
21.01.2018 17:36 0,6 C 3,3 C 97 % 1017,0 hPa 0,0 l/m 9,4 km/h (2 Bft) W-SW 240 0 min 0,000 mm 0,0 UV-I 0 W/m 0,2 C -2,3 C 16,1 km/h (3 Bft) 97,87 %
21.01.2018 17:38 0,6 C 3,3 C 97 % 1017,1 hPa 0,0 l/m 10,5 km/h (2 Bft) W 271 0 min 0,000 mm 0,0 UV-I 0 W/m 0,2 C -3,2 C 17,7 km/h (3 Bft) 97,87 %
21.01.2018 17:40 0,6 C 3,3 C 97 % 1017,1 hPa 0,0 l/m 10,3 km/h (2 Bft) W 261 0 min 0,000 mm 0,0 UV-I 0 W/m 0,2 C -3,0 C 16,1 km/h (3 Bft) 97,87 %
21.01.2018 17:42 0,6 C 3,3 C 96 % 1017,2 hPa 0,0 l/m 10,1 km/h (2 Bft) W 271 0 min 0,000 mm 0,0 UV-I 0 W/m 0,0 C -2,9 C 14,5 km/h (3 Bft) 95,74 %
21.01.2018 17:44 0,6 C 3,3 C 96 % 1017,1 hPa 0,0 l/m 9,1 km/h (2 Bft) W-NW 291 0 min 0,000 mm 0,0 UV-I 0 W/m 0,0 C -2,0 C 14,5 km/h (3 Bft) 93,62 %
21.01.2018 17:46 0,6 C 3,3 C 97 % 1017,2 hPa 0,0 l/m 10,1 km/h (2 Bft) W 281 0 min 0,000 mm 0,0 UV-I 0 W/m 0,2 C -2,9 C 20,9 km/h (4 Bft) 98,00 %
21.01.2018 17:48 0,6 C 3,3 C 97 % 1017,2 hPa 0,0 l/m 10,0 km/h (2 Bft) W 260 0 min 0,000 mm 0,0 UV-I 0 W/m 0,2 C -2,8 C 17,7 km/h (3 Bft) 97,87 %
21.01.2018 17:50 0,6 C 3,3 C 97 % 1017,2 hPa 0,0 l/m 11,0 km/h (2 Bft) W-NW 295 0 min 0,000 mm 0,0 UV-I 0 W/m 0,2 C -3,6 C 17,7 km/h (3 Bft) 90,00 %
21.01.2018 17:52 0,6 C 3,3 C 97 % 1017,3 hPa 0,0 l/m 9,7 km/h (2 Bft) W 269 0 min 0,000 mm 0,0 UV-I 0 W/m 0,2 C -2,5 C 17,7 km/h (3 Bft) 97,87 %
21.01.2018 17:54 0,6 C 3,3 C 96 % 1017,3 hPa 0,0 l/m 10,6 km/h (2 Bft) W-SW 249 0 min 0,000 mm 0,0 UV-I 0 W/m 0,0 C -3,3 C 19,3 km/h (3 Bft) 97,87 %
21.01.2018 17:56 0,6 C 3,3 C 96 % 1017,4 hPa 0,0 l/m 11,6 km/h (2 Bft) W-SW 248 0 min 0,000 mm 0,0 UV-I 0 W/m 0,0 C -4,0 C 19,3 km/h (3 Bft) 97,87 %
21.01.2018 17:58 0,6 C 3,3 C 96 % 1017,4 hPa 0,0 l/m 7,0 km/h (2 Bft) W 281 0 min 0,000 mm 0,0 UV-I 0 W/m 0,0 C -0,0 C 11,3 km/h (2 Bft) 95,74 %
21.01.2018 18:00 0,6 C 3,3 C 96 % 1017,4 hPa 0,0 l/m 9,5 km/h (2 Bft) W-NW 290 0 min 0,000 mm 0,0 UV-I 0 W/m 0,0 C -2,4 C 16,1 km/h (3 Bft) 97,87 %
21.01.2018 18:02 0,6 C 3,3 C 96 % 1017,4 hPa 0,0 l/m 9,2 km/h (2 Bft) W 259 0 min 0,000 mm 0,0 UV-I 0 W/m 0,0 C -2,1 C 16,1 km/h (3 Bft) 95,83 %
21.01.2018 18:04 0,6 C 3,3 C 96 % 1017,4 hPa 0,0 l/m 10,6 km/h (2 Bft) W 271 0 min 0,000 mm 0,0 UV-I 0 W/m 0,0 C -3,3 C 20,9 km/h (4 Bft) 97,87 %
21.01.2018 18:06 0,6 C 3,3 C 96 % 1017,5 hPa 0,0 l/m 8,5 km/h (2 Bft) W 259 0 min 0,000 mm 0,0 UV-I 0 W/m 0,0 C -1,5 C 14,5 km/h (3 Bft) 97,14 %
21.01.2018 18:08 0,6 C 3,3 C 96 % 1017,5 hPa 0,0 l/m 9,1 km/h (2 Bft) W-SW 251 0 min 0,000 mm 0,0 UV-I 0 W/m 0,0 C -2,0 C 16,1 km/h (3 Bft) 97,87 %
21.01.2018 18:10 0,6 C 3,3 C 96 % 1017,5 hPa 0,0 l/m 11,2 km/h (2 Bft) W 280 0 min 0,000 mm 0,0 UV-I 0 W/m 0,0 C -3,7 C 16,1 km/h (3 Bft) 97,87 %
21.01.2018 18:12 0,6 C 3,3 C 96 % 1017,5 hPa 0,2 l/m 13,8 km/h (3 Bft) W 273 0 min 0,000 mm 0,0 UV-I 0 W/m 0,0 C -5,5 C 20,9 km/h (4 Bft) 95,74 %
21.01.2018 18:14 0,6 C 3,3 C 96 % 1017,5 hPa 0,0 l/m 9,2 km/h (2 Bft) W-NW 282 0 min 0,000 mm 0,0 UV-I 0 W/m 0,0 C -2,1 C 12,9 km/h (3 Bft) 97,87 %
21.01.2018 18:16 0,6 C 3,3 C 96 % 1017,5 hPa 0,0 l/m 11,4 km/h (2 Bft) W 265 0 min 0,000 mm 0,0 UV-I 0 W/m 0,0 C -3,9 C 20,9 km/h (4 Bft) 98,00 %
21.01.2018 18:18 0,6 C 3,3 C 96 % 1017,5 hPa 0,0 l/m 12,3 km/h (3 Bft) W 272 0 min 0,000 mm 0,0 UV-I 0 W/m 0,0 C -4,5 C 20,9 km/h (4 Bft) 95,74 %
21.01.2018 18:20 0,6 C 3,3 C 96 % 1017,5 hPa 0,0 l/m 12,2 km/h (2 Bft) W-SW 255 0 min 0,000 mm 0,0 UV-I 0 W/m 0,0 C -4,5 C 17,7 km/h (3 Bft) 98,00 %
21.01.2018 18:22 0,6 C 3,3 C 96 % 1017,5 hPa 0,0 l/m 12,9 km/h (3 Bft) W 265 0 min 0,000 mm 0,0 UV-I 0 W/m 0,0 C -4,9 C 24,1 km/h (4 Bft) 97,87 %
21.01.2018 18:24 0,6 C 3,3 C 96 % 1017,6 hPa 0,0 l/m 13,6 km/h (3 Bft) W 281 0 min 0,000 mm 0,0 UV-I 0 W/m 0,0 C -5,4 C 19,3 km/h (3 Bft) 97,87 %
21.01.2018 18:26 0,6 C 3,3 C 96 % 1017,6 hPa 0,0 l/m 10,6 km/h (2 Bft) W 259 0 min 0,000 mm 0,0 UV-I 0 W/m 0,0 C -3,3 C 19,3 km/h (3 Bft) 91,49 %
21.01.2018 18:28 0,7 C 3,3 C 96 % 1017,7 hPa 0,0 l/m 9,5 km/h (2 Bft) W 274 0 min 0,000 mm 0,0 UV-I 0 W/m 0,1 C -2,3 C 14,5 km/h (3 Bft) 93,62 %
21.01.2018 18:30 0,6 C 3,3 C 96 % 1017,7 hPa 0,0 l/m 10,8 km/h (2 Bft) N-NW 332 0 min 0,000 mm 0,0 UV-I 0 W/m 0,0 C -3,4 C 16,1 km/h (3 Bft) 97,56 %
21.01.2018 18:32 0,6 C 3,3 C 96 % 1017,7 hPa 0,0 l/m 11,4 km/h (2 Bft) W-SW 256 0 min 0,000 mm 0,0 UV-I 0 W/m 0,0 C -3,9 C 17,7 km/h (3 Bft) 96,00 %
21.01.2018 18:34 0,6 C 3,3 C 96 % 1017,7 hPa 0,0 l/m 14,7 km/h (3 Bft) W-SW 251 0 min 0,000 mm 0,0 UV-I 0 W/m 0,0 C -6,1 C 22,5 km/h (4 Bft) 98,00 %
21.01.2018 18:36 0,6 C 3,3 C 96 % 1017,8 hPa 0,0 l/m 9,0 km/h (2 Bft) W 274 0 min 0,000 mm 0,0 UV-I 0 W/m 0,0 C -1,9 C 14,5 km/h (3 Bft) 93,62 %
21.01.2018 18:38 0,6 C 3,3 C 96 % 1017,8 hPa 0,0 l/m 8,9 km/h (2 Bft) W-SW 257 0 min 0,000 mm 0,0 UV-I 0 W/m 0,0 C -1,8 C 17,7 km/h (3 Bft) 97,87 %
21.01.2018 18:40 0,6 C 3,3 C 96 % 1017,9 hPa 0,0 l/m 7,4 km/h (2 Bft) W 270 0 min 0,000 mm 0,0 UV-I 0 W/m 0,0 C -0,4 C 12,9 km/h (3 Bft) 93,75 %
21.01.2018 18:42 0,6 C 3,3 C 96 % 1017,8 hPa 0,0 l/m 11,8 km/h (2 Bft) W 279 0 min 0,000 mm 0,0 UV-I 0 W/m 0,0 C -4,2 C 19,3 km/h (3 Bft) 95,74 %
21.01.2018 18:44 0,6 C 3,3 C 96 % 1017,9 hPa 0,0 l/m 8,9 km/h (2 Bft) W-SW 238 0 min 0,000 mm 0,0 UV-I 0 W/m 0,0 C -1,8 C 12,9 km/h (3 Bft) 97,87 %
21.01.2018 18:46 0,6 C 3,3 C 96 % 1017,9 hPa 0,0 l/m 6,4 km/h (2 Bft) W-NW 286 0 min 0,000 mm 0,0 UV-I 0 W/m 0,0 C 0,6 C 11,3 km/h (2 Bft) 94,29 %
21.01.2018 18:48 0,6 C 3,3 C 96 % 1017,9 hPa 0,0 l/m 12,8 km/h (3 Bft) W 275 0 min 0,000 mm 0,0 UV-I 0 W/m 0,0 C -4,9 C 17,7 km/h (3 Bft) 100,00 %
21.01.2018 18:50 0,6 C 3,3 C 96 % 1018,0 hPa 0,0 l/m 11,0 km/h (2 Bft) W-SW 242 0 min 0,000 mm 0,0 UV-I 0 W/m 0,0 C -3,6 C 20,9 km/h (4 Bft) 100,00 %
21.01.2018 18:52 0,6 C 3,3 C 96 % 1017,9 hPa 0,0 l/m 11,6 km/h (2 Bft) W-NW 282 0 min 0,000 mm 0,0 UV-I 0 W/m 0,0 C -4,0 C 17,7 km/h (3 Bft) 100,00 %
21.01.2018 18:54 0,7 C 3,3 C 96 % 1018,0 hPa 0,0 l/m 11,0 km/h (2 Bft) W 274 0 min 0,000 mm 0,0 UV-I 0 W/m 0,1 C -3,5 C 14,5 km/h (3 Bft) 95,74 %
21.01.2018 18:56 0,6 C 3,3 C 96 % 1018,0 hPa 0,0 l/m 10,6 km/h (2 Bft) W 259 0 min 0,000 mm 0,0 UV-I 0 W/m 0,0 C -3,3 C 16,1 km/h (3 Bft) 100,00 %
21.01.2018 18:58 0,6 C 3,3 C 96 % 1018,1 hPa 0,0 l/m 10,5 km/h (2 Bft) W 261 0 min 0,000 mm 0,0 UV-I 0 W/m 0,0 C -3,2 C 20,9 km/h (4 Bft) 100,00 %
21.01.2018 19:00 0,6 C 3,3 C 96 % 1018,0 hPa 0,0 l/m 11,6 km/h (2 Bft) W-SW 239 0 min 0,000 mm 0,0 UV-I 0 W/m 0,0 C -4,0 C 20,9 km/h (4 Bft) 96,00 %
21.01.2018 19:02 0,6 C 3,3 C 96 % 1018,0 hPa 0,0 l/m 11,5 km/h (2 Bft) SW 222 0 min 0,000 mm 0,0 UV-I 0 W/m 0,0 C -3,9 C 19,3 km/h (3 Bft) 97,87 %
21.01.2018 19:04 0,6 C 3,3 C 96 % 1018,0 hPa 0,0 l/m 9,7 km/h (2 Bft) W 265 0 min 0,000 mm 0,0 UV-I 0 W/m 0,0 C -2,5 C 16,1 km/h (3 Bft) 100,00 %
21.01.2018 19:06 0,6 C 3,3 C 96 % 1018,1 hPa 0,0 l/m 7,8 km/h (2 Bft) W 264 0 min 0,000 mm 0,0 UV-I 0 W/m 0,0 C -0,8 C 14,5 km/h (3 Bft) 100,00 %
21.01.2018 19:08 0,6 C 3,3 C 96 % 1018,0 hPa 0,0 l/m 8,6 km/h (2 Bft) W 267 0 min 0,000 mm 0,0 UV-I 0 W/m 0,0 C -1,6 C 16,1 km/h (3 Bft) 97,87 %
21.01.2018 19:10 0,6 C 3,3 C 96 % 1018,1 hPa 0,0 l/m 9,3 km/h (2 Bft) NW 305 0 min 0,000 mm 0,0 UV-I 0 W/m 0,0 C -2,2 C 14,5 km/h (3 Bft) 100,00 %
21.01.2018 19:12 0,6 C 3,3 C 96 % 1018,2 hPa 0,0 l/m 10,9 km/h (2 Bft) W 273 0 min 0,000 mm 0,0 UV-I 0 W/m 0,0 C -3,5 C 16,1 km/h (3 Bft) 100,00 %
21.01.2018 19:14 0,6 C 3,3 C 96 % 1018,2 hPa 0,0 l/m 8,0 km/h (2 Bft) W-SW 244 0 min 0,000 mm 0,0 UV-I 0 W/m 0,0 C -1,0 C 12,9 km/h (3 Bft) 100,00 %
21.01.2018 19:16 0,6 C 3,3 C 96 % 1018,2 hPa 0,0 l/m 9,0 km/h (2 Bft) W-SW 249 0 min 0,000 mm 0,0 UV-I 0 W/m 0,0 C -1,9 C 14,5 km/h (3 Bft) 100,00 %
21.01.2018 19:18 0,6 C 3,3 C 96 % 1018,3 hPa 0,0 l/m 9,5 km/h (2 Bft) W 264 0 min 0,000 mm 0,0 UV-I 0 W/m 0,0 C -2,4 C 16,1 km/h (3 Bft) 100,00 %
21.01.2018 19:20 0,6 C 3,3 C 96 % 1018,4 hPa 0,0 l/m 6,9 km/h (2 Bft) W 268 0 min 0,000 mm 0,0 UV-I 0 W/m 0,0 C 0,1 C 11,3 km/h (2 Bft) 100,00 %
21.01.2018 19:22 0,6 C 3,3 C 96 % 1018,3 hPa 0,0 l/m 8,1 km/h (2 Bft) W-SW 254 0 min 0,000 mm 0,0 UV-I 0 W/m 0,0 C -1,1 C 14,5 km/h (3 Bft) 100,00 %
21.01.2018 19:24 0,6 C 3,3 C 96 % 1018,4 hPa 0,0 l/m 9,6 km/h (2 Bft) W 275 0 min 0,000 mm 0,0 UV-I 0 W/m 0,0 C -2,5 C 12,9 km/h (3 Bft) 97,87 %
21.01.2018 19:26 0,6 C 3,3 C 96 % 1018,4 hPa 0,0 l/m 6,5 km/h (2 Bft) W 272 0 min 0,000 mm 0,0 UV-I 0 W/m 0,0 C 0,5 C 11,3 km/h (2 Bft) 100,00 %
21.01.2018 19:28 0,6 C 3,3 C 96 % 1018,4 hPa 0,0 l/m 6,2 km/h (2 Bft) W 271 0 min 0,000 mm 0,0 UV-I 0 W/m 0,0 C 0,6 C 11,3 km/h (2 Bft) 97,87 %
21.01.2018 19:30 0,5 C 3,3 C 96 % 1018,5 hPa 0,0 l/m 8,3 km/h (2 Bft) W 272 0 min 0,000 mm 0,0 UV-I 0 W/m -0,1 C -1,4 C 14,5 km/h (3 Bft) 100,00 %
21.01.2018 19:32 0,6 C 3,3 C 96 % 1018,5 hPa 0,0 l/m 8,3 km/h (2 Bft) W-NW 282 0 min 0,000 mm 0,0 UV-I 0 W/m 0,0 C -1,3 C 12,9 km/h (3 Bft) 100,00 %
21.01.2018 19:34 0,5 C 3,3 C 96 % 1018,5 hPa 0,0 l/m 9,4 km/h (2 Bft) W 259 0 min 0,000 mm 0,0 UV-I 0 W/m -0,1 C -2,4 C 14,5 km/h (3 Bft) 95,74 %
21.01.2018 19:36 0,5 C 3,3 C 96 % 1018,6 hPa 0,0 l/m 7,8 km/h (2 Bft) W 274 0 min 0,000 mm 0,0 UV-I 0 W/m -0,1 C -0,9 C 11,3 km/h (2 Bft) 93,62 %
21.01.2018 19:38 0,6 C 3,3 C 96 % 1018,6 hPa 0,0 l/m 7,1 km/h (2 Bft) W-SW 254 0 min 0,000 mm 0,0 UV-I 0 W/m 0,0 C -0,1 C 11,3 km/h (2 Bft) 100,00 %
21.01.2018 19:40 0,5 C 3,3 C 96 % 1018,6 hPa 0,0 l/m 8,8 km/h (2 Bft) W 269 0 min 0,000 mm 0,0 UV-I 0 W/m -0,1 C -1,9 C 14,5 km/h (3 Bft) 100,00 %
21.01.2018 19:42 0,5 C 3,3 C 96 % 1018,5 hPa 0,2 l/m 9,0 km/h (2 Bft) W 259 0 min 0,000 mm 0,0 UV-I 0 W/m -0,1 C -2,0 C 16,1 km/h (3 Bft) 97,87 %
21.01.2018 19:44 0,5 C 3,3 C 96 % 1018,6 hPa 0,0 l/m 7,4 km/h (2 Bft) W 263 0 min 0,000 mm 0,0 UV-I 0 W/m -0,1 C -0,5 C 12,9 km/h (3 Bft) 100,00 %
21.01.2018 19:46 0,5 C 3,3 C 96 % 1018,6 hPa 0,0 l/m 5,2 km/h (1 Bft) W-SW 254 0 min 0,000 mm 0,0 UV-I 0 W/m -0,1 C 0,5 C 9,7 km/h (2 Bft) 100,00 %
21.01.2018 19:48 0,5 C 3,3 C 96 % 1018,6 hPa 0,0 l/m 7,8 km/h (2 Bft) W-NW 282 0 min 0,000 mm 0,0 UV-I 0 W/m -0,1 C -0,9 C 12,9 km/h (3 Bft) 100,00 %
21.01.2018 19:50 0,5 C 3,3 C 96 % 1018,6 hPa 0,0 l/m 10,0 km/h (2 Bft) W 272 0 min 0,000 mm 0,0 UV-I 0 W/m -0,1 C -2,9 C 14,5 km/h (3 Bft) 97,87 %
21.01.2018 19:52 0,5 C 3,3 C 96 % 1018,6 hPa 0,0 l/m 9,7 km/h (2 Bft) W-SW 252 0 min 0,000 mm 0,0 UV-I 0 W/m -0,1 C -2,6 C 14,5 km/h (3 Bft) 97,87 %
21.01.2018 19:54 0,5 C 3,3 C 96 % 1018,6 hPa 0,0 l/m 8,2 km/h (2 Bft) W 277 0 min 0,000 mm 0,0 UV-I 0 W/m -0,1 C -1,3 C 11,3 km/h (2 Bft) 97,87 %
21.01.2018 19:56 0,5 C 3,3 C 96 % 1018,6 hPa 0,0 l/m 8,3 km/h (2 Bft) W-SW 238 0 min 0,000 mm 0,0 UV-I 0 W/m -0,1 C -1,4 C 16,1 km/h (3 Bft) 97,87 %
21.01.2018 19:58 0,5 C 3,3 C 96 % 1018,6 hPa 0,0 l/m 8,5 km/h (2 Bft) W-SW 250 0 min 0,000 mm 0,0 UV-I 0 W/m -0,1 C -1,6 C 14,5 km/h (3 Bft) 100,00 %
21.01.2018 20:00 0,5 C 3,3 C 96 % 1018,6 hPa 0,0 l/m 7,3 km/h (2 Bft) W 265 0 min 0,000 mm 0,0 UV-I 0 W/m -0,1 C -0,4 C 12,9 km/h (3 Bft) 100,00 %
21.01.2018 20:02 0,5 C 3,3 C 96 % 1018,7 hPa 0,0 l/m 7,3 km/h (2 Bft) W 265 0 min 0,000 mm 0,0 UV-I 0 W/m -0,1 C -0,4 C 12,9 km/h (3 Bft) 100,00 %
21.01.2018 20:04 0,5 C 3,3 C 96 % 1018,7 hPa 0,0 l/m 5,4 km/h (1 Bft) W 272 0 min 0,000 mm 0,0 UV-I 0 W/m -0,1 C 0,5 C 9,7 km/h (2 Bft) 100,00 %
21.01.2018 20:06 0,5 C 3,3 C 96 % 1018,7 hPa 0,0 l/m 5,6 km/h (1 Bft) W 265 0 min 0,000 mm 0,0 UV-I 0 W/m -0,1 C 0,5 C 11,3 km/h (2 Bft) 97,87 %
21.01.2018 20:08 0,5 C 3,3 C 96 % 1018,7 hPa 0,0 l/m 8,7 km/h (2 Bft) W-NW 284 0 min 0,000 mm 0,0 UV-I 0 W/m -0,1 C -1,8 C 12,9 km/h (3 Bft) 100,00 %
21.01.2018 20:10 0,5 C 3,3 C 96 % 1018,8 hPa 0,0 l/m 7,5 km/h (2 Bft) W-NW 292 0 min 0,000 mm 0,0 UV-I 0 W/m -0,1 C -0,6 C 12,9 km/h (3 Bft) 97,56 %
21.01.2018 20:12 0,5 C 3,3 C 96 % 1018,8 hPa 0,0 l/m 6,0 km/h (2 Bft) W-SW 247 0 min 0,000 mm 0,0 UV-I 0 W/m -0,1 C 0,5 C 14,5 km/h (3 Bft) 100,00 %
21.01.2018 20:14 0,5 C 3,3 C 96 % 1018,7 hPa 0,0 l/m 8,8 km/h (2 Bft) W-SW 257 0 min 0,000 mm 0,0 UV-I 0 W/m -0,1 C -1,9 C 14,5 km/h (3 Bft) 97,87 %
21.01.2018 20:16 0,5 C 3,3 C 96 % 1018,7 hPa 0,0 l/m 6,1 km/h (2 Bft) W-NW 288 0 min 0,000 mm 0,0 UV-I 0 W/m -0,1 C 0,5 C 11,3 km/h (2 Bft) 97,37 %
21.01.2018 20:18 0,5 C 3,3 C 96 % 1018,7 hPa 0,0 l/m 9,4 km/h (2 Bft) W 259 0 min 0,000 mm 0,0 UV-I 0 W/m -0,1 C -2,4 C 12,9 km/h (3 Bft) 97,87 %
21.01.2018 20:20 0,5 C 3,3 C 96 % 1018,6 hPa 0,0 l/m 10,9 km/h (2 Bft) W-SW 256 0 min 0,000 mm 0,0 UV-I 0 W/m -0,1 C -3,6 C 19,3 km/h (3 Bft) 97,87 %
21.01.2018 20:22 0,6 C 3,3 C 96 % 1018,7 hPa 0,0 l/m 9,5 km/h (2 Bft) W-SW 257 0 min 0,000 mm 0,0 UV-I 0 W/m 0,0 C -2,4 C 17,7 km/h (3 Bft) 97,87 %
21.01.2018 20:24 0,6 C 3,3 C 96 % 1018,6 hPa 0,0 l/m 7,5 km/h (2 Bft) W 263 0 min 0,000 mm 0,0 UV-I 0 W/m 0,0 C -0,5 C 12,9 km/h (3 Bft) 97,87 %
21.01.2018 20:26 0,6 C 3,3 C 96 % 1018,6 hPa 0,0 l/m 7,1 km/h (2 Bft) W 272 0 min 0,000 mm 0,0 UV-I 0 W/m 0,0 C -0,1 C 12,9 km/h (3 Bft) 93,62 %
21.01.2018 20:28 0,5 C 3,3 C 96 % 1018,6 hPa 0,0 l/m 4,8 km/h (1 Bft) W 266 0 min 0,000 mm 0,0 UV-I 0 W/m -0,1 C 0,5 C 6,4 km/h (2 Bft) 96,00 %
21.01.2018 20:30 0,5 C 3,3 C 96 % 1018,6 hPa 0,0 l/m 5,0 km/h (1 Bft) W 268 0 min 0,000 mm 0,0 UV-I 0 W/m -0,1 C 0,5 C 6,4 km/h (2 Bft) 97,87 %
21.01.2018 20:32 0,5 C 3,3 C 96 % 1018,6 hPa 0,0 l/m 4,7 km/h (1 Bft) W 267 0 min 0,000 mm 0,0 UV-I 0 W/m -0,1 C 0,5 C 8,0 km/h (2 Bft) 97,87 %
21.01.2018 20:34 0,5 C 3,3 C 96 % 1018,5 hPa 0,0 l/m 7,3 km/h (2 Bft) W 277 0 min 0,000 mm 0,0 UV-I 0 W/m -0,1 C -0,4 C 12,9 km/h (3 Bft) 97,87 %
21.01.2018 20:36 0,5 C 3,3 C 96 % 1018,6 hPa 0,0 l/m 5,8 km/h (2 Bft) W 259 0 min 0,000 mm 0,0 UV-I 0 W/m -0,1 C 0,5 C 9,7 km/h (2 Bft) 92,00 %
21.01.2018 20:38 0,5 C 3,3 C 96 % 1018,6 hPa 0,0 l/m 6,9 km/h (2 Bft) W 259 0 min 0,000 mm 0,0 UV-I 0 W/m -0,1 C -0,0 C 11,3 km/h (2 Bft) 98,00 %
21.01.2018 20:40 0,5 C 3,3 C 96 % 1018,5 hPa 0,0 l/m 4,8 km/h (1 Bft) W-SW 248 0 min 0,000 mm 0,0 UV-I 0 W/m -0,1 C 0,5 C 6,4 km/h (2 Bft) 97,87 %
21.01.2018 20:42 0,5 C 3,3 C 96 % 1018,5 hPa 0,0 l/m 6,6 km/h (2 Bft) W 261 0 min 0,000 mm 0,0 UV-I 0 W/m -0,1 C 0,3 C 12,9 km/h (3 Bft) 97,22 %
21.01.2018 20:44 0,6 C 3,3 C 96 % 1018,5 hPa 0,0 l/m 5,8 km/h (2 Bft) W-SW 242 0 min 0,000 mm 0,0 UV-I 0 W/m 0,0 C 0,6 C 11,3 km/h (2 Bft) 97,87 %
21.01.2018 20:46 0,5 C 3,3 C 96 % 1018,5 hPa 0,0 l/m 4,5 km/h (1 Bft) W 265 0 min 0,000 mm 0,0 UV-I 0 W/m -0,1 C 0,5 C 9,7 km/h (2 Bft) 93,62 %
21.01.2018 20:48 0,5 C 3,3 C 96 % 1018,4 hPa 0,0 l/m 8,7 km/h (2 Bft) W 273 0 min 0,000 mm 0,0 UV-I 0 W/m -0,1 C -1,8 C 14,5 km/h (3 Bft) 97,87 %
21.01.2018 20:50 0,5 C 3,3 C 96 % 1018,4 hPa 0,0 l/m 5,1 km/h (1 Bft) W-SW 250 0 min 0,000 mm 0,0 UV-I 0 W/m -0,1 C 0,5 C 9,7 km/h (2 Bft) 97,87 %
21.01.2018 20:52 0,5 C 3,3 C 96 % 1018,4 hPa 0,0 l/m 8,5 km/h (2 Bft) W-SW 254 0 min 0,000 mm 0,0 UV-I 0 W/m -0,1 C -1,6 C 12,9 km/h (3 Bft) 96,00 %
21.01.2018 20:54 0,6 C 3,3 C 96 % 1018,5 hPa 0,0 l/m 4,5 km/h (1 Bft) W 269 0 min 0,000 mm 0,0 UV-I 0 W/m 0,0 C 0,6 C 9,7 km/h (2 Bft) 100,00 %
21.01.2018 20:56 0,6 C 3,3 C 96 % 1018,5 hPa 0,0 l/m 3,1 km/h (1 Bft) W 269 0 min 0,000 mm 0,0 UV-I 0 W/m 0,0 C 0,6 C 4,8 km/h (1 Bft) 97,87 %
21.01.2018 20:58 0,5 C 3,3 C 96 % 1018,5 hPa 0,0 l/m 2,3 km/h (1 Bft) W 268 0 min 0,000 mm 0,0 UV-I 0 W/m -0,1 C 0,5 C 4,8 km/h (1 Bft) 97,87 %
21.01.2018 21:00 0,5 C 3,3 C 96 % 1018,6 hPa 0,0 l/m 3,0 km/h (1 Bft) W 268 0 min 0,000 mm 0,0 UV-I 0 W/m -0,1 C 0,5 C 4,8 km/h (1 Bft) 98,11 %
21.01.2018 21:02 0,4 C 3,3 C 96 % 1018,6 hPa 0,0 l/m 3,6 km/h (1 Bft) SW 229 0 min 0,000 mm 0,0 UV-I 0 W/m -0,2 C 0,4 C 9,7 km/h (2 Bft) 97,87 %
21.01.2018 21:04 0,4 C 3,3 C 96 % 1018,7 hPa 0,0 l/m 5,1 km/h (1 Bft) W-SW 257 0 min 0,000 mm 0,0 UV-I 0 W/m -0,2 C 0,4 C 9,7 km/h (2 Bft) 97,87 %
21.01.2018 21:06 0,5 C 3,3 C 96 % 1018,8 hPa 0,0 l/m 3,5 km/h (1 Bft) W 259 0 min 0,000 mm 0,0 UV-I 0 W/m -0,1 C 0,5 C 4,8 km/h (1 Bft) 100,00 %
21.01.2018 21:08 0,5 C 3,3 C 96 % 1018,8 hPa 0,0 l/m 3,8 km/h (1 Bft) W 278 0 min 0,000 mm 0,0 UV-I 0 W/m -0,1 C 0,5 C 6,4 km/h (2 Bft) 100,00 %
21.01.2018 21:10 0,5 C 3,3 C 96 % 1018,9 hPa 0,0 l/m 5,2 km/h (1 Bft) W-SW 250 0 min 0,000 mm 0,0 UV-I 0 W/m -0,1 C 0,5 C 9,7 km/h (2 Bft) 100,00 %
21.01.2018 21:12 0,5 C 3,3 C 96 % 1018,9 hPa 0,0 l/m 6,3 km/h (2 Bft) W 269 0 min 0,000 mm 0,0 UV-I 0 W/m -0,1 C 0,5 C 9,7 km/h (2 Bft) 100,00 %
21.01.2018 21:14 0,4 C 3,3 C 96 % 1018,9 hPa 0,0 l/m 5,2 km/h (1 Bft) W 268 0 min 0,000 mm 0,0 UV-I 0 W/m -0,2 C 0,4 C 9,7 km/h (2 Bft) 100,00 %
21.01.2018 21:16 0,5 C 3,3 C 96 % 1019,0 hPa 0,0 l/m 6,6 km/h (2 Bft) W-SW 238 0 min 0,000 mm 0,0 UV-I 0 W/m -0,1 C 0,3 C 11,3 km/h (2 Bft) 97,87 %
21.01.2018 21:18 0,5 C 3,3 C 96 % 1019,0 hPa 0,0 l/m 5,5 km/h (1 Bft) W-SW 242 0 min 0,000 mm 0,0 UV-I 0 W/m -0,1 C 0,5 C 8,0 km/h (2 Bft) 100,00 %
21.01.2018 21:20 0,4 C 3,3 C 96 % 1019,0 hPa 0,0 l/m 4,5 km/h (1 Bft) W-SW 253 0 min 0,000 mm 0,0 UV-I 0 W/m -0,2 C 0,4 C 8,0 km/h (2 Bft) 97,87 %
21.01.2018 21:22 0,4 C 3,3 C 96 % 1019,0 hPa 0,0 l/m 5,9 km/h (2 Bft) W-SW 258 0 min 0,000 mm 0,0 UV-I 0 W/m -0,2 C 0,4 C 9,7 km/h (2 Bft) 97,87 %
21.01.2018 21:24 0,4 C 3,3 C 96 % 1019,1 hPa 0,0 l/m 6,2 km/h (2 Bft) W 279 0 min 0,000 mm 0,0 UV-I 0 W/m -0,2 C 0,4 C 12,9 km/h (3 Bft) 95,74 %
21.01.2018 21:26 0,4 C 3,3 C 96 % 1019,1 hPa 0,0 l/m 7,2 km/h (2 Bft) W-SW 254 0 min 0,000 mm 0,0 UV-I 0 W/m -0,2 C -0,4 C 12,9 km/h (3 Bft) 95,74 %
21.01.2018 21:28 0,4 C 3,3 C 96 % 1019,1 hPa 0,0 l/m 8,1 km/h (2 Bft) W 264 0 min 0,000 mm 0,0 UV-I 0 W/m -0,2 C -1,3 C 12,9 km/h (3 Bft) 97,87 %
21.01.2018 21:30 0,4 C 3,3 C 96 % 1019,1 hPa 0,0 l/m 8,0 km/h (2 Bft) W-SW 247 0 min 0,000 mm 0,0 UV-I 0 W/m -0,2 C -1,2 C 14,5 km/h (3 Bft) 97,37 %
21.01.2018 21:35 0,4 C 3,3 C 96 % 1019,1 hPa 0,0 l/m 8,0 km/h (2 Bft) W-SW 247 0 min 0,000 mm 0,0 UV-I 0 W/m -0,2 C -1,2 C 16,1 km/h (3 Bft) 100,00 %
21.01.2018 21:40 0,3 C 3,3 C 95 % 1019,1 hPa 0,0 l/m 9,7 km/h (2 Bft) W-SW 247 0 min 0,000 mm 0,0 UV-I 0 W/m -0,4 C -2,9 C 16,1 km/h (3 Bft) 100,00 %
21.01.2018 21:45 0,4 C 3,3 C 95 % 1019,1 hPa 0,0 l/m 11,3 km/h (2 Bft) W 270 0 min 0,000 mm 0,0 UV-I 0 W/m -0,3 C -4,0 C 19,3 km/h (3 Bft) 100,00 %
21.01.2018 21:50 0,3 C 3,3 C 95 % 1019,1 hPa 0,0 l/m 9,7 km/h (2 Bft) W 270 0 min 0,000 mm 0,0 UV-I 0 W/m -0,4 C -2,9 C 14,5 km/h (3 Bft) 100,00 %
21.01.2018 21:55 0,3 C 3,3 C 95 % 1019,2 hPa 0,2 l/m 11,3 km/h (2 Bft) W 270 0 min 0,000 mm 0,0 UV-I 0 W/m -0,4 C -4,1 C 19,3 km/h (3 Bft) 100,00 %
21.01.2018 21:56 0,3 C 3,3 C 95 % 1019,2 hPa 0,0 l/m 12,7 km/h (3 Bft) W 265 0 min 0,000 mm 0,0 UV-I 0 W/m -0,4 C -5,1 C 16,1 km/h (3 Bft) 95,24 %
21.01.2018 21:58 0,4 C 3,3 C 95 % 1019,3 hPa 0,0 l/m 12,9 km/h (3 Bft) W 279 0 min 0,000 mm 0,0 UV-I 0 W/m -0,3 C -5,2 C 19,3 km/h (3 Bft) 98,04 %
21.01.2018 22:00 0,4 C 3,3 C 95 % 1019,4 hPa 0,0 l/m 13,0 km/h (3 Bft) W-SW 245 0 min 0,000 mm 0,0 UV-I 0 W/m -0,3 C -5,2 C 16,1 km/h (3 Bft) 97,73 %
21.01.2018 22:02 0,4 C 3,3 C 95 % 1019,4 hPa 0,0 l/m 12,7 km/h (3 Bft) W-SW 247 0 min 0,000 mm 0,0 UV-I 0 W/m -0,3 C -5,0 C 17,7 km/h (3 Bft) 94,00 %
21.01.2018 22:04 0,4 C 3,3 C 95 % 1019,4 hPa 0,0 l/m 9,8 km/h (2 Bft) W 263 0 min 0,000 mm 0,0 UV-I 0 W/m -0,3 C -2,8 C 16,1 km/h (3 Bft) 97,37 %
21.01.2018 22:06 0,4 C 3,3 C 95 % 1019,4 hPa 0,0 l/m 12,3 km/h (3 Bft) W-SW 256 0 min 0,000 mm 0,0 UV-I 0 W/m -0,3 C -4,8 C 19,3 km/h (3 Bft) 97,87 %
21.01.2018 22:08 0,4 C 3,3 C 95 % 1019,5 hPa 0,0 l/m 10,8 km/h (2 Bft) W-SW 257 0 min 0,000 mm 0,0 UV-I 0 W/m -0,3 C -3,6 C 16,1 km/h (3 Bft) 96,00 %
21.01.2018 22:10 0,4 C 3,3 C 95 % 1019,4 hPa 0,0 l/m 14,0 km/h (3 Bft) W 259 0 min 0,000 mm 0,0 UV-I 0 W/m -0,3 C -5,9 C 20,9 km/h (4 Bft) 94,00 %
21.01.2018 22:12 0,4 C 3,3 C 95 % 1019,4 hPa 0,0 l/m 8,3 km/h (2 Bft) W-SW 257 0 min 0,000 mm 0,0 UV-I 0 W/m -0,3 C -1,5 C 12,9 km/h (3 Bft) 98,00 %
21.01.2018 22:14 0,3 C 3,3 C 95 % 1019,4 hPa 0,0 l/m 10,7 km/h (2 Bft) W 259 0 min 0,000 mm 0,0 UV-I 0 W/m -0,4 C -3,7 C 14,5 km/h (3 Bft) 97,56 %
21.01.2018 22:16 0,3 C 3,3 C 95 % 1019,4 hPa 0,0 l/m 9,8 km/h (2 Bft) W-SW 257 0 min 0,000 mm 0,0 UV-I 0 W/m -0,4 C -3,0 C 16,1 km/h (3 Bft) 98,00 %
21.01.2018 22:18 0,3 C 3,3 C 95 % 1019,5 hPa 0,0 l/m 7,6 km/h (2 Bft) W 277 0 min 0,000 mm 0,0 UV-I 0 W/m -0,4 C -0,9 C 11,3 km/h (2 Bft) 98,00 %
21.01.2018 22:20 0,3 C 3,3 C 95 % 1019,5 hPa 0,0 l/m 9,0 km/h (2 Bft) W-SW 252 0 min 0,000 mm 0,0 UV-I 0 W/m -0,4 C -2,3 C 12,9 km/h (3 Bft) 100,00 %
21.01.2018 22:22 0,3 C 3,3 C 95 % 1019,4 hPa 0,0 l/m 8,7 km/h (2 Bft) W-SW 256 0 min 0,000 mm 0,0 UV-I 0 W/m -0,4 C -2,0 C 12,9 km/h (3 Bft) 98,00 %
21.01.2018 22:24 0,3 C 3,3 C 95 % 1019,4 hPa 0,0 l/m 10,5 km/h (2 Bft) W-SW 244 0 min 0,000 mm 0,0 UV-I 0 W/m -0,4 C -3,5 C 16,1 km/h (3 Bft) 98,11 %
21.01.2018 22:26 0,3 C 3,3 C 94 % 1019,4 hPa 0,0 l/m 9,6 km/h (2 Bft) W-SW 252 0 min 0,000 mm 0,0 UV-I 0 W/m -0,5 C -2,8 C 14,5 km/h (3 Bft) 94,87 %
21.01.2018 22:28 0,3 C 3,3 C 94 % 1019,3 hPa 0,0 l/m 9,7 km/h (2 Bft) W 265 0 min 0,000 mm 0,0 UV-I 0 W/m -0,5 C -2,9 C 14,5 km/h (3 Bft) 94,23 %
21.01.2018 22:30 0,3 C 3,3 C 94 % 1019,4 hPa 0,0 l/m 8,0 km/h (2 Bft) W-SW 243 0 min 0,000 mm 0,0 UV-I 0 W/m -0,5 C -1,3 C 11,3 km/h (2 Bft) 94,87 %
21.01.2018 22:32 0,3 C 3,3 C 94 % 1019,3 hPa 0,0 l/m 6,2 km/h (2 Bft) W-SW 251 0 min 0,000 mm 0,0 UV-I 0 W/m -0,5 C 0,3 C 8,0 km/h (2 Bft) 98,21 %
21.01.2018 22:34 0,3 C 3,3 C 94 % 1019,2 hPa 0,0 l/m 7,3 km/h (2 Bft) SW 219 0 min 0,000 mm 0,0 UV-I 0 W/m -0,5 C -0,6 C 11,3 km/h (2 Bft) 92,11 %
21.01.2018 22:36 0,3 C 3,3 C 94 % 1019,3 hPa 0,0 l/m 6,5 km/h (2 Bft) W-SW 257 0 min 0,000 mm 0,0 UV-I 0 W/m -0,5 C 0,2 C 9,7 km/h (2 Bft) 98,00 %
21.01.2018 22:38 0,3 C 3,3 C 94 % 1019,2 hPa 0,0 l/m 4,8 km/h (1 Bft) W 261 0 min 0,000 mm 0,0 UV-I 0 W/m -0,5 C 0,3 C 6,4 km/h (2 Bft) 98,00 %
21.01.2018 22:40 0,2 C 3,3 C 94 % 1019,2 hPa 0,0 l/m 7,2 km/h (2 Bft) W 271 0 min 0,000 mm 0,0 UV-I 0 W/m -0,6 C -0,6 C 12,9 km/h (3 Bft) 96,00 %
21.01.2018 22:42 0,2 C 3,3 C 94 % 1019,2 hPa 0,0 l/m 5,4 km/h (1 Bft) W-SW 242 0 min 0,000 mm 0,0 UV-I 0 W/m -0,6 C 0,2 C 9,7 km/h (2 Bft) 97,56 %
21.01.2018 22:44 0,2 C 3,3 C 94 % 1019,2 hPa 0,0 l/m 5,6 km/h (1 Bft) W-SW 247 0 min 0,000 mm 0,0 UV-I 0 W/m -0,6 C 0,2 C 6,4 km/h (2 Bft) 97,73 %
21.01.2018 22:46 0,2 C 3,3 C 94 % 1019,1 hPa 0,0 l/m 5,6 km/h (1 Bft) W-SW 257 0 min 0,000 mm 0,0 UV-I 0 W/m -0,6 C 0,2 C 11,3 km/h (2 Bft) 96,23 %
21.01.2018 22:48 0,2 C 3,3 C 94 % 1019,1 hPa 0,0 l/m 5,7 km/h (1 Bft) W-SW 252 0 min 0,000 mm 0,0 UV-I 0 W/m -0,6 C 0,2 C 11,3 km/h (2 Bft) 98,00 %
21.01.2018 22:50 0,2 C 3,3 C 94 % 1019,1 hPa 0,0 l/m 5,4 km/h (1 Bft) W-SW 255 0 min 0,000 mm 0,0 UV-I 0 W/m -0,6 C 0,2 C 8,0 km/h (2 Bft) 97,56 %
21.01.2018 22:52 0,2 C 3,3 C 94 % 1019,1 hPa 0,0 l/m 4,9 km/h (1 Bft) W-SW 252 0 min 0,000 mm 0,0 UV-I 0 W/m -0,6 C 0,2 C 11,3 km/h (2 Bft) 95,74 %
21.01.2018 22:54 0,2 C 3,3 C 94 % 1019,1 hPa 0,0 l/m 3,3 km/h (1 Bft) W-NW 291 0 min 0,000 mm 0,0 UV-I 0 W/m -0,6 C 0,2 C 8,0 km/h (2 Bft) 97,56 %
21.01.2018 22:56 0,2 C 3,3 C 94 % 1019,1 hPa 0,0 l/m 4,1 km/h (1 Bft) W-NW 299 0 min 0,000 mm 0,0 UV-I 0 W/m -0,6 C 0,2 C 8,0 km/h (2 Bft) 96,23 %
21.01.2018 22:58 0,2 C 3,3 C 94 % 1019,1 hPa 0,0 l/m 2,0 km/h (1 Bft) W-SW 249 0 min 0,000 mm 0,0 UV-I 0 W/m -0,6 C 0,2 C 8,0 km/h (2 Bft) 98,00 %
21.01.2018 23:00 0,2 C 3,3 C 94 % 1019,1 hPa 0,0 l/m 5,4 km/h (1 Bft) W-SW 248 0 min 0,000 mm 0,0 UV-I 0 W/m -0,6 C 0,2 C 8,0 km/h (2 Bft) 97,37 %
21.01.2018 23:02 0,2 C 3,3 C 94 % 1019,1 hPa 0,0 l/m 3,3 km/h (1 Bft) SW 217 0 min 0,000 mm 0,0 UV-I 0 W/m -0,6 C 0,2 C 6,4 km/h (2 Bft) 96,97 %
21.01.2018 23:04 0,2 C 3,3 C 94 % 1019,1 hPa 0,0 l/m 3,3 km/h (1 Bft) W-NW 296 0 min 0,000 mm 0,0 UV-I 0 W/m -0,6 C 0,2 C 6,4 km/h (2 Bft) 98,36 %
21.01.2018 23:06 0,2 C 3,3 C 94 % 1019,1 hPa 0,0 l/m 2,3 km/h (1 Bft) W 272 0 min 0,000 mm 0,0 UV-I 0 W/m -0,6 C 0,2 C 6,4 km/h (2 Bft) 98,11 %
21.01.2018 23:08 0,2 C 3,3 C 94 % 1019,1 hPa 0,0 l/m 3,0 km/h (1 Bft) W 273 0 min 0,000 mm 0,0 UV-I 0 W/m -0,6 C 0,2 C 4,8 km/h (1 Bft) 100,00 %
21.01.2018 23:10 0,1 C 3,3 C 94 % 1019,0 hPa 0,0 l/m 5,6 km/h (1 Bft) W 265 0 min 0,000 mm 0,0 UV-I 0 W/m -0,7 C 0,1 C 11,3 km/h (2 Bft) 100,00 %
21.01.2018 23:12 0,1 C 3,3 C 94 % 1019,0 hPa 0,0 l/m 6,4 km/h (2 Bft) W-SW 244 0 min 0,000 mm 0,0 UV-I 0 W/m -0,7 C 0,1 C 9,7 km/h (2 Bft) 100,00 %
21.01.2018 23:14 0,1 C 3,3 C 93 % 1019,0 hPa 0,0 l/m 4,3 km/h (1 Bft) W-SW 247 0 min 0,000 mm 0,0 UV-I 0 W/m -0,9 C 0,1 C 6,4 km/h (2 Bft) 98,00 %
21.01.2018 23:16 0,1 C 3,3 C 93 % 1019,0 hPa 0,0 l/m 6,9 km/h (2 Bft) W 260 0 min 0,000 mm 0,0 UV-I 0 W/m -0,9 C -0,4 C 11,3 km/h (2 Bft) 100,00 %
21.01.2018 23:18 0,1 C 3,3 C 93 % 1018,9 hPa 0,0 l/m 7,7 km/h (2 Bft) W 260 0 min 0,000 mm 0,0 UV-I 0 W/m -0,9 C -1,2 C 11,3 km/h (2 Bft) 100,00 %
21.01.2018 23:20 0,1 C 3,3 C 93 % 1018,9 hPa 0,0 l/m 6,3 km/h (2 Bft) W 275 0 min 0,000 mm 0,0 UV-I 0 W/m -0,9 C 0,1 C 9,7 km/h (2 Bft) 100,00 %
21.01.2018 23:22 0,1 C 3,3 C 93 % 1018,9 hPa 0,0 l/m 9,1 km/h (2 Bft) W 273 0 min 0,000 mm 0,0 UV-I 0 W/m -0,9 C -2,6 C 12,9 km/h (3 Bft) 100,00 %
21.01.2018 23:24 0,0 C 3,3 C 93 % 1018,8 hPa 0,0 l/m 6,6 km/h (2 Bft) W-SW 257 0 min 0,000 mm 0,0 UV-I 0 W/m -1,0 C -0,2 C 9,7 km/h (2 Bft) 100,00 %
21.01.2018 23:26 0,0 C 3,3 C 93 % 1018,9 hPa 0,0 l/m 5,2 km/h (1 Bft) W 267 0 min 0,000 mm 0,0 UV-I 0 W/m -1,0 C 0,0 C 6,4 km/h (2 Bft) 100,00 %
21.01.2018 23:28 -0,1 C 3,3 C 94 % 1018,9 hPa 0,0 l/m 5,8 km/h (2 Bft) W-SW 247 0 min 0,000 mm 0,0 UV-I 0 W/m -0,9 C -0,1 C 9,7 km/h (2 Bft) 100,00 %
21.01.2018 23:30 -0,1 C 3,3 C 94 % 1018,9 hPa 0,0 l/m 6,5 km/h (2 Bft) W-SW 254 0 min 0,000 mm 0,0 UV-I 0 W/m -0,9 C -0,2 C 9,7 km/h (2 Bft) 100,00 %
21.01.2018 23:32 -0,2 C 3,3 C 94 % 1018,9 hPa 0,0 l/m 8,9 km/h (2 Bft) W-SW 250 0 min 0,000 mm 0,0 UV-I 0 W/m -1,0 C -2,7 C 12,9 km/h (3 Bft) 97,56 %
21.01.2018 23:34 -0,1 C 3,3 C 94 % 1018,9 hPa 0,0 l/m 7,2 km/h (2 Bft) W-SW 248 0 min 0,000 mm 0,0 UV-I 0 W/m -0,9 C -0,9 C 9,7 km/h (2 Bft) 100,00 %
21.01.2018 23:36 -0,1 C 3,3 C 94 % 1018,9 hPa 0,0 l/m 6,0 km/h (2 Bft) W-SW 252 0 min 0,000 mm 0,0 UV-I 0 W/m -0,9 C -0,1 C 8,0 km/h (2 Bft) 97,73 %
21.01.2018 23:38 -0,1 C 3,3 C 94 % 1018,7 hPa 0,0 l/m 6,1 km/h (2 Bft) W-SW 247 0 min 0,000 mm 0,0 UV-I 0 W/m -0,9 C -0,1 C 9,7 km/h (2 Bft) 100,00 %
21.01.2018 23:40 -0,1 C 3,3 C 94 % 1018,7 hPa 0,0 l/m 6,2 km/h (2 Bft) W-SW 255 0 min 0,000 mm 0,0 UV-I 0 W/m -0,9 C -0,1 C 9,7 km/h (2 Bft) 100,00 %
21.01.2018 23:42 -0,1 C 3,3 C 94 % 1018,8 hPa 0,0 l/m 6,6 km/h (2 Bft) W-SW 257 0 min 0,000 mm 0,0 UV-I 0 W/m -0,9 C -0,3 C 9,7 km/h (2 Bft) 97,73 %
21.01.2018 23:44 -0,1 C 3,3 C 94 % 1018,8 hPa 0,0 l/m 7,2 km/h (2 Bft) W 270 0 min 0,000 mm 0,0 UV-I 0 W/m -0,9 C -0,9 C 11,3 km/h (2 Bft) 100,00 %
21.01.2018 23:46 -0,1 C 3,3 C 94 % 1018,8 hPa 0,0 l/m 7,8 km/h (2 Bft) W 268 0 min 0,000 mm 0,0 UV-I 0 W/m -0,9 C -1,6 C 11,3 km/h (2 Bft) 100,00 %
21.01.2018 23:48 -0,1 C 3,3 C 94 % 1018,8 hPa 0,0 l/m 7,7 km/h (2 Bft) W 261 0 min 0,000 mm 0,0 UV-I 0 W/m -0,9 C -1,5 C 11,3 km/h (2 Bft) 97,50 %
21.01.2018 23:50 -0,1 C 3,3 C 94 % 1018,7 hPa 0,0 l/m 8,9 km/h (2 Bft) SW 216 0 min 0,000 mm 0,0 UV-I 0 W/m -0,9 C -2,6 C 12,9 km/h (3 Bft) 100,00 %
21.01.2018 23:52 0,0 C 3,3 C 94 % 1018,6 hPa 0,0 l/m 9,2 km/h (2 Bft) W 261 0 min 0,000 mm 0,0 UV-I 0 W/m -0,8 C -2,8 C 12,9 km/h (3 Bft) 100,00 %
21.01.2018 23:54 0,0 C 3,3 C 94 % 1018,6 hPa 0,0 l/m 7,1 km/h (2 Bft) W-SW 252 0 min 0,000 mm 0,0 UV-I 0 W/m -0,8 C -0,7 C 11,3 km/h (2 Bft) 100,00 %
21.01.2018 23:56 0,0 C 3,3 C 94 % 1018,6 hPa 0,0 l/m 9,1 km/h (2 Bft) W-SW 256 0 min 0,000 mm 0,0 UV-I 0 W/m -0,8 C -2,7 C 14,5 km/h (3 Bft) 100,00 %
21.01.2018 23:58 0,0 C 3,3 C 94 % 1018,6 hPa 0,0 l/m 11,1 km/h (2 Bft) W-SW 257 0 min 0,000 mm 0,0 UV-I 0 W/m -0,8 C -4,3 C 14,5 km/h (3 Bft) 100,00 %
_ Min-Zeit 23:32 00:00 13:28 00:38 - 01:26 - - - - - - 23:32 12:06 01:26 17:50
Minimum _ -0,2 C 3,3 C 93 % 998,5 hPa - 0,0 km/h (0 Bft) - - - - - - -1,0 C -10,5 C 0,0 km/h (0 Bft) 90,00 %
_ Max-Zeit 10:58 00:00 03:36 22:08 12:44 13:12 - - 00:00 13:00 00:00 13:24 10:48 18:46 13:12 00:04
Maximum _ 1,4 C 3,3 C 98 % 1019,5 hPa 0,2 l/m 26,5 km/h
W (4 Bft)
- - 0 min 0,051 mm 0,0 UV-I 145 W/m 0,9 C 0,6 C 51,5 km/h
W (7 Bft)
100,00 %
Durchschnitt _ 0,5 C 3,3 C 96 % 1009,5 hPa #5,2 l/m 8,1 km/h (2 Bft) W - #0 min. #0,178 mm 0,0 UV-I 58 W/m -0,0 C -2,3 C 12,7 km/h (3 Bft) 97,76 %